<?xml version='1.0' encoding='UTF-8'?><gpx version="1.1" creator="JPX - https://github.com/jenetics/jpx" xmlns="http://www.topografix.com/GPX/1/1"><trk><trkseg><trkpt lat="44.3176975" lon="11.7913303"><ele>44.0</ele><time>2026-04-23T07:09:03.877Z</time></trkpt><trkpt lat="44.3177291" lon="11.7912255"><ele>44.0</ele><time>2026-04-23T07:09:13.884Z</time></trkpt><trkpt lat="44.3176981" lon="11.7914668"><ele>44.0</ele><time>2026-04-23T07:09:47.877Z</time></trkpt><trkpt lat="44.3176685" lon="11.791567"><ele>44.0</ele><time>2026-04-23T07:09:51.876Z</time></trkpt><trkpt lat="44.3176602" lon="11.7916703"><ele>44.0</ele><time>2026-04-23T07:09:55.876Z</time></trkpt><trkpt lat="44.3176931" lon="11.7917462"><ele>44.0</ele><time>2026-04-23T07:09:58.877Z</time></trkpt><trkpt lat="44.3177565" lon="11.7917861"><ele>44.0</ele><time>2026-04-23T07:10:04.877Z</time></trkpt><trkpt lat="44.3178233" lon="11.7918155"><ele>44.0</ele><time>2026-04-23T07:10:27.876Z</time></trkpt><trkpt lat="44.3178823" lon="11.7917648"><ele>44.0</ele><time>2026-04-23T07:10:30.876Z</time></trkpt><trkpt lat="44.3179223" lon="11.7916761"><ele>44.0</ele><time>2026-04-23T07:10:33.877Z</time></trkpt><trkpt lat="44.3179598" lon="11.7915517"><ele>44.0</ele><time>2026-04-23T07:10:36.876Z</time></trkpt><trkpt lat="44.3179957" lon="11.791465"><ele>44.0</ele><time>2026-04-23T07:10:38.876Z</time></trkpt><trkpt lat="44.3180413" lon="11.7913583"><ele>44.0</ele><time>2026-04-23T07:10:40.877Z</time></trkpt><trkpt lat="44.3180619" lon="11.7912481"><ele>44.0</ele><time>2026-04-23T07:10:42.877Z</time></trkpt><trkpt lat="44.3180911" lon="11.7911599"><ele>44.0</ele><time>2026-04-23T07:10:44.876Z</time></trkpt><trkpt lat="44.3181176" lon="11.7910721"><ele>44.0</ele><time>2026-04-23T07:10:46.877Z</time></trkpt><trkpt lat="44.3181622" lon="11.7909599"><ele>44.0</ele><time>2026-04-23T07:10:49.876Z</time></trkpt><trkpt lat="44.3181988" lon="11.7908586"><ele>43.83333333333333</ele><time>2026-04-23T07:10:51.876Z</time></trkpt><trkpt lat="44.3182533" lon="11.7907549"><ele>43.666666666666664</ele><time>2026-04-23T07:10:53.876Z</time></trkpt><trkpt lat="44.3183087" lon="11.7906519"><ele>43.5</ele><time>2026-04-23T07:10:55.876Z</time></trkpt><trkpt lat="44.3183545" lon="11.7905603"><ele>43.333333333333336</ele><time>2026-04-23T07:10:57.876Z</time></trkpt><trkpt lat="44.3183796" lon="11.7904683"><ele>43.16666666666667</ele><time>2026-04-23T07:10:59.876Z</time></trkpt><trkpt lat="44.3183739" lon="11.7903479"><ele>43.0</ele><time>2026-04-23T07:11:02.876Z</time></trkpt><trkpt lat="44.3183434" lon="11.7902697"><ele>43.0</ele><time>2026-04-23T07:11:04.876Z</time></trkpt><trkpt lat="44.3182936" lon="11.7901892"><ele>43.0</ele><time>2026-04-23T07:11:06.876Z</time></trkpt><trkpt lat="44.3182178" lon="11.7901212"><ele>43.0</ele><time>2026-04-23T07:11:08.877Z</time></trkpt><trkpt lat="44.3181338" lon="11.7900817"><ele>43.0</ele><time>2026-04-23T07:11:10.877Z</time></trkpt><trkpt lat="44.3180445" lon="11.7900444"><ele>43.0</ele><time>2026-04-23T07:11:12.877Z</time></trkpt><trkpt lat="44.3179553" lon="11.7900023"><ele>43.0</ele><time>2026-04-23T07:11:14.876Z</time></trkpt><trkpt lat="44.3178686" lon="11.7899531"><ele>43.2</ele><time>2026-04-23T07:11:16.876Z</time></trkpt><trkpt lat="44.3177805" lon="11.7899014"><ele>43.4</ele><time>2026-04-23T07:11:18.876Z</time></trkpt><trkpt lat="44.3176871" lon="11.7898479"><ele>43.6</ele><time>2026-04-23T07:11:20.876Z</time></trkpt><trkpt lat="44.317599" lon="11.7897833"><ele>43.800000000000004</ele><time>2026-04-23T07:11:22.877Z</time></trkpt><trkpt lat="44.3175098" lon="11.7897254"><ele>44.0</ele><time>2026-04-23T07:11:24.876Z</time></trkpt><trkpt lat="44.3174133" lon="11.7896674"><ele>44.0</ele><time>2026-04-23T07:11:26.877Z</time></trkpt><trkpt lat="44.3173245" lon="11.7895884"><ele>44.0</ele><time>2026-04-23T07:11:28.877Z</time></trkpt><trkpt lat="44.3172342" lon="11.7895142"><ele>44.0</ele><time>2026-04-23T07:11:30.877Z</time></trkpt><trkpt lat="44.3171443" lon="11.78943"><ele>44.0</ele><time>2026-04-23T07:11:32.876Z</time></trkpt><trkpt lat="44.3170539" lon="11.789359"><ele>44.0</ele><time>2026-04-23T07:11:34.876Z</time></trkpt><trkpt lat="44.3169737" lon="11.7892747"><ele>44.0</ele><time>2026-04-23T07:11:36.876Z</time></trkpt><trkpt lat="44.3168882" lon="11.7891831"><ele>44.0</ele><time>2026-04-23T07:11:38.876Z</time></trkpt><trkpt lat="44.3168104" lon="11.7890921"><ele>44.0</ele><time>2026-04-23T07:11:40.876Z</time></trkpt><trkpt lat="44.3167279" lon="11.7890011"><ele>44.0</ele><time>2026-04-23T07:11:42.876Z</time></trkpt><trkpt lat="44.3166424" lon="11.7889042"><ele>44.0</ele><time>2026-04-23T07:11:44.876Z</time></trkpt><trkpt lat="44.3165604" lon="11.7888124"><ele>44.0</ele><time>2026-04-23T07:11:46.876Z</time></trkpt><trkpt lat="44.3164808" lon="11.7887125"><ele>44.0</ele><time>2026-04-23T07:11:48.876Z</time></trkpt><trkpt lat="44.3163967" lon="11.7886134"><ele>44.0</ele><time>2026-04-23T07:11:50.877Z</time></trkpt><trkpt lat="44.3163081" lon="11.7885202"><ele>44.0</ele><time>2026-04-23T07:11:52.876Z</time></trkpt><trkpt lat="44.3162271" lon="11.7884172"><ele>44.0</ele><time>2026-04-23T07:11:54.876Z</time></trkpt><trkpt lat="44.3161467" lon="11.7883245"><ele>44.0</ele><time>2026-04-23T07:11:56.877Z</time></trkpt><trkpt lat="44.3160567" lon="11.7882358"><ele>44.0</ele><time>2026-04-23T07:11:58.876Z</time></trkpt><trkpt lat="44.3159734" lon="11.7881429"><ele>44.0</ele><time>2026-04-23T07:12:00.876Z</time></trkpt><trkpt lat="44.3158925" lon="11.7880481"><ele>44.0</ele><time>2026-04-23T07:12:02.876Z</time></trkpt><trkpt lat="44.3158074" lon="11.7879521"><ele>44.0</ele><time>2026-04-23T07:12:04.876Z</time></trkpt><trkpt lat="44.3157243" lon="11.7878563"><ele>44.0</ele><time>2026-04-23T07:12:06.876Z</time></trkpt><trkpt lat="44.3156402" lon="11.7877609"><ele>44.0</ele><time>2026-04-23T07:12:08.876Z</time></trkpt><trkpt lat="44.3155535" lon="11.7876765"><ele>44.0</ele><time>2026-04-23T07:12:10.876Z</time></trkpt><trkpt lat="44.3154622" lon="11.7875985"><ele>44.0</ele><time>2026-04-23T07:12:12.877Z</time></trkpt><trkpt lat="44.3153744" lon="11.7875097"><ele>44.0</ele><time>2026-04-23T07:12:14.877Z</time></trkpt><trkpt lat="44.3152823" lon="11.7874242"><ele>44.75</ele><time>2026-04-23T07:12:16.877Z</time></trkpt><trkpt lat="44.3151903" lon="11.7873296"><ele>45.5</ele><time>2026-04-23T07:12:18.877Z</time></trkpt><trkpt lat="44.3150926" lon="11.7872382"><ele>46.25</ele><time>2026-04-23T07:12:20.876Z</time></trkpt><trkpt lat="44.3149899" lon="11.7871497"><ele>47.0</ele><time>2026-04-23T07:12:22.877Z</time></trkpt><trkpt lat="44.3148872" lon="11.7870575"><ele>47.0</ele><time>2026-04-23T07:12:24.877Z</time></trkpt><trkpt lat="44.3147878" lon="11.7869755"><ele>47.0</ele><time>2026-04-23T07:12:26.877Z</time></trkpt><trkpt lat="44.3146947" lon="11.7868913"><ele>47.0</ele><time>2026-04-23T07:12:28.877Z</time></trkpt><trkpt lat="44.314601" lon="11.7868085"><ele>47.0</ele><time>2026-04-23T07:12:30.877Z</time></trkpt><trkpt lat="44.3145048" lon="11.7867265"><ele>46.6</ele><time>2026-04-23T07:12:32.876Z</time></trkpt><trkpt lat="44.3144177" lon="11.786639"><ele>46.2</ele><time>2026-04-23T07:12:34.877Z</time></trkpt><trkpt lat="44.3143192" lon="11.7865549"><ele>45.8</ele><time>2026-04-23T07:12:36.877Z</time></trkpt><trkpt lat="44.3142252" lon="11.7864661"><ele>45.4</ele><time>2026-04-23T07:12:38.877Z</time></trkpt><trkpt lat="44.3141408" lon="11.7863855"><ele>45.0</ele><time>2026-04-23T07:12:40.877Z</time></trkpt><trkpt lat="44.3140423" lon="11.7862996"><ele>45.0</ele><time>2026-04-23T07:12:42.876Z</time></trkpt><trkpt lat="44.3139484" lon="11.7862162"><ele>45.0</ele><time>2026-04-23T07:12:44.876Z</time></trkpt><trkpt lat="44.3138468" lon="11.7861327"><ele>45.0</ele><time>2026-04-23T07:12:46.876Z</time></trkpt><trkpt lat="44.3137942" lon="11.7860841"><ele>45.0</ele><time>2026-04-23T07:12:47.876Z</time></trkpt><trkpt lat="44.313696" lon="11.7860067"><ele>45.0</ele><time>2026-04-23T07:12:49.877Z</time></trkpt><trkpt lat="44.3136058" lon="11.7859158"><ele>45.0</ele><time>2026-04-23T07:12:51.876Z</time></trkpt><trkpt lat="44.3135192" lon="11.785836"><ele>45.0</ele><time>2026-04-23T07:12:53.877Z</time></trkpt><trkpt lat="44.3134303" lon="11.7857539"><ele>45.0</ele><time>2026-04-23T07:12:55.877Z</time></trkpt><trkpt lat="44.313335" lon="11.7856785"><ele>45.0</ele><time>2026-04-23T07:12:57.877Z</time></trkpt><trkpt lat="44.3132398" lon="11.7855865"><ele>45.0</ele><time>2026-04-23T07:12:59.877Z</time></trkpt><trkpt lat="44.313146" lon="11.7855038"><ele>45.2</ele><time>2026-04-23T07:13:01.877Z</time></trkpt><trkpt lat="44.3130488" lon="11.7854138"><ele>45.4</ele><time>2026-04-23T07:13:03.876Z</time></trkpt><trkpt lat="44.3129525" lon="11.7853398"><ele>45.599999999999994</ele><time>2026-04-23T07:13:05.877Z</time></trkpt><trkpt lat="44.3128626" lon="11.7852597"><ele>45.8</ele><time>2026-04-23T07:13:07.876Z</time></trkpt><trkpt lat="44.3127746" lon="11.785163"><ele>46.0</ele><time>2026-04-23T07:13:09.876Z</time></trkpt><trkpt lat="44.3126767" lon="11.7850741"><ele>46.25</ele><time>2026-04-23T07:13:11.877Z</time></trkpt><trkpt lat="44.3125818" lon="11.7849989"><ele>46.5</ele><time>2026-04-23T07:13:13.877Z</time></trkpt><trkpt lat="44.3124919" lon="11.7849096"><ele>46.75</ele><time>2026-04-23T07:13:15.876Z</time></trkpt><trkpt lat="44.3123933" lon="11.7848161"><ele>47.0</ele><time>2026-04-23T07:13:17.876Z</time></trkpt><trkpt lat="44.3122982" lon="11.7847297"><ele>46.8</ele><time>2026-04-23T07:13:19.877Z</time></trkpt><trkpt lat="44.3121989" lon="11.7846456"><ele>46.6</ele><time>2026-04-23T07:13:21.876Z</time></trkpt><trkpt lat="44.3121041" lon="11.7845581"><ele>46.4</ele><time>2026-04-23T07:13:23.876Z</time></trkpt><trkpt lat="44.3120167" lon="11.7844844"><ele>46.199999999999996</ele><time>2026-04-23T07:13:25.877Z</time></trkpt><trkpt lat="44.3119215" lon="11.7843966"><ele>46.0</ele><time>2026-04-23T07:13:27.876Z</time></trkpt><trkpt lat="44.3118232" lon="11.7843123"><ele>46.0</ele><time>2026-04-23T07:13:29.876Z</time></trkpt><trkpt lat="44.3117285" lon="11.7842203"><ele>46.0</ele><time>2026-04-23T07:13:31.876Z</time></trkpt><trkpt lat="44.3116323" lon="11.7841261"><ele>46.0</ele><time>2026-04-23T07:13:33.877Z</time></trkpt><trkpt lat="44.3115439" lon="11.7840411"><ele>46.0</ele><time>2026-04-23T07:13:35.876Z</time></trkpt><trkpt lat="44.3114506" lon="11.7839518"><ele>46.25</ele><time>2026-04-23T07:13:37.877Z</time></trkpt><trkpt lat="44.3113582" lon="11.7838523"><ele>46.5</ele><time>2026-04-23T07:13:39.876Z</time></trkpt><trkpt lat="44.3112689" lon="11.7837476"><ele>46.75</ele><time>2026-04-23T07:13:41.877Z</time></trkpt><trkpt lat="44.3111799" lon="11.7836409"><ele>47.0</ele><time>2026-04-23T07:13:43.877Z</time></trkpt><trkpt lat="44.3110981" lon="11.7835354"><ele>47.25</ele><time>2026-04-23T07:13:45.876Z</time></trkpt><trkpt lat="44.3110121" lon="11.7834259"><ele>47.5</ele><time>2026-04-23T07:13:47.876Z</time></trkpt><trkpt lat="44.3109275" lon="11.78332"><ele>47.75</ele><time>2026-04-23T07:13:49.876Z</time></trkpt><trkpt lat="44.3108465" lon="11.7832103"><ele>48.0</ele><time>2026-04-23T07:13:51.876Z</time></trkpt><trkpt lat="44.3107707" lon="11.7830971"><ele>48.0</ele><time>2026-04-23T07:13:53.876Z</time></trkpt><trkpt lat="44.3106969" lon="11.7829867"><ele>48.0</ele><time>2026-04-23T07:13:55.877Z</time></trkpt><trkpt lat="44.3106225" lon="11.7828809"><ele>48.0</ele><time>2026-04-23T07:13:57.877Z</time></trkpt><trkpt lat="44.3105433" lon="11.7827659"><ele>48.0</ele><time>2026-04-23T07:13:59.876Z</time></trkpt><trkpt lat="44.3104686" lon="11.7826506"><ele>48.0</ele><time>2026-04-23T07:14:01.876Z</time></trkpt><trkpt lat="44.3103914" lon="11.7825438"><ele>48.0</ele><time>2026-04-23T07:14:03.877Z</time></trkpt><trkpt lat="44.3103173" lon="11.7824353"><ele>48.0</ele><time>2026-04-23T07:14:05.877Z</time></trkpt><trkpt lat="44.3102362" lon="11.7823277"><ele>48.0</ele><time>2026-04-23T07:14:07.877Z</time></trkpt><trkpt lat="44.3101558" lon="11.7822186"><ele>48.0</ele><time>2026-04-23T07:14:09.876Z</time></trkpt><trkpt lat="44.3100667" lon="11.782115"><ele>48.0</ele><time>2026-04-23T07:14:11.877Z</time></trkpt><trkpt lat="44.3099755" lon="11.7820182"><ele>48.0</ele><time>2026-04-23T07:14:13.877Z</time></trkpt><trkpt lat="44.3098758" lon="11.7819339"><ele>48.0</ele><time>2026-04-23T07:14:15.877Z</time></trkpt><trkpt lat="44.3097819" lon="11.7818469"><ele>48.0</ele><time>2026-04-23T07:14:17.876Z</time></trkpt><trkpt lat="44.3096801" lon="11.7817619"><ele>48.0</ele><time>2026-04-23T07:14:19.876Z</time></trkpt><trkpt lat="44.3095757" lon="11.7816781"><ele>48.25</ele><time>2026-04-23T07:14:21.877Z</time></trkpt><trkpt lat="44.309474" lon="11.7816011"><ele>48.5</ele><time>2026-04-23T07:14:23.876Z</time></trkpt><trkpt lat="44.3093692" lon="11.7815217"><ele>48.75</ele><time>2026-04-23T07:14:25.876Z</time></trkpt><trkpt lat="44.309275" lon="11.7814521"><ele>49.0</ele><time>2026-04-23T07:14:27.877Z</time></trkpt><trkpt lat="44.3091728" lon="11.7813807"><ele>49.0</ele><time>2026-04-23T07:14:29.877Z</time></trkpt><trkpt lat="44.3090654" lon="11.7813246"><ele>49.0</ele><time>2026-04-23T07:14:31.876Z</time></trkpt><trkpt lat="44.3089573" lon="11.7812607"><ele>49.0</ele><time>2026-04-23T07:14:33.877Z</time></trkpt><trkpt lat="44.3088465" lon="11.7811931"><ele>49.0</ele><time>2026-04-23T07:14:35.876Z</time></trkpt><trkpt lat="44.3087248" lon="11.7811409"><ele>49.2</ele><time>2026-04-23T07:14:37.877Z</time></trkpt><trkpt lat="44.3086638" lon="11.7811142"><ele>49.400000000000006</ele><time>2026-04-23T07:14:38.877Z</time></trkpt><trkpt lat="44.3085503" lon="11.7810512"><ele>49.6</ele><time>2026-04-23T07:14:40.877Z</time></trkpt><trkpt lat="44.3084433" lon="11.781005"><ele>49.8</ele><time>2026-04-23T07:14:42.877Z</time></trkpt><trkpt lat="44.3083295" lon="11.7809413"><ele>50.0</ele><time>2026-04-23T07:14:44.876Z</time></trkpt><trkpt lat="44.3082674" lon="11.7809091"><ele>50.2</ele><time>2026-04-23T07:14:45.876Z</time></trkpt><trkpt lat="44.3082063" lon="11.7808771"><ele>50.4</ele><time>2026-04-23T07:14:46.876Z</time></trkpt><trkpt lat="44.3080928" lon="11.7808235"><ele>50.599999999999994</ele><time>2026-04-23T07:14:48.877Z</time></trkpt><trkpt lat="44.3079815" lon="11.7807589"><ele>50.8</ele><time>2026-04-23T07:14:50.876Z</time></trkpt><trkpt lat="44.3078639" lon="11.7807079"><ele>51.0</ele><time>2026-04-23T07:14:52.876Z</time></trkpt><trkpt lat="44.3077521" lon="11.7806516"><ele>51.0</ele><time>2026-04-23T07:14:54.876Z</time></trkpt><trkpt lat="44.307643" lon="11.7805941"><ele>51.0</ele><time>2026-04-23T07:14:56.876Z</time></trkpt><trkpt lat="44.3075825" lon="11.7805602"><ele>51.0</ele><time>2026-04-23T07:14:57.876Z</time></trkpt><trkpt lat="44.3074732" lon="11.7805038"><ele>51.0</ele><time>2026-04-23T07:14:59.876Z</time></trkpt><trkpt lat="44.3073637" lon="11.7804303"><ele>51.0</ele><time>2026-04-23T07:15:01.877Z</time></trkpt><trkpt lat="44.3073032" lon="11.7803952"><ele>51.0</ele><time>2026-04-23T07:15:02.876Z</time></trkpt><trkpt lat="44.3072453" lon="11.7803601"><ele>51.0</ele><time>2026-04-23T07:15:03.876Z</time></trkpt><trkpt lat="44.3071412" lon="11.7802886"><ele>51.0</ele><time>2026-04-23T07:15:05.876Z</time></trkpt><trkpt lat="44.3070356" lon="11.7802058"><ele>51.0</ele><time>2026-04-23T07:15:07.877Z</time></trkpt><trkpt lat="44.3069331" lon="11.7801161"><ele>51.0</ele><time>2026-04-23T07:15:09.876Z</time></trkpt><trkpt lat="44.3068783" lon="11.7800721"><ele>50.8</ele><time>2026-04-23T07:15:10.877Z</time></trkpt><trkpt lat="44.3067861" lon="11.7799758"><ele>50.599999999999994</ele><time>2026-04-23T07:15:12.876Z</time></trkpt><trkpt lat="44.3067354" lon="11.7799214"><ele>50.4</ele><time>2026-04-23T07:15:13.876Z</time></trkpt><trkpt lat="44.3066287" lon="11.7798193"><ele>50.2</ele><time>2026-04-23T07:15:15.876Z</time></trkpt><trkpt lat="44.3065294" lon="11.7797169"><ele>50.0</ele><time>2026-04-23T07:15:17.876Z</time></trkpt><trkpt lat="44.30643" lon="11.7796217"><ele>49.75</ele><time>2026-04-23T07:15:19.877Z</time></trkpt><trkpt lat="44.3063282" lon="11.7795206"><ele>49.5</ele><time>2026-04-23T07:15:21.877Z</time></trkpt><trkpt lat="44.3062339" lon="11.7794152"><ele>49.25</ele><time>2026-04-23T07:15:23.877Z</time></trkpt><trkpt lat="44.3061357" lon="11.7793138"><ele>49.0</ele><time>2026-04-23T07:15:25.876Z</time></trkpt><trkpt lat="44.3060401" lon="11.779203"><ele>49.0</ele><time>2026-04-23T07:15:27.876Z</time></trkpt><trkpt lat="44.3059881" lon="11.7791493"><ele>49.0</ele><time>2026-04-23T07:15:28.877Z</time></trkpt><trkpt lat="44.3058904" lon="11.7790449"><ele>49.0</ele><time>2026-04-23T07:15:30.877Z</time></trkpt><trkpt lat="44.3057907" lon="11.7789378"><ele>49.0</ele><time>2026-04-23T07:15:32.876Z</time></trkpt><trkpt lat="44.3056912" lon="11.778832"><ele>49.0</ele><time>2026-04-23T07:15:34.876Z</time></trkpt><trkpt lat="44.3056397" lon="11.7787766"><ele>49.0</ele><time>2026-04-23T07:15:35.877Z</time></trkpt><trkpt lat="44.3055414" lon="11.7786666"><ele>49.0</ele><time>2026-04-23T07:15:37.876Z</time></trkpt><trkpt lat="44.3054897" lon="11.778611"><ele>49.0</ele><time>2026-04-23T07:15:38.876Z</time></trkpt><trkpt lat="44.3053888" lon="11.7785107"><ele>49.0</ele><time>2026-04-23T07:15:40.877Z</time></trkpt><trkpt lat="44.3052889" lon="11.7784129"><ele>49.0</ele><time>2026-04-23T07:15:42.876Z</time></trkpt><trkpt lat="44.3051905" lon="11.7783096"><ele>48.99999999999999</ele><time>2026-04-23T07:15:44.877Z</time></trkpt><trkpt lat="44.305092" lon="11.778207"><ele>49.0</ele><time>2026-04-23T07:15:46.876Z</time></trkpt><trkpt lat="44.3050407" lon="11.7781542"><ele>49.0</ele><time>2026-04-23T07:15:47.876Z</time></trkpt><trkpt lat="44.3049877" lon="11.7781034"><ele>49.0</ele><time>2026-04-23T07:15:48.877Z</time></trkpt><trkpt lat="44.3049322" lon="11.7780598"><ele>48.99999999999999</ele><time>2026-04-23T07:15:49.877Z</time></trkpt><trkpt lat="44.3048333" lon="11.7779672"><ele>49.0</ele><time>2026-04-23T07:15:51.876Z</time></trkpt><trkpt lat="44.3047365" lon="11.7778837"><ele>49.2</ele><time>2026-04-23T07:15:53.877Z</time></trkpt><trkpt lat="44.3046323" lon="11.7778102"><ele>49.400000000000006</ele><time>2026-04-23T07:15:55.876Z</time></trkpt><trkpt lat="44.3045399" lon="11.7777502"><ele>49.6</ele><time>2026-04-23T07:15:57.877Z</time></trkpt><trkpt lat="44.3044466" lon="11.7776927"><ele>49.8</ele><time>2026-04-23T07:15:59.876Z</time></trkpt><trkpt lat="44.3043484" lon="11.7775908"><ele>50.0</ele><time>2026-04-23T07:16:01.877Z</time></trkpt><trkpt lat="44.3042527" lon="11.7775094"><ele>50.00000000000001</ele><time>2026-04-23T07:16:03.877Z</time></trkpt><trkpt lat="44.3041507" lon="11.7774335"><ele>50.0</ele><time>2026-04-23T07:16:05.877Z</time></trkpt><trkpt lat="44.3040936" lon="11.7773857"><ele>50.0</ele><time>2026-04-23T07:16:06.877Z</time></trkpt><trkpt lat="44.3039823" lon="11.7773015"><ele>50.0</ele><time>2026-04-23T07:16:08.877Z</time></trkpt><trkpt lat="44.3039264" lon="11.7772566"><ele>50.00000000000001</ele><time>2026-04-23T07:16:09.876Z</time></trkpt><trkpt lat="44.3038688" lon="11.7772127"><ele>50.0</ele><time>2026-04-23T07:16:10.876Z</time></trkpt><trkpt lat="44.3038129" lon="11.7771634"><ele>50.00000000000001</ele><time>2026-04-23T07:16:11.876Z</time></trkpt><trkpt lat="44.3037569" lon="11.7771203"><ele>50.0</ele><time>2026-04-23T07:16:12.877Z</time></trkpt><trkpt lat="44.3036997" lon="11.7770763"><ele>50.0</ele><time>2026-04-23T07:16:13.876Z</time></trkpt><trkpt lat="44.303642" lon="11.7770269"><ele>50.0</ele><time>2026-04-23T07:16:14.876Z</time></trkpt><trkpt lat="44.3035861" lon="11.7769775"><ele>50.00000000000001</ele><time>2026-04-23T07:16:15.876Z</time></trkpt><trkpt lat="44.303479" lon="11.776897"><ele>50.0</ele><time>2026-04-23T07:16:17.876Z</time></trkpt><trkpt lat="44.303373" lon="11.7768173"><ele>50.4</ele><time>2026-04-23T07:16:19.876Z</time></trkpt><trkpt lat="44.3032633" lon="11.7767449"><ele>50.8</ele><time>2026-04-23T07:16:21.876Z</time></trkpt><trkpt lat="44.303156" lon="11.7766608"><ele>51.2</ele><time>2026-04-23T07:16:23.877Z</time></trkpt><trkpt lat="44.3030994" lon="11.7766157"><ele>51.6</ele><time>2026-04-23T07:16:24.876Z</time></trkpt><trkpt lat="44.3029847" lon="11.7765554"><ele>52.0</ele><time>2026-04-23T07:16:26.876Z</time></trkpt><trkpt lat="44.3028737" lon="11.7764654"><ele>52.166666666666664</ele><time>2026-04-23T07:16:28.876Z</time></trkpt><trkpt lat="44.3027746" lon="11.7763747"><ele>52.33333333333333</ele><time>2026-04-23T07:16:30.876Z</time></trkpt><trkpt lat="44.3026692" lon="11.7762954"><ele>52.5</ele><time>2026-04-23T07:16:32.876Z</time></trkpt><trkpt lat="44.3026139" lon="11.7762532"><ele>52.66666666666667</ele><time>2026-04-23T07:16:33.876Z</time></trkpt><trkpt lat="44.302557" lon="11.7762116"><ele>52.833333333333336</ele><time>2026-04-23T07:16:34.877Z</time></trkpt><trkpt lat="44.3025042" lon="11.7761629"><ele>53.0</ele><time>2026-04-23T07:16:35.876Z</time></trkpt><trkpt lat="44.3024482" lon="11.7761194"><ele>53.0</ele><time>2026-04-23T07:16:36.876Z</time></trkpt><trkpt lat="44.302339" lon="11.7760346"><ele>53.0</ele><time>2026-04-23T07:16:38.876Z</time></trkpt><trkpt lat="44.3022838" lon="11.7759885"><ele>53.0</ele><time>2026-04-23T07:16:39.876Z</time></trkpt><trkpt lat="44.3021789" lon="11.7759061"><ele>53.0</ele><time>2026-04-23T07:16:41.877Z</time></trkpt><trkpt lat="44.3020723" lon="11.7758236"><ele>53.0</ele><time>2026-04-23T07:16:43.876Z</time></trkpt><trkpt lat="44.3019715" lon="11.7757326"><ele>52.66666666666667</ele><time>2026-04-23T07:16:45.877Z</time></trkpt><trkpt lat="44.301916" lon="11.7756842"><ele>52.333333333333336</ele><time>2026-04-23T07:16:46.877Z</time></trkpt><trkpt lat="44.3018133" lon="11.7755957"><ele>52.0</ele><time>2026-04-23T07:16:48.877Z</time></trkpt><trkpt lat="44.3017581" lon="11.7755494"><ele>51.66666666666667</ele><time>2026-04-23T07:16:49.876Z</time></trkpt><trkpt lat="44.3017006" lon="11.7755008"><ele>51.333333333333336</ele><time>2026-04-23T07:16:50.876Z</time></trkpt><trkpt lat="44.3016461" lon="11.775456"><ele>51.0</ele><time>2026-04-23T07:16:51.876Z</time></trkpt><trkpt lat="44.3015375" lon="11.7753572"><ele>51.0</ele><time>2026-04-23T07:16:53.877Z</time></trkpt><trkpt lat="44.3014851" lon="11.7753059"><ele>51.0</ele><time>2026-04-23T07:16:54.876Z</time></trkpt><trkpt lat="44.3013823" lon="11.7752157"><ele>51.0</ele><time>2026-04-23T07:16:56.876Z</time></trkpt><trkpt lat="44.3013292" lon="11.7751676"><ele>51.0</ele><time>2026-04-23T07:16:57.877Z</time></trkpt><trkpt lat="44.3012346" lon="11.7750778"><ele>51.0</ele><time>2026-04-23T07:16:59.876Z</time></trkpt><trkpt lat="44.3011408" lon="11.7749851"><ele>51.25</ele><time>2026-04-23T07:17:01.876Z</time></trkpt><trkpt lat="44.3010401" lon="11.7748892"><ele>51.5</ele><time>2026-04-23T07:17:03.877Z</time></trkpt><trkpt lat="44.3009393" lon="11.7747942"><ele>51.75</ele><time>2026-04-23T07:17:05.877Z</time></trkpt><trkpt lat="44.3008386" lon="11.7746966"><ele>52.0</ele><time>2026-04-23T07:17:07.877Z</time></trkpt><trkpt lat="44.3007374" lon="11.7746092"><ele>52.0</ele><time>2026-04-23T07:17:09.877Z</time></trkpt><trkpt lat="44.3006394" lon="11.774518"><ele>52.0</ele><time>2026-04-23T07:17:11.877Z</time></trkpt><trkpt lat="44.3005464" lon="11.7744208"><ele>52.0</ele><time>2026-04-23T07:17:13.876Z</time></trkpt><trkpt lat="44.3004606" lon="11.7743231"><ele>52.0</ele><time>2026-04-23T07:17:15.877Z</time></trkpt><trkpt lat="44.300367" lon="11.7742434"><ele>52.6</ele><time>2026-04-23T07:17:17.876Z</time></trkpt><trkpt lat="44.3002717" lon="11.774149"><ele>53.2</ele><time>2026-04-23T07:17:19.876Z</time></trkpt><trkpt lat="44.3001812" lon="11.7740643"><ele>53.8</ele><time>2026-04-23T07:17:21.877Z</time></trkpt><trkpt lat="44.3000894" lon="11.7739889"><ele>54.4</ele><time>2026-04-23T07:17:23.877Z</time></trkpt><trkpt lat="44.2999926" lon="11.773898"><ele>55.0</ele><time>2026-04-23T07:17:25.876Z</time></trkpt><trkpt lat="44.2999006" lon="11.7738161"><ele>55.0</ele><time>2026-04-23T07:17:27.876Z</time></trkpt><trkpt lat="44.2998065" lon="11.7737241"><ele>55.0</ele><time>2026-04-23T07:17:29.877Z</time></trkpt><trkpt lat="44.299722" lon="11.7736405"><ele>55.0</ele><time>2026-04-23T07:17:31.876Z</time></trkpt><trkpt lat="44.299626" lon="11.7735525"><ele>55.0</ele><time>2026-04-23T07:17:33.877Z</time></trkpt><trkpt lat="44.2995363" lon="11.7734638"><ele>55.0</ele><time>2026-04-23T07:17:35.876Z</time></trkpt><trkpt lat="44.2994435" lon="11.7733691"><ele>55.0</ele><time>2026-04-23T07:17:37.877Z</time></trkpt><trkpt lat="44.2993505" lon="11.7732799"><ele>55.0</ele><time>2026-04-23T07:17:39.876Z</time></trkpt><trkpt lat="44.2992566" lon="11.7731866"><ele>55.0</ele><time>2026-04-23T07:17:41.877Z</time></trkpt><trkpt lat="44.2991699" lon="11.7730941"><ele>55.0</ele><time>2026-04-23T07:17:43.877Z</time></trkpt><trkpt lat="44.2990784" lon="11.7729915"><ele>55.0</ele><time>2026-04-23T07:17:45.877Z</time></trkpt><trkpt lat="44.2989892" lon="11.7729025"><ele>55.0</ele><time>2026-04-23T07:17:47.877Z</time></trkpt><trkpt lat="44.2988997" lon="11.7728042"><ele>55.0</ele><time>2026-04-23T07:17:49.877Z</time></trkpt><trkpt lat="44.2988159" lon="11.7727083"><ele>55.0</ele><time>2026-04-23T07:17:51.876Z</time></trkpt><trkpt lat="44.298724" lon="11.7726101"><ele>55.0</ele><time>2026-04-23T07:17:53.876Z</time></trkpt><trkpt lat="44.2986335" lon="11.7725111"><ele>55.75</ele><time>2026-04-23T07:17:55.877Z</time></trkpt><trkpt lat="44.2985441" lon="11.7724173"><ele>56.5</ele><time>2026-04-23T07:17:57.877Z</time></trkpt><trkpt lat="44.2984533" lon="11.7723092"><ele>57.25</ele><time>2026-04-23T07:17:59.876Z</time></trkpt><trkpt lat="44.2983587" lon="11.7722092"><ele>58.0</ele><time>2026-04-23T07:18:01.877Z</time></trkpt><trkpt lat="44.2982685" lon="11.7721201"><ele>58.0</ele><time>2026-04-23T07:18:03.876Z</time></trkpt><trkpt lat="44.2981828" lon="11.7720199"><ele>58.0</ele><time>2026-04-23T07:18:05.877Z</time></trkpt><trkpt lat="44.298099" lon="11.7719227"><ele>58.0</ele><time>2026-04-23T07:18:07.876Z</time></trkpt><trkpt lat="44.2980146" lon="11.7718235"><ele>58.0</ele><time>2026-04-23T07:18:09.877Z</time></trkpt><trkpt lat="44.2979312" lon="11.7717218"><ele>58.0</ele><time>2026-04-23T07:18:11.876Z</time></trkpt><trkpt lat="44.2978457" lon="11.7716305"><ele>58.25</ele><time>2026-04-23T07:18:13.877Z</time></trkpt><trkpt lat="44.297758" lon="11.7715258"><ele>58.5</ele><time>2026-04-23T07:18:15.877Z</time></trkpt><trkpt lat="44.2976704" lon="11.7714307"><ele>58.75</ele><time>2026-04-23T07:18:17.876Z</time></trkpt><trkpt lat="44.297581" lon="11.7713317"><ele>59.0</ele><time>2026-04-23T07:18:19.876Z</time></trkpt><trkpt lat="44.2974925" lon="11.77123"><ele>59.0</ele><time>2026-04-23T07:18:21.877Z</time></trkpt><trkpt lat="44.2974096" lon="11.7711345"><ele>59.00000000000001</ele><time>2026-04-23T07:18:23.876Z</time></trkpt><trkpt lat="44.297328" lon="11.771041"><ele>59.00000000000001</ele><time>2026-04-23T07:18:25.877Z</time></trkpt><trkpt lat="44.2972395" lon="11.770942"><ele>59.0</ele><time>2026-04-23T07:18:27.876Z</time></trkpt><trkpt lat="44.2971538" lon="11.7708505"><ele>59.0</ele><time>2026-04-23T07:18:29.876Z</time></trkpt><trkpt lat="44.2970748" lon="11.7707599"><ele>59.0</ele><time>2026-04-23T07:18:31.877Z</time></trkpt><trkpt lat="44.2969934" lon="11.770666"><ele>59.00000000000001</ele><time>2026-04-23T07:18:33.876Z</time></trkpt><trkpt lat="44.2968989" lon="11.7705722"><ele>59.00000000000001</ele><time>2026-04-23T07:18:35.877Z</time></trkpt><trkpt lat="44.2968152" lon="11.7704836"><ele>59.0</ele><time>2026-04-23T07:18:37.876Z</time></trkpt><trkpt lat="44.2967288" lon="11.7703918"><ele>59.0</ele><time>2026-04-23T07:18:39.876Z</time></trkpt><trkpt lat="44.2966512" lon="11.7703004"><ele>60.333333333333336</ele><time>2026-04-23T07:18:41.877Z</time></trkpt><trkpt lat="44.2966197" lon="11.7701843"><ele>61.66666666666667</ele><time>2026-04-23T07:18:43.877Z</time></trkpt><trkpt lat="44.2966533" lon="11.7700769"><ele>63.0</ele><time>2026-04-23T07:18:45.877Z</time></trkpt><trkpt lat="44.2967051" lon="11.7699896"><ele>64.33333333333333</ele><time>2026-04-23T07:18:47.876Z</time></trkpt><trkpt lat="44.2967438" lon="11.7698955"><ele>65.66666666666666</ele><time>2026-04-23T07:18:49.877Z</time></trkpt><trkpt lat="44.2967683" lon="11.7698002"><ele>67.0</ele><time>2026-04-23T07:18:51.877Z</time></trkpt><trkpt lat="44.2967881" lon="11.7696975"><ele>67.0</ele><time>2026-04-23T07:18:53.877Z</time></trkpt><trkpt lat="44.2967857" lon="11.7695893"><ele>67.0</ele><time>2026-04-23T07:18:55.877Z</time></trkpt><trkpt lat="44.2967825" lon="11.7694948"><ele>67.0</ele><time>2026-04-23T07:18:57.876Z</time></trkpt><trkpt lat="44.2967697" lon="11.7693667"><ele>67.0</ele><time>2026-04-23T07:19:00.876Z</time></trkpt><trkpt lat="44.2967499" lon="11.7692552"><ele>67.0</ele><time>2026-04-23T07:19:03.876Z</time></trkpt><trkpt lat="44.2967315" lon="11.7691494"><ele>67.0</ele><time>2026-04-23T07:19:06.877Z</time></trkpt><trkpt lat="44.2967179" lon="11.7690316"><ele>67.85714285714286</ele><time>2026-04-23T07:19:09.877Z</time></trkpt><trkpt lat="44.2967188" lon="11.7689056"><ele>68.71428571428571</ele><time>2026-04-23T07:19:12.876Z</time></trkpt><trkpt lat="44.2967304" lon="11.7688034"><ele>69.57142857142857</ele><time>2026-04-23T07:19:15.877Z</time></trkpt><trkpt lat="44.2967495" lon="11.7687077"><ele>70.42857142857143</ele><time>2026-04-23T07:19:18.877Z</time></trkpt><trkpt lat="44.2967719" lon="11.7686208"><ele>71.28571428571429</ele><time>2026-04-23T07:19:21.877Z</time></trkpt><trkpt lat="44.296802" lon="11.7685336"><ele>72.14285714285714</ele><time>2026-04-23T07:19:24.876Z</time></trkpt><trkpt lat="44.2968224" lon="11.76844"><ele>73.0</ele><time>2026-04-23T07:19:27.876Z</time></trkpt><trkpt lat="44.2968439" lon="11.7683432"><ele>74.66666666666666</ele><time>2026-04-23T07:19:30.877Z</time></trkpt><trkpt lat="44.296869" lon="11.7682282"><ele>76.33333333333333</ele><time>2026-04-23T07:19:33.877Z</time></trkpt><trkpt lat="44.2968814" lon="11.7681119"><ele>78.0</ele><time>2026-04-23T07:19:36.877Z</time></trkpt><trkpt lat="44.2968911" lon="11.7680002"><ele>79.66666666666667</ele><time>2026-04-23T07:19:39.876Z</time></trkpt><trkpt lat="44.2969037" lon="11.7678833"><ele>81.33333333333334</ele><time>2026-04-23T07:19:42.876Z</time></trkpt><trkpt lat="44.2969027" lon="11.7677582"><ele>83.0</ele><time>2026-04-23T07:19:45.876Z</time></trkpt><trkpt lat="44.2968857" lon="11.7676488"><ele>83.42857142857143</ele><time>2026-04-23T07:19:48.877Z</time></trkpt><trkpt lat="44.2968558" lon="11.7675472"><ele>83.85714285714286</ele><time>2026-04-23T07:19:51.876Z</time></trkpt><trkpt lat="44.296814" lon="11.7674458"><ele>84.28571428571429</ele><time>2026-04-23T07:19:54.876Z</time></trkpt><trkpt lat="44.2967685" lon="11.7673617"><ele>84.71428571428572</ele><time>2026-04-23T07:19:57.877Z</time></trkpt><trkpt lat="44.2967293" lon="11.767292"><ele>85.14285714285714</ele><time>2026-04-23T07:19:59.876Z</time></trkpt><trkpt lat="44.2966919" lon="11.7672188"><ele>85.57142857142858</ele><time>2026-04-23T07:20:01.877Z</time></trkpt><trkpt lat="44.2966681" lon="11.7671349"><ele>86.0</ele><time>2026-04-23T07:20:03.876Z</time></trkpt><trkpt lat="44.2966734" lon="11.7670044"><ele>86.00000000000001</ele><time>2026-04-23T07:20:06.876Z</time></trkpt><trkpt lat="44.2966868" lon="11.7669134"><ele>86.0</ele><time>2026-04-23T07:20:08.877Z</time></trkpt><trkpt lat="44.2967046" lon="11.7668198"><ele>86.0</ele><time>2026-04-23T07:20:10.877Z</time></trkpt><trkpt lat="44.296719" lon="11.7667307"><ele>86.0</ele><time>2026-04-23T07:20:12.876Z</time></trkpt><trkpt lat="44.2967373" lon="11.7666339"><ele>86.0</ele><time>2026-04-23T07:20:14.877Z</time></trkpt><trkpt lat="44.2967536" lon="11.7665382"><ele>86.00000000000001</ele><time>2026-04-23T07:20:16.876Z</time></trkpt><trkpt lat="44.2967687" lon="11.7664503"><ele>86.0</ele><time>2026-04-23T07:20:18.877Z</time></trkpt><trkpt lat="44.2967815" lon="11.7663601"><ele>86.42857142857143</ele><time>2026-04-23T07:20:20.876Z</time></trkpt><trkpt lat="44.2967997" lon="11.7662387"><ele>86.85714285714286</ele><time>2026-04-23T07:20:23.877Z</time></trkpt><trkpt lat="44.2968266" lon="11.7661219"><ele>87.28571428571428</ele><time>2026-04-23T07:20:26.876Z</time></trkpt><trkpt lat="44.2968448" lon="11.7660318"><ele>87.71428571428572</ele><time>2026-04-23T07:20:28.876Z</time></trkpt><trkpt lat="44.296861" lon="11.7659451"><ele>88.14285714285714</ele><time>2026-04-23T07:20:30.876Z</time></trkpt><trkpt lat="44.2968784" lon="11.7658588"><ele>88.57142857142857</ele><time>2026-04-23T07:20:32.877Z</time></trkpt><trkpt lat="44.2968907" lon="11.7657688"><ele>89.0</ele><time>2026-04-23T07:20:34.876Z</time></trkpt><trkpt lat="44.2969066" lon="11.7656777"><ele>89.42857142857142</ele><time>2026-04-23T07:20:36.876Z</time></trkpt><trkpt lat="44.296925" lon="11.7655917"><ele>89.85714285714286</ele><time>2026-04-23T07:20:38.877Z</time></trkpt><trkpt lat="44.2969438" lon="11.7655023"><ele>90.28571428571428</ele><time>2026-04-23T07:20:40.877Z</time></trkpt><trkpt lat="44.2969591" lon="11.7654075"><ele>90.71428571428571</ele><time>2026-04-23T07:20:42.876Z</time></trkpt><trkpt lat="44.2969751" lon="11.7653176"><ele>91.14285714285714</ele><time>2026-04-23T07:20:44.877Z</time></trkpt><trkpt lat="44.2969915" lon="11.7652151"><ele>91.57142857142857</ele><time>2026-04-23T07:20:46.896Z</time></trkpt><trkpt lat="44.2970103" lon="11.7651196"><ele>92.0</ele><time>2026-04-23T07:20:48.876Z</time></trkpt><trkpt lat="44.2970292" lon="11.7650199"><ele>92.33333333333334</ele><time>2026-04-23T07:20:50.876Z</time></trkpt><trkpt lat="44.2970413" lon="11.7649173"><ele>92.66666666666667</ele><time>2026-04-23T07:20:52.877Z</time></trkpt><trkpt lat="44.2970691" lon="11.764772"><ele>93.0</ele><time>2026-04-23T07:20:55.876Z</time></trkpt><trkpt lat="44.2970905" lon="11.7646846"><ele>93.33333333333333</ele><time>2026-04-23T07:20:57.877Z</time></trkpt><trkpt lat="44.2971184" lon="11.7645704"><ele>93.66666666666666</ele><time>2026-04-23T07:21:00.866Z</time></trkpt><trkpt lat="44.2971378" lon="11.7644538"><ele>94.0</ele><time>2026-04-23T07:21:03.876Z</time></trkpt><trkpt lat="44.2971524" lon="11.7643588"><ele>93.71428571428571</ele><time>2026-04-23T07:21:05.876Z</time></trkpt><trkpt lat="44.2971681" lon="11.7642622"><ele>93.42857142857142</ele><time>2026-04-23T07:21:07.876Z</time></trkpt><trkpt lat="44.2971871" lon="11.7641614"><ele>93.14285714285714</ele><time>2026-04-23T07:21:09.918Z</time></trkpt><trkpt lat="44.2972027" lon="11.7640639"><ele>92.85714285714286</ele><time>2026-04-23T07:21:11.886Z</time></trkpt><trkpt lat="44.2972203" lon="11.763968"><ele>92.57142857142857</ele><time>2026-04-23T07:21:13.902Z</time></trkpt><trkpt lat="44.2972354" lon="11.7638743"><ele>92.28571428571429</ele><time>2026-04-23T07:21:15.908Z</time></trkpt><trkpt lat="44.2972507" lon="11.7637858"><ele>92.0</ele><time>2026-04-23T07:21:17.876Z</time></trkpt><trkpt lat="44.2972674" lon="11.7636978"><ele>92.0</ele><time>2026-04-23T07:21:19.779Z</time></trkpt><trkpt lat="44.297291" lon="11.7635786"><ele>92.0</ele><time>2026-04-23T07:21:22.876Z</time></trkpt><trkpt lat="44.2973072" lon="11.7634917"><ele>92.0</ele><time>2026-04-23T07:21:24.883Z</time></trkpt><trkpt lat="44.2973192" lon="11.7634041"><ele>92.0</ele><time>2026-04-23T07:21:26.901Z</time></trkpt><trkpt lat="44.297347" lon="11.763278"><ele>92.0</ele><time>2026-04-23T07:21:29.876Z</time></trkpt><trkpt lat="44.2973689" lon="11.7631882"><ele>92.0</ele><time>2026-04-23T07:21:31.881Z</time></trkpt><trkpt lat="44.2973896" lon="11.7630582"><ele>93.16666666666667</ele><time>2026-04-23T07:21:34.906Z</time></trkpt><trkpt lat="44.2973939" lon="11.7629411"><ele>94.33333333333334</ele><time>2026-04-23T07:21:37.881Z</time></trkpt><trkpt lat="44.2973802" lon="11.7628219"><ele>95.5</ele><time>2026-04-23T07:21:40.925Z</time></trkpt><trkpt lat="44.2973287" lon="11.7627231"><ele>96.66666666666667</ele><time>2026-04-23T07:21:43.876Z</time></trkpt><trkpt lat="44.2972844" lon="11.76266"><ele>97.83333333333333</ele><time>2026-04-23T07:21:45.875Z</time></trkpt><trkpt lat="44.2972311" lon="11.7626057"><ele>99.0</ele><time>2026-04-23T07:21:47.875Z</time></trkpt><trkpt lat="44.2971743" lon="11.7625546"><ele>101.16666666666667</ele><time>2026-04-23T07:21:49.876Z</time></trkpt><trkpt lat="44.2971191" lon="11.762511"><ele>103.33333333333334</ele><time>2026-04-23T07:21:51.885Z</time></trkpt><trkpt lat="44.2970459" lon="11.7624365"><ele>105.5</ele><time>2026-04-23T07:21:54.91Z</time></trkpt><trkpt lat="44.2969697" lon="11.762365"><ele>107.66666666666667</ele><time>2026-04-23T07:21:57.945Z</time></trkpt><trkpt lat="44.2968949" lon="11.7623019"><ele>109.83333333333334</ele><time>2026-04-23T07:22:00.905Z</time></trkpt><trkpt lat="44.2968307" lon="11.7622263"><ele>112.0</ele><time>2026-04-23T07:22:03.723Z</time></trkpt><trkpt lat="44.2967798" lon="11.7621659"><ele>112.0</ele><time>2026-04-23T07:22:05.876Z</time></trkpt><trkpt lat="44.2967045" lon="11.7620878"><ele>111.99999999999999</ele><time>2026-04-23T07:22:08.875Z</time></trkpt><trkpt lat="44.2966238" lon="11.7620133"><ele>111.99999999999999</ele><time>2026-04-23T07:22:11.951Z</time></trkpt><trkpt lat="44.2965471" lon="11.761955"><ele>112.0</ele><time>2026-04-23T07:22:14.902Z</time></trkpt><trkpt lat="44.296479" lon="11.7618683"><ele>112.0</ele><time>2026-04-23T07:22:17.927Z</time></trkpt><trkpt lat="44.2964125" lon="11.7617939"><ele>114.00000000000001</ele><time>2026-04-23T07:22:20.875Z</time></trkpt><trkpt lat="44.2963464" lon="11.7617188"><ele>116.0</ele><time>2026-04-23T07:22:23.844Z</time></trkpt><trkpt lat="44.2962771" lon="11.7616351"><ele>118.0</ele><time>2026-04-23T07:22:26.891Z</time></trkpt><trkpt lat="44.296221" lon="11.7615911"><ele>120.0</ele><time>2026-04-23T07:22:28.876Z</time></trkpt><trkpt lat="44.2961629" lon="11.7615376"><ele>122.00000000000001</ele><time>2026-04-23T07:22:30.957Z</time></trkpt><trkpt lat="44.2961072" lon="11.7614868"><ele>124.0</ele><time>2026-04-23T07:22:32.875Z</time></trkpt><trkpt lat="44.2960308" lon="11.7614118"><ele>124.00000000000001</ele><time>2026-04-23T07:22:35.886Z</time></trkpt><trkpt lat="44.2959827" lon="11.7613502"><ele>124.0</ele><time>2026-04-23T07:22:37.901Z</time></trkpt><trkpt lat="44.2959401" lon="11.7612838"><ele>124.0</ele><time>2026-04-23T07:22:39.929Z</time></trkpt><trkpt lat="44.2958881" lon="11.7612004"><ele>124.0</ele><time>2026-04-23T07:22:42.843Z</time></trkpt><trkpt lat="44.2958182" lon="11.7611202"><ele>124.00000000000001</ele><time>2026-04-23T07:22:45.856Z</time></trkpt><trkpt lat="44.2957433" lon="11.7610402"><ele>124.0</ele><time>2026-04-23T07:22:48.879Z</time></trkpt><trkpt lat="44.2956976" lon="11.7609742"><ele>125.50000000000001</ele><time>2026-04-23T07:22:50.895Z</time></trkpt><trkpt lat="44.2956457" lon="11.7608827"><ele>127.0</ele><time>2026-04-23T07:22:53.875Z</time></trkpt><trkpt lat="44.2955929" lon="11.7608032"><ele>128.5</ele><time>2026-04-23T07:22:56.897Z</time></trkpt><trkpt lat="44.2955733" lon="11.7607009"><ele>130.0</ele><time>2026-04-23T07:22:59.875Z</time></trkpt><trkpt lat="44.2955509" lon="11.760581"><ele>131.5</ele><time>2026-04-23T07:23:02.943Z</time></trkpt><trkpt lat="44.2955288" lon="11.7604697"><ele>133.0</ele><time>2026-04-23T07:23:05.904Z</time></trkpt><trkpt lat="44.2955014" lon="11.7603753"><ele>133.0</ele><time>2026-04-23T07:23:08.778Z</time></trkpt><trkpt lat="44.2954596" lon="11.7602683"><ele>133.0</ele><time>2026-04-23T07:23:11.875Z</time></trkpt><trkpt lat="44.2954263" lon="11.7601735"><ele>133.0</ele><time>2026-04-23T07:23:14.876Z</time></trkpt><trkpt lat="44.295386" lon="11.7600738"><ele>133.0</ele><time>2026-04-23T07:23:17.9Z</time></trkpt><trkpt lat="44.2953458" lon="11.7599539"><ele>133.0</ele><time>2026-04-23T07:23:20.875Z</time></trkpt><trkpt lat="44.2953118" lon="11.7598557"><ele>133.0</ele><time>2026-04-23T07:23:22.976Z</time></trkpt><trkpt lat="44.295285" lon="11.7597467"><ele>134.42857142857142</ele><time>2026-04-23T07:23:25.875Z</time></trkpt><trkpt lat="44.2952668" lon="11.7596586"><ele>135.85714285714286</ele><time>2026-04-23T07:23:27.889Z</time></trkpt><trkpt lat="44.295241" lon="11.7595774"><ele>137.28571428571428</ele><time>2026-04-23T07:23:29.843Z</time></trkpt><trkpt lat="44.2952045" lon="11.7594975"><ele>138.71428571428572</ele><time>2026-04-23T07:23:31.96Z</time></trkpt><trkpt lat="44.2951535" lon="11.7594423"><ele>140.14285714285714</ele><time>2026-04-23T07:23:33.875Z</time></trkpt><trkpt lat="44.2951062" lon="11.7593828"><ele>141.57142857142856</ele><time>2026-04-23T07:23:35.876Z</time></trkpt><trkpt lat="44.2950346" lon="11.7593073"><ele>143.0</ele><time>2026-04-23T07:23:38.896Z</time></trkpt><trkpt lat="44.2949645" lon="11.7592456"><ele>143.83333333333331</ele><time>2026-04-23T07:23:41.947Z</time></trkpt><trkpt lat="44.2948948" lon="11.7591867"><ele>144.66666666666666</ele><time>2026-04-23T07:23:44.95Z</time></trkpt><trkpt lat="44.2948313" lon="11.7591172"><ele>145.5</ele><time>2026-04-23T07:23:47.876Z</time></trkpt><trkpt lat="44.2947683" lon="11.7590525"><ele>146.33333333333334</ele><time>2026-04-23T07:23:50.881Z</time></trkpt><trkpt lat="44.294707" lon="11.7589884"><ele>147.16666666666669</ele><time>2026-04-23T07:23:53.836Z</time></trkpt><trkpt lat="44.2946462" lon="11.7589229"><ele>148.0</ele><time>2026-04-23T07:23:56.798Z</time></trkpt><trkpt lat="44.2945845" lon="11.7588534"><ele>148.66666666666669</ele><time>2026-04-23T07:23:59.875Z</time></trkpt><trkpt lat="44.2945188" lon="11.7587916"><ele>149.33333333333334</ele><time>2026-04-23T07:24:02.876Z</time></trkpt><trkpt lat="44.2944515" lon="11.7587298"><ele>150.0</ele><time>2026-04-23T07:24:05.894Z</time></trkpt><trkpt lat="44.2943768" lon="11.75866"><ele>150.66666666666666</ele><time>2026-04-23T07:24:08.913Z</time></trkpt><trkpt lat="44.2943178" lon="11.7586071"><ele>151.33333333333331</ele><time>2026-04-23T07:24:10.936Z</time></trkpt><trkpt lat="44.2942609" lon="11.7585593"><ele>152.0</ele><time>2026-04-23T07:24:13.876Z</time></trkpt><trkpt lat="44.2941837" lon="11.7585109"><ele>153.42857142857142</ele><time>2026-04-23T07:24:16.876Z</time></trkpt><trkpt lat="44.2940965" lon="11.7584538"><ele>154.85714285714286</ele><time>2026-04-23T07:24:19.901Z</time></trkpt><trkpt lat="44.2940379" lon="11.7584056"><ele>156.28571428571428</ele><time>2026-04-23T07:24:21.876Z</time></trkpt><trkpt lat="44.2939775" lon="11.7583655"><ele>157.71428571428572</ele><time>2026-04-23T07:24:23.816Z</time></trkpt><trkpt lat="44.2939168" lon="11.7583277"><ele>159.14285714285714</ele><time>2026-04-23T07:24:25.875Z</time></trkpt><trkpt lat="44.2938608" lon="11.758285"><ele>160.57142857142858</ele><time>2026-04-23T07:24:27.876Z</time></trkpt><trkpt lat="44.2938032" lon="11.7582439"><ele>162.0</ele><time>2026-04-23T07:24:29.875Z</time></trkpt><trkpt lat="44.2937153" lon="11.7581839"><ele>162.0</ele><time>2026-04-23T07:24:32.898Z</time></trkpt><trkpt lat="44.2936596" lon="11.7581398"><ele>162.0</ele><time>2026-04-23T07:24:34.876Z</time></trkpt><trkpt lat="44.2936009" lon="11.7580994"><ele>162.0</ele><time>2026-04-23T07:24:36.837Z</time></trkpt><trkpt lat="44.2935391" lon="11.7580574"><ele>162.0</ele><time>2026-04-23T07:24:38.875Z</time></trkpt><trkpt lat="44.293483" lon="11.7580082"><ele>162.0</ele><time>2026-04-23T07:24:40.876Z</time></trkpt><trkpt lat="44.293412" lon="11.7579226"><ele>162.0</ele><time>2026-04-23T07:24:43.876Z</time></trkpt><trkpt lat="44.2933511" lon="11.7578341"><ele>162.0</ele><time>2026-04-23T07:24:47.012Z</time></trkpt><trkpt lat="44.2933032" lon="11.7577619"><ele>162.16666666666666</ele><time>2026-04-23T07:24:49.47Z</time></trkpt><trkpt lat="44.2932479" lon="11.7576822"><ele>162.33333333333334</ele><time>2026-04-23T07:24:51.875Z</time></trkpt><trkpt lat="44.2932028" lon="11.7576151"><ele>162.5</ele><time>2026-04-23T07:24:53.876Z</time></trkpt><trkpt lat="44.2931516" lon="11.7575437"><ele>162.66666666666669</ele><time>2026-04-23T07:24:55.875Z</time></trkpt><trkpt lat="44.2930926" lon="11.7574732"><ele>162.83333333333334</ele><time>2026-04-23T07:24:57.857Z</time></trkpt><trkpt lat="44.2930264" lon="11.7573977"><ele>163.0</ele><time>2026-04-23T07:24:59.876Z</time></trkpt><trkpt lat="44.2929824" lon="11.7573208"><ele>163.16666666666669</ele><time>2026-04-23T07:25:01.876Z</time></trkpt><trkpt lat="44.2929486" lon="11.7572374"><ele>163.33333333333334</ele><time>2026-04-23T07:25:03.875Z</time></trkpt><trkpt lat="44.2929241" lon="11.757138"><ele>163.5</ele><time>2026-04-23T07:25:05.876Z</time></trkpt><trkpt lat="44.2929" lon="11.7570279"><ele>163.66666666666666</ele><time>2026-04-23T07:25:07.875Z</time></trkpt><trkpt lat="44.2928832" lon="11.7569239"><ele>163.83333333333331</ele><time>2026-04-23T07:25:09.876Z</time></trkpt><trkpt lat="44.2928736" lon="11.7568176"><ele>164.0</ele><time>2026-04-23T07:25:11.876Z</time></trkpt><trkpt lat="44.2928625" lon="11.7566987"><ele>164.0</ele><time>2026-04-23T07:25:13.875Z</time></trkpt><trkpt lat="44.2928448" lon="11.7566012"><ele>164.0</ele><time>2026-04-23T07:25:15.875Z</time></trkpt><trkpt lat="44.2928122" lon="11.7565065"><ele>164.0</ele><time>2026-04-23T07:25:17.875Z</time></trkpt><trkpt lat="44.2927899" lon="11.7564143"><ele>164.0</ele><time>2026-04-23T07:25:19.876Z</time></trkpt><trkpt lat="44.2927536" lon="11.7562823"><ele>164.0</ele><time>2026-04-23T07:25:22.876Z</time></trkpt><trkpt lat="44.2927032" lon="11.7561836"><ele>164.0</ele><time>2026-04-23T07:25:24.875Z</time></trkpt><trkpt lat="44.2926319" lon="11.7560901"><ele>164.0</ele><time>2026-04-23T07:25:26.875Z</time></trkpt><trkpt lat="44.2925482" lon="11.755982"><ele>164.0</ele><time>2026-04-23T07:25:28.875Z</time></trkpt><trkpt lat="44.2924515" lon="11.7558875"><ele>164.0</ele><time>2026-04-23T07:25:30.875Z</time></trkpt><trkpt lat="44.2923478" lon="11.7558081"><ele>164.0</ele><time>2026-04-23T07:25:32.876Z</time></trkpt><trkpt lat="44.2922471" lon="11.7557438"><ele>164.28571428571428</ele><time>2026-04-23T07:25:34.876Z</time></trkpt><trkpt lat="44.2921656" lon="11.7556754"><ele>164.57142857142856</ele><time>2026-04-23T07:25:36.876Z</time></trkpt><trkpt lat="44.2921068" lon="11.7556386"><ele>164.85714285714283</ele><time>2026-04-23T07:25:38.875Z</time></trkpt><trkpt lat="44.2920495" lon="11.755601"><ele>165.14285714285714</ele><time>2026-04-23T07:25:40.876Z</time></trkpt><trkpt lat="44.2919842" lon="11.7555578"><ele>165.42857142857144</ele><time>2026-04-23T07:25:42.875Z</time></trkpt><trkpt lat="44.2919245" lon="11.7555247"><ele>165.7142857142857</ele><time>2026-04-23T07:25:44.875Z</time></trkpt><trkpt lat="44.2918632" lon="11.7554946"><ele>166.0</ele><time>2026-04-23T07:25:46.876Z</time></trkpt><trkpt lat="44.2918036" lon="11.7554568"><ele>166.0</ele><time>2026-04-23T07:25:48.875Z</time></trkpt><trkpt lat="44.2917173" lon="11.7554133"><ele>166.0</ele><time>2026-04-23T07:25:51.875Z</time></trkpt><trkpt lat="44.2916585" lon="11.7553808"><ele>166.0</ele><time>2026-04-23T07:25:53.875Z</time></trkpt><trkpt lat="44.2915793" lon="11.755338"><ele>166.0</ele><time>2026-04-23T07:25:56.875Z</time></trkpt><trkpt lat="44.2914989" lon="11.7552944"><ele>166.0</ele><time>2026-04-23T07:25:59.876Z</time></trkpt><trkpt lat="44.291415" lon="11.7552423"><ele>166.0</ele><time>2026-04-23T07:26:02.875Z</time></trkpt><trkpt lat="44.2913499" lon="11.7552028"><ele>165.57142857142856</ele><time>2026-04-23T07:26:04.822Z</time></trkpt><trkpt lat="44.2912637" lon="11.7551608"><ele>165.14285714285717</ele><time>2026-04-23T07:26:07.888Z</time></trkpt><trkpt lat="44.2911913" lon="11.7551"><ele>164.71428571428572</ele><time>2026-04-23T07:26:10.824Z</time></trkpt><trkpt lat="44.2911538" lon="11.7550248"><ele>164.28571428571428</ele><time>2026-04-23T07:26:12.875Z</time></trkpt><trkpt lat="44.2911356" lon="11.7549378"><ele>163.85714285714283</ele><time>2026-04-23T07:26:14.875Z</time></trkpt><trkpt lat="44.2911359" lon="11.7548456"><ele>163.42857142857144</ele><time>2026-04-23T07:26:16.875Z</time></trkpt><trkpt lat="44.2911404" lon="11.7547559"><ele>163.0</ele><time>2026-04-23T07:26:18.877Z</time></trkpt><trkpt lat="44.2911481" lon="11.7546683"><ele>163.0</ele><time>2026-04-23T07:26:20.895Z</time></trkpt><trkpt lat="44.2911461" lon="11.754578"><ele>163.0</ele><time>2026-04-23T07:26:22.94Z</time></trkpt><trkpt lat="44.2911392" lon="11.7544483"><ele>163.0</ele><time>2026-04-23T07:26:25.781Z</time></trkpt><trkpt lat="44.2911181" lon="11.7543529"><ele>163.0</ele><time>2026-04-23T07:26:27.875Z</time></trkpt><trkpt lat="44.2911024" lon="11.7542668"><ele>163.0</ele><time>2026-04-23T07:26:29.876Z</time></trkpt><trkpt lat="44.2911005" lon="11.7541689"><ele>163.0</ele><time>2026-04-23T07:26:31.876Z</time></trkpt><trkpt lat="44.2910845" lon="11.7540794"><ele>163.0</ele><time>2026-04-23T07:26:33.876Z</time></trkpt><trkpt lat="44.2910708" lon="11.7539325"><ele>163.66666666666669</ele><time>2026-04-23T07:26:36.876Z</time></trkpt><trkpt lat="44.2910403" lon="11.7538266"><ele>164.33333333333334</ele><time>2026-04-23T07:26:38.875Z</time></trkpt><trkpt lat="44.2910272" lon="11.7537276"><ele>165.0</ele><time>2026-04-23T07:26:40.876Z</time></trkpt><trkpt lat="44.2910186" lon="11.7536202"><ele>165.66666666666666</ele><time>2026-04-23T07:26:42.876Z</time></trkpt><trkpt lat="44.291001" lon="11.753491"><ele>166.33333333333331</ele><time>2026-04-23T07:26:44.876Z</time></trkpt><trkpt lat="44.2909802" lon="11.7533692"><ele>167.0</ele><time>2026-04-23T07:26:46.876Z</time></trkpt><trkpt lat="44.290961" lon="11.7532366"><ele>167.33333333333331</ele><time>2026-04-23T07:26:48.875Z</time></trkpt><trkpt lat="44.2909377" lon="11.7531331"><ele>167.66666666666666</ele><time>2026-04-23T07:26:50.876Z</time></trkpt><trkpt lat="44.2909218" lon="11.7530345"><ele>168.0</ele><time>2026-04-23T07:26:52.876Z</time></trkpt><trkpt lat="44.2909006" lon="11.752938"><ele>168.33333333333334</ele><time>2026-04-23T07:26:54.875Z</time></trkpt><trkpt lat="44.2908819" lon="11.7528179"><ele>168.66666666666669</ele><time>2026-04-23T07:26:56.876Z</time></trkpt><trkpt lat="44.2908568" lon="11.752724"><ele>169.0</ele><time>2026-04-23T07:26:58.875Z</time></trkpt><trkpt lat="44.2908355" lon="11.7526254"><ele>169.28571428571428</ele><time>2026-04-23T07:27:00.875Z</time></trkpt><trkpt lat="44.2908154" lon="11.7525291"><ele>169.57142857142856</ele><time>2026-04-23T07:27:02.875Z</time></trkpt><trkpt lat="44.2907963" lon="11.7524362"><ele>169.85714285714283</ele><time>2026-04-23T07:27:04.875Z</time></trkpt><trkpt lat="44.2907768" lon="11.7523353"><ele>170.14285714285714</ele><time>2026-04-23T07:27:06.875Z</time></trkpt><trkpt lat="44.2907441" lon="11.7522306"><ele>170.42857142857142</ele><time>2026-04-23T07:27:08.876Z</time></trkpt><trkpt lat="44.2907208" lon="11.7521476"><ele>170.7142857142857</ele><time>2026-04-23T07:27:10.876Z</time></trkpt><trkpt lat="44.290691" lon="11.7520632"><ele>171.0</ele><time>2026-04-23T07:27:12.876Z</time></trkpt><trkpt lat="44.2906626" lon="11.7519798"><ele>170.99999999999997</ele><time>2026-04-23T07:27:14.876Z</time></trkpt><trkpt lat="44.2906312" lon="11.7518916"><ele>171.0</ele><time>2026-04-23T07:27:16.876Z</time></trkpt><trkpt lat="44.2906002" lon="11.7518018"><ele>171.0</ele><time>2026-04-23T07:27:18.876Z</time></trkpt><trkpt lat="44.2905756" lon="11.7517096"><ele>171.0</ele><time>2026-04-23T07:27:20.876Z</time></trkpt><trkpt lat="44.2905463" lon="11.751616"><ele>171.0</ele><time>2026-04-23T07:27:22.875Z</time></trkpt><trkpt lat="44.2905172" lon="11.7515265"><ele>170.99999999999997</ele><time>2026-04-23T07:27:24.875Z</time></trkpt><trkpt lat="44.2904954" lon="11.7514416"><ele>171.0</ele><time>2026-04-23T07:27:26.876Z</time></trkpt><trkpt lat="44.2904786" lon="11.7513558"><ele>170.16666666666666</ele><time>2026-04-23T07:27:28.875Z</time></trkpt><trkpt lat="44.2904462" lon="11.7512629"><ele>169.33333333333334</ele><time>2026-04-23T07:27:30.876Z</time></trkpt><trkpt lat="44.2904258" lon="11.7511743"><ele>168.5</ele><time>2026-04-23T07:27:32.875Z</time></trkpt><trkpt lat="44.290399" lon="11.7510478"><ele>167.66666666666669</ele><time>2026-04-23T07:27:35.876Z</time></trkpt><trkpt lat="44.290383" lon="11.7509596"><ele>166.83333333333334</ele><time>2026-04-23T07:27:37.876Z</time></trkpt><trkpt lat="44.2903785" lon="11.7508691"><ele>166.0</ele><time>2026-04-23T07:27:39.822Z</time></trkpt><trkpt lat="44.2903663" lon="11.7507437"><ele>167.66666666666669</ele><time>2026-04-23T07:27:42.875Z</time></trkpt><trkpt lat="44.2903642" lon="11.7506554"><ele>169.33333333333334</ele><time>2026-04-23T07:27:44.876Z</time></trkpt><trkpt lat="44.2903657" lon="11.750531"><ele>171.0</ele><time>2026-04-23T07:27:47.876Z</time></trkpt><trkpt lat="44.2903748" lon="11.7504425"><ele>172.66666666666666</ele><time>2026-04-23T07:27:49.876Z</time></trkpt><trkpt lat="44.290389" lon="11.750328"><ele>174.33333333333331</ele><time>2026-04-23T07:27:52.876Z</time></trkpt><trkpt lat="44.2903842" lon="11.7502016"><ele>176.0</ele><time>2026-04-23T07:27:55.876Z</time></trkpt><trkpt lat="44.2903864" lon="11.7500792"><ele>177.33333333333331</ele><time>2026-04-23T07:27:58.875Z</time></trkpt><trkpt lat="44.2903859" lon="11.7499903"><ele>178.66666666666666</ele><time>2026-04-23T07:28:00.876Z</time></trkpt><trkpt lat="44.2903876" lon="11.7498922"><ele>180.0</ele><time>2026-04-23T07:28:02.876Z</time></trkpt><trkpt lat="44.2903872" lon="11.7497624"><ele>181.33333333333334</ele><time>2026-04-23T07:28:05.875Z</time></trkpt><trkpt lat="44.2903866" lon="11.749625"><ele>182.66666666666669</ele><time>2026-04-23T07:28:08.876Z</time></trkpt><trkpt lat="44.2903829" lon="11.7495338"><ele>184.0</ele><time>2026-04-23T07:28:10.876Z</time></trkpt><trkpt lat="44.2903713" lon="11.7494123"><ele>185.2857142857143</ele><time>2026-04-23T07:28:13.875Z</time></trkpt><trkpt lat="44.2903662" lon="11.749323"><ele>186.57142857142856</ele><time>2026-04-23T07:28:15.875Z</time></trkpt><trkpt lat="44.290355" lon="11.7492311"><ele>187.85714285714286</ele><time>2026-04-23T07:28:17.876Z</time></trkpt><trkpt lat="44.2903423" lon="11.7491071"><ele>189.14285714285717</ele><time>2026-04-23T07:28:20.876Z</time></trkpt><trkpt lat="44.2903382" lon="11.7490103"><ele>190.42857142857144</ele><time>2026-04-23T07:28:22.875Z</time></trkpt><trkpt lat="44.2903393" lon="11.7489219"><ele>191.71428571428572</ele><time>2026-04-23T07:28:24.875Z</time></trkpt><trkpt lat="44.2903378" lon="11.748792"><ele>193.0</ele><time>2026-04-23T07:28:27.876Z</time></trkpt><trkpt lat="44.290338" lon="11.7486625"><ele>193.99999999999997</ele><time>2026-04-23T07:28:30.876Z</time></trkpt><trkpt lat="44.2903448" lon="11.7485397"><ele>195.0</ele><time>2026-04-23T07:28:33.86Z</time></trkpt><trkpt lat="44.2903463" lon="11.748428"><ele>196.0</ele><time>2026-04-23T07:28:36.875Z</time></trkpt><trkpt lat="44.2903455" lon="11.7483236"><ele>197.0</ele><time>2026-04-23T07:28:39.875Z</time></trkpt><trkpt lat="44.2903495" lon="11.7482141"><ele>197.99999999999997</ele><time>2026-04-23T07:28:42.876Z</time></trkpt><trkpt lat="44.2903527" lon="11.7481114"><ele>199.0</ele><time>2026-04-23T07:28:45.887Z</time></trkpt><trkpt lat="44.2903515" lon="11.7480142"><ele>198.99999999999997</ele><time>2026-04-23T07:28:48.911Z</time></trkpt><trkpt lat="44.290331" lon="11.7479211"><ele>199.0</ele><time>2026-04-23T07:28:51.875Z</time></trkpt><trkpt lat="44.2902973" lon="11.7478228"><ele>199.0</ele><time>2026-04-23T07:28:54.876Z</time></trkpt><trkpt lat="44.2902465" lon="11.7477283"><ele>199.0</ele><time>2026-04-23T07:28:57.876Z</time></trkpt><trkpt lat="44.2901849" lon="11.7476387"><ele>198.99999999999997</ele><time>2026-04-23T07:29:00.9Z</time></trkpt><trkpt lat="44.2901287" lon="11.7475452"><ele>199.0</ele><time>2026-04-23T07:29:03.875Z</time></trkpt><trkpt lat="44.290066" lon="11.7474568"><ele>200.0</ele><time>2026-04-23T07:29:06.876Z</time></trkpt><trkpt lat="44.2900238" lon="11.7473667"><ele>201.0</ele><time>2026-04-23T07:29:08.876Z</time></trkpt><trkpt lat="44.2899731" lon="11.7472514"><ele>202.0</ele><time>2026-04-23T07:29:10.875Z</time></trkpt><trkpt lat="44.2899175" lon="11.7471419"><ele>203.0</ele><time>2026-04-23T07:29:12.876Z</time></trkpt><trkpt lat="44.2898761" lon="11.7470268"><ele>204.0</ele><time>2026-04-23T07:29:14.876Z</time></trkpt><trkpt lat="44.2898215" lon="11.7468692"><ele>205.2</ele><time>2026-04-23T07:29:16.876Z</time></trkpt><trkpt lat="44.2897778" lon="11.7467256"><ele>206.39999999999998</ele><time>2026-04-23T07:29:18.875Z</time></trkpt><trkpt lat="44.2897437" lon="11.7465746"><ele>207.6</ele><time>2026-04-23T07:29:20.875Z</time></trkpt><trkpt lat="44.2897054" lon="11.7464529"><ele>208.8</ele><time>2026-04-23T07:29:22.876Z</time></trkpt><trkpt lat="44.2896858" lon="11.7463424"><ele>210.0</ele><time>2026-04-23T07:29:24.875Z</time></trkpt><trkpt lat="44.2896513" lon="11.7462404"><ele>209.0</ele><time>2026-04-23T07:29:26.876Z</time></trkpt><trkpt lat="44.2896208" lon="11.7461109"><ele>208.0</ele><time>2026-04-23T07:29:29.875Z</time></trkpt><trkpt lat="44.2895931" lon="11.7460144"><ele>207.0</ele><time>2026-04-23T07:29:31.875Z</time></trkpt><trkpt lat="44.2895604" lon="11.7459192"><ele>206.0</ele><time>2026-04-23T07:29:33.875Z</time></trkpt><trkpt lat="44.2895358" lon="11.7458306"><ele>205.0</ele><time>2026-04-23T07:29:35.875Z</time></trkpt><trkpt lat="44.2895037" lon="11.7457445"><ele>204.0</ele><time>2026-04-23T07:29:37.875Z</time></trkpt><trkpt lat="44.2894679" lon="11.7456532"><ele>204.0</ele><time>2026-04-23T07:29:39.875Z</time></trkpt><trkpt lat="44.2894162" lon="11.7455794"><ele>204.0</ele><time>2026-04-23T07:29:41.875Z</time></trkpt><trkpt lat="44.2893605" lon="11.7455195"><ele>204.0</ele><time>2026-04-23T07:29:43.875Z</time></trkpt><trkpt lat="44.2892973" lon="11.7454648"><ele>204.0</ele><time>2026-04-23T07:29:45.875Z</time></trkpt><trkpt lat="44.289225" lon="11.745436"><ele>204.0</ele><time>2026-04-23T07:29:47.875Z</time></trkpt><trkpt lat="44.2891538" lon="11.7454088"><ele>204.0</ele><time>2026-04-23T07:29:49.875Z</time></trkpt><trkpt lat="44.289066" lon="11.7453919"><ele>204.0</ele><time>2026-04-23T07:29:51.876Z</time></trkpt><trkpt lat="44.2889688" lon="11.7453909"><ele>204.0</ele><time>2026-04-23T07:29:53.876Z</time></trkpt><trkpt lat="44.2888703" lon="11.7454178"><ele>204.0</ele><time>2026-04-23T07:29:55.876Z</time></trkpt><trkpt lat="44.2887676" lon="11.7454332"><ele>204.0</ele><time>2026-04-23T07:29:57.876Z</time></trkpt><trkpt lat="44.288647" lon="11.7454665"><ele>204.0</ele><time>2026-04-23T07:29:59.875Z</time></trkpt><trkpt lat="44.2885816" lon="11.7454911"><ele>203.16666666666666</ele><time>2026-04-23T07:30:00.876Z</time></trkpt><trkpt lat="44.2885177" lon="11.7455156"><ele>202.33333333333331</ele><time>2026-04-23T07:30:01.875Z</time></trkpt><trkpt lat="44.2884419" lon="11.7455356"><ele>201.5</ele><time>2026-04-23T07:30:02.876Z</time></trkpt><trkpt lat="44.2883623" lon="11.7455612"><ele>200.66666666666666</ele><time>2026-04-23T07:30:03.875Z</time></trkpt><trkpt lat="44.2882812" lon="11.7455877"><ele>199.83333333333331</ele><time>2026-04-23T07:30:04.875Z</time></trkpt><trkpt lat="44.2882023" lon="11.7456224"><ele>199.0</ele><time>2026-04-23T07:30:05.876Z</time></trkpt><trkpt lat="44.2881277" lon="11.7456491"><ele>199.6</ele><time>2026-04-23T07:30:06.875Z</time></trkpt><trkpt lat="44.2880562" lon="11.7456686"><ele>200.2</ele><time>2026-04-23T07:30:07.876Z</time></trkpt><trkpt lat="44.2879834" lon="11.7456892"><ele>200.79999999999998</ele><time>2026-04-23T07:30:08.875Z</time></trkpt><trkpt lat="44.2878643" lon="11.745708"><ele>201.39999999999998</ele><time>2026-04-23T07:30:10.875Z</time></trkpt><trkpt lat="44.2877573" lon="11.7457135"><ele>202.0</ele><time>2026-04-23T07:30:12.875Z</time></trkpt><trkpt lat="44.2876467" lon="11.7457094"><ele>201.99999999999997</ele><time>2026-04-23T07:30:14.875Z</time></trkpt><trkpt lat="44.2875463" lon="11.7457003"><ele>202.0</ele><time>2026-04-23T07:30:16.876Z</time></trkpt><trkpt lat="44.2874525" lon="11.7456928"><ele>202.0</ele><time>2026-04-23T07:30:18.875Z</time></trkpt><trkpt lat="44.2873659" lon="11.745681"><ele>202.0</ele><time>2026-04-23T07:30:20.875Z</time></trkpt><trkpt lat="44.2872968" lon="11.7456732"><ele>201.99999999999997</ele><time>2026-04-23T07:30:22.876Z</time></trkpt><trkpt lat="44.287233" lon="11.7456677"><ele>202.0</ele><time>2026-04-23T07:30:24.875Z</time></trkpt><trkpt lat="44.2871605" lon="11.74566"><ele>203.71428571428572</ele><time>2026-04-23T07:30:26.876Z</time></trkpt><trkpt lat="44.2870952" lon="11.7456588"><ele>205.42857142857142</ele><time>2026-04-23T07:30:28.876Z</time></trkpt><trkpt lat="44.2870222" lon="11.7456716"><ele>207.14285714285717</ele><time>2026-04-23T07:30:30.876Z</time></trkpt><trkpt lat="44.2869456" lon="11.7456817"><ele>208.85714285714286</ele><time>2026-04-23T07:30:32.876Z</time></trkpt><trkpt lat="44.2868744" lon="11.745699"><ele>210.57142857142858</ele><time>2026-04-23T07:30:34.876Z</time></trkpt><trkpt lat="44.286798" lon="11.745732"><ele>212.2857142857143</ele><time>2026-04-23T07:30:36.875Z</time></trkpt><trkpt lat="44.286733" lon="11.7457626"><ele>214.0</ele><time>2026-04-23T07:30:38.875Z</time></trkpt><trkpt lat="44.2866491" lon="11.7458079"><ele>214.00000000000003</ele><time>2026-04-23T07:30:41.876Z</time></trkpt><trkpt lat="44.2865827" lon="11.745855"><ele>214.0</ele><time>2026-04-23T07:30:43.874Z</time></trkpt><trkpt lat="44.2865245" lon="11.7459169"><ele>214.0</ele><time>2026-04-23T07:30:45.875Z</time></trkpt><trkpt lat="44.2864638" lon="11.7459715"><ele>214.0</ele><time>2026-04-23T07:30:47.874Z</time></trkpt><trkpt lat="44.2864098" lon="11.7460373"><ele>214.0</ele><time>2026-04-23T07:30:49.874Z</time></trkpt><trkpt lat="44.2863531" lon="11.7461009"><ele>214.00000000000003</ele><time>2026-04-23T07:30:51.875Z</time></trkpt><trkpt lat="44.2862931" lon="11.746182"><ele>214.0</ele><time>2026-04-23T07:30:53.874Z</time></trkpt><trkpt lat="44.2862409" lon="11.7462508"><ele>214.99999999999997</ele><time>2026-04-23T07:30:55.874Z</time></trkpt><trkpt lat="44.2861905" lon="11.7463196"><ele>216.0</ele><time>2026-04-23T07:30:57.875Z</time></trkpt><trkpt lat="44.2861358" lon="11.746388"><ele>217.0</ele><time>2026-04-23T07:30:59.875Z</time></trkpt><trkpt lat="44.2860856" lon="11.74645"><ele>218.0</ele><time>2026-04-23T07:31:01.875Z</time></trkpt><trkpt lat="44.2860354" lon="11.7465243"><ele>218.99999999999997</ele><time>2026-04-23T07:31:03.874Z</time></trkpt><trkpt lat="44.2859823" lon="11.7465953"><ele>220.0</ele><time>2026-04-23T07:31:05.874Z</time></trkpt><trkpt lat="44.2859167" lon="11.7466949"><ele>219.99999999999997</ele><time>2026-04-23T07:31:08.874Z</time></trkpt><trkpt lat="44.2858605" lon="11.7467548"><ele>220.0</ele><time>2026-04-23T07:31:10.875Z</time></trkpt><trkpt lat="44.285798" lon="11.7468065"><ele>220.0</ele><time>2026-04-23T07:31:12.874Z</time></trkpt><trkpt lat="44.2857381" lon="11.7468421"><ele>220.0</ele><time>2026-04-23T07:31:14.858Z</time></trkpt><trkpt lat="44.2856708" lon="11.7468753"><ele>219.99999999999997</ele><time>2026-04-23T07:31:16.9Z</time></trkpt><trkpt lat="44.2855927" lon="11.7469052"><ele>220.0</ele><time>2026-04-23T07:31:18.876Z</time></trkpt><trkpt lat="44.2854696" lon="11.7469558"><ele>218.0</ele><time>2026-04-23T07:31:20.875Z</time></trkpt><trkpt lat="44.2853618" lon="11.7469864"><ele>216.0</ele><time>2026-04-23T07:31:22.875Z</time></trkpt><trkpt lat="44.2852535" lon="11.74701"><ele>214.0</ele><time>2026-04-23T07:31:24.874Z</time></trkpt><trkpt lat="44.2851572" lon="11.7470241"><ele>212.0</ele><time>2026-04-23T07:31:26.874Z</time></trkpt><trkpt lat="44.2850785" lon="11.7470006"><ele>210.0</ele><time>2026-04-23T07:31:28.874Z</time></trkpt><trkpt lat="44.2850338" lon="11.746938"><ele>211.42857142857142</ele><time>2026-04-23T07:31:30.874Z</time></trkpt><trkpt lat="44.2850244" lon="11.7468363"><ele>212.85714285714286</ele><time>2026-04-23T07:31:32.874Z</time></trkpt><trkpt lat="44.285025" lon="11.7467391"><ele>214.28571428571428</ele><time>2026-04-23T07:31:34.875Z</time></trkpt><trkpt lat="44.2850291" lon="11.7466428"><ele>215.71428571428572</ele><time>2026-04-23T07:31:36.874Z</time></trkpt><trkpt lat="44.2850387" lon="11.7465483"><ele>217.14285714285714</ele><time>2026-04-23T07:31:38.874Z</time></trkpt><trkpt lat="44.2850506" lon="11.7464508"><ele>218.57142857142856</ele><time>2026-04-23T07:31:40.874Z</time></trkpt><trkpt lat="44.2850541" lon="11.7463554"><ele>220.0</ele><time>2026-04-23T07:31:42.874Z</time></trkpt><trkpt lat="44.285055" lon="11.7462623"><ele>219.99999999999997</ele><time>2026-04-23T07:31:44.874Z</time></trkpt><trkpt lat="44.2850593" lon="11.746161"><ele>220.0</ele><time>2026-04-23T07:31:46.874Z</time></trkpt><trkpt lat="44.2850687" lon="11.7460592"><ele>220.0</ele><time>2026-04-23T07:31:48.875Z</time></trkpt><trkpt lat="44.2850722" lon="11.7459647"><ele>220.0</ele><time>2026-04-23T07:31:50.874Z</time></trkpt><trkpt lat="44.2850726" lon="11.7458732"><ele>220.0</ele><time>2026-04-23T07:31:52.875Z</time></trkpt><trkpt lat="44.2850825" lon="11.7457824"><ele>219.99999999999997</ele><time>2026-04-23T07:31:54.874Z</time></trkpt><trkpt lat="44.2850929" lon="11.7456893"><ele>220.0</ele><time>2026-04-23T07:31:56.875Z</time></trkpt><trkpt lat="44.28511" lon="11.7455974"><ele>220.57142857142856</ele><time>2026-04-23T07:31:58.874Z</time></trkpt><trkpt lat="44.285128" lon="11.7455023"><ele>221.14285714285714</ele><time>2026-04-23T07:32:00.874Z</time></trkpt><trkpt lat="44.2851456" lon="11.7454118"><ele>221.71428571428572</ele><time>2026-04-23T07:32:02.875Z</time></trkpt><trkpt lat="44.2851649" lon="11.7453182"><ele>222.28571428571428</ele><time>2026-04-23T07:32:04.874Z</time></trkpt><trkpt lat="44.2851903" lon="11.7452037"><ele>222.85714285714286</ele><time>2026-04-23T07:32:07.874Z</time></trkpt><trkpt lat="44.2852102" lon="11.745085"><ele>223.42857142857142</ele><time>2026-04-23T07:32:10.874Z</time></trkpt><trkpt lat="44.2852302" lon="11.744993"><ele>224.0</ele><time>2026-04-23T07:32:13.874Z</time></trkpt><trkpt lat="44.2852138" lon="11.7447899"><ele>224.33333333333334</ele><time>2026-04-23T07:32:20.874Z</time></trkpt><trkpt lat="44.2851901" lon="11.7446874"><ele>224.66666666666669</ele><time>2026-04-23T07:32:23.875Z</time></trkpt><trkpt lat="44.2851603" lon="11.7445988"><ele>225.0</ele><time>2026-04-23T07:32:25.874Z</time></trkpt><trkpt lat="44.2851215" lon="11.7444815"><ele>225.33333333333331</ele><time>2026-04-23T07:32:27.874Z</time></trkpt><trkpt lat="44.2850895" lon="11.7443695"><ele>225.66666666666666</ele><time>2026-04-23T07:32:29.875Z</time></trkpt><trkpt lat="44.2850571" lon="11.744227"><ele>226.0</ele><time>2026-04-23T07:32:31.875Z</time></trkpt><trkpt lat="44.2850335" lon="11.7440937"><ele>225.33333333333331</ele><time>2026-04-23T07:32:33.875Z</time></trkpt><trkpt lat="44.2850149" lon="11.7439551"><ele>224.66666666666666</ele><time>2026-04-23T07:32:35.875Z</time></trkpt><trkpt lat="44.2849972" lon="11.7438305"><ele>224.0</ele><time>2026-04-23T07:32:37.875Z</time></trkpt><trkpt lat="44.2849891" lon="11.7437278"><ele>223.33333333333331</ele><time>2026-04-23T07:32:39.874Z</time></trkpt><trkpt lat="44.2849861" lon="11.7436274"><ele>222.66666666666666</ele><time>2026-04-23T07:32:42.875Z</time></trkpt><trkpt lat="44.2849856" lon="11.743501"><ele>222.0</ele><time>2026-04-23T07:32:45.875Z</time></trkpt><trkpt lat="44.2849755" lon="11.7433622"><ele>221.39999999999998</ele><time>2026-04-23T07:32:47.874Z</time></trkpt><trkpt lat="44.2849694" lon="11.743222"><ele>220.79999999999998</ele><time>2026-04-23T07:32:49.874Z</time></trkpt><trkpt lat="44.2849706" lon="11.7430608"><ele>220.2</ele><time>2026-04-23T07:32:51.874Z</time></trkpt><trkpt lat="44.2849758" lon="11.7429016"><ele>219.6</ele><time>2026-04-23T07:32:53.874Z</time></trkpt><trkpt lat="44.2849849" lon="11.7427508"><ele>219.0</ele><time>2026-04-23T07:32:55.875Z</time></trkpt><trkpt lat="44.2849927" lon="11.742589"><ele>218.75</ele><time>2026-04-23T07:32:57.874Z</time></trkpt><trkpt lat="44.2849871" lon="11.7424233"><ele>218.5</ele><time>2026-04-23T07:32:59.874Z</time></trkpt><trkpt lat="44.2849751" lon="11.7422657"><ele>218.25</ele><time>2026-04-23T07:33:01.874Z</time></trkpt><trkpt lat="44.2849487" lon="11.742118"><ele>218.0</ele><time>2026-04-23T07:33:03.875Z</time></trkpt><trkpt lat="44.2849187" lon="11.7419456"><ele>217.0</ele><time>2026-04-23T07:33:05.875Z</time></trkpt><trkpt lat="44.284888" lon="11.7417913"><ele>216.0</ele><time>2026-04-23T07:33:07.875Z</time></trkpt><trkpt lat="44.2848515" lon="11.7416452"><ele>215.0</ele><time>2026-04-23T07:33:09.874Z</time></trkpt><trkpt lat="44.2848043" lon="11.7414927"><ele>214.0</ele><time>2026-04-23T07:33:11.874Z</time></trkpt><trkpt lat="44.2847859" lon="11.7414063"><ele>213.0</ele><time>2026-04-23T07:33:12.874Z</time></trkpt><trkpt lat="44.2847641" lon="11.7412443"><ele>213.0</ele><time>2026-04-23T07:33:14.875Z</time></trkpt><trkpt lat="44.2847512" lon="11.7411009"><ele>213.0</ele><time>2026-04-23T07:33:16.874Z</time></trkpt><trkpt lat="44.2847597" lon="11.740964"><ele>213.0</ele><time>2026-04-23T07:33:18.875Z</time></trkpt><trkpt lat="44.2847667" lon="11.7408189"><ele>213.0</ele><time>2026-04-23T07:33:20.875Z</time></trkpt><trkpt lat="44.2847701" lon="11.7406731"><ele>213.0</ele><time>2026-04-23T07:33:22.875Z</time></trkpt><trkpt lat="44.2847682" lon="11.7405513"><ele>209.2</ele><time>2026-04-23T07:33:24.874Z</time></trkpt><trkpt lat="44.2847462" lon="11.7404193"><ele>205.4</ele><time>2026-04-23T07:33:26.875Z</time></trkpt><trkpt lat="44.2847219" lon="11.74028"><ele>201.6</ele><time>2026-04-23T07:33:28.875Z</time></trkpt><trkpt lat="44.284707" lon="11.7401432"><ele>197.79999999999998</ele><time>2026-04-23T07:33:30.874Z</time></trkpt><trkpt lat="44.2847118" lon="11.7399972"><ele>194.0</ele><time>2026-04-23T07:33:32.874Z</time></trkpt><trkpt lat="44.2847332" lon="11.7399134"><ele>193.0</ele><time>2026-04-23T07:33:33.874Z</time></trkpt><trkpt lat="44.2847638" lon="11.7398343"><ele>192.0</ele><time>2026-04-23T07:33:34.874Z</time></trkpt><trkpt lat="44.2848059" lon="11.7396845"><ele>191.0</ele><time>2026-04-23T07:33:36.875Z</time></trkpt><trkpt lat="44.2848085" lon="11.7395418"><ele>190.0</ele><time>2026-04-23T07:33:38.874Z</time></trkpt><trkpt lat="44.2847874" lon="11.7394236"><ele>189.0</ele><time>2026-04-23T07:33:40.875Z</time></trkpt><trkpt lat="44.2847387" lon="11.7393001"><ele>184.6</ele><time>2026-04-23T07:33:42.874Z</time></trkpt><trkpt lat="44.2846787" lon="11.7391644"><ele>180.2</ele><time>2026-04-23T07:33:44.874Z</time></trkpt><trkpt lat="44.2846121" lon="11.7390181"><ele>175.79999999999998</ele><time>2026-04-23T07:33:46.874Z</time></trkpt><trkpt lat="44.2845786" lon="11.7389352"><ele>171.39999999999998</ele><time>2026-04-23T07:33:47.874Z</time></trkpt><trkpt lat="44.2845369" lon="11.7388458"><ele>167.0</ele><time>2026-04-23T07:33:48.874Z</time></trkpt><trkpt lat="44.2844916" lon="11.7387577"><ele>167.0</ele><time>2026-04-23T07:33:49.875Z</time></trkpt><trkpt lat="44.2844373" lon="11.7386752"><ele>167.0</ele><time>2026-04-23T07:33:50.874Z</time></trkpt><trkpt lat="44.2843831" lon="11.7386027"><ele>167.0</ele><time>2026-04-23T07:33:51.875Z</time></trkpt><trkpt lat="44.2843234" lon="11.7385395"><ele>167.0</ele><time>2026-04-23T07:33:52.875Z</time></trkpt><trkpt lat="44.2842672" lon="11.738463"><ele>167.0</ele><time>2026-04-23T07:33:53.874Z</time></trkpt><trkpt lat="44.2842107" lon="11.7384035"><ele>167.0</ele><time>2026-04-23T07:33:54.874Z</time></trkpt><trkpt lat="44.2841543" lon="11.7383428"><ele>167.57142857142856</ele><time>2026-04-23T07:33:55.875Z</time></trkpt><trkpt lat="44.284099" lon="11.7382828"><ele>168.14285714285714</ele><time>2026-04-23T07:33:56.874Z</time></trkpt><trkpt lat="44.2840418" lon="11.7382276"><ele>168.71428571428572</ele><time>2026-04-23T07:33:57.874Z</time></trkpt><trkpt lat="44.2839846" lon="11.7381746"><ele>169.28571428571428</ele><time>2026-04-23T07:33:58.875Z</time></trkpt><trkpt lat="44.2839308" lon="11.7381123"><ele>169.85714285714286</ele><time>2026-04-23T07:33:59.874Z</time></trkpt><trkpt lat="44.2838796" lon="11.7380445"><ele>170.42857142857142</ele><time>2026-04-23T07:34:00.874Z</time></trkpt><trkpt lat="44.2838261" lon="11.737975"><ele>171.0</ele><time>2026-04-23T07:34:01.875Z</time></trkpt><trkpt lat="44.2837714" lon="11.7379126"><ele>170.57142857142856</ele><time>2026-04-23T07:34:02.874Z</time></trkpt><trkpt lat="44.28372" lon="11.7378456"><ele>170.14285714285714</ele><time>2026-04-23T07:34:03.874Z</time></trkpt><trkpt lat="44.2836694" lon="11.737773"><ele>169.71428571428572</ele><time>2026-04-23T07:34:04.875Z</time></trkpt><trkpt lat="44.2836247" lon="11.7377077"><ele>169.28571428571428</ele><time>2026-04-23T07:34:05.875Z</time></trkpt><trkpt lat="44.2835796" lon="11.7376331"><ele>168.85714285714286</ele><time>2026-04-23T07:34:06.874Z</time></trkpt><trkpt lat="44.2835341" lon="11.7375614"><ele>168.42857142857142</ele><time>2026-04-23T07:34:07.874Z</time></trkpt><trkpt lat="44.2834961" lon="11.7374891"><ele>168.0</ele><time>2026-04-23T07:34:08.874Z</time></trkpt><trkpt lat="44.283458" lon="11.7374135"><ele>168.0</ele><time>2026-04-23T07:34:09.874Z</time></trkpt><trkpt lat="44.283427" lon="11.7373349"><ele>168.0</ele><time>2026-04-23T07:34:10.874Z</time></trkpt><trkpt lat="44.2834005" lon="11.7372524"><ele>168.0</ele><time>2026-04-23T07:34:11.874Z</time></trkpt><trkpt lat="44.2833485" lon="11.7371034"><ele>168.0</ele><time>2026-04-23T07:34:13.875Z</time></trkpt><trkpt lat="44.2833039" lon="11.7369533"><ele>168.0</ele><time>2026-04-23T07:34:15.875Z</time></trkpt><trkpt lat="44.2832656" lon="11.7368086"><ele>168.8</ele><time>2026-04-23T07:34:17.874Z</time></trkpt><trkpt lat="44.2832363" lon="11.7366638"><ele>169.60000000000002</ele><time>2026-04-23T07:34:19.875Z</time></trkpt><trkpt lat="44.2832173" lon="11.7365232"><ele>170.39999999999998</ele><time>2026-04-23T07:34:21.874Z</time></trkpt><trkpt lat="44.2832125" lon="11.7363836"><ele>171.2</ele><time>2026-04-23T07:34:23.875Z</time></trkpt><trkpt lat="44.2832145" lon="11.7362424"><ele>172.0</ele><time>2026-04-23T07:34:25.874Z</time></trkpt><trkpt lat="44.2832329" lon="11.7360986"><ele>172.0</ele><time>2026-04-23T07:34:27.874Z</time></trkpt><trkpt lat="44.2832501" lon="11.7359472"><ele>172.0</ele><time>2026-04-23T07:34:29.875Z</time></trkpt><trkpt lat="44.2832681" lon="11.7357926"><ele>172.0</ele><time>2026-04-23T07:34:31.874Z</time></trkpt><trkpt lat="44.283285" lon="11.7356499"><ele>172.0</ele><time>2026-04-23T07:34:33.874Z</time></trkpt><trkpt lat="44.2832882" lon="11.735513"><ele>172.0</ele><time>2026-04-23T07:34:35.874Z</time></trkpt><trkpt lat="44.2832633" lon="11.7353889"><ele>172.0</ele><time>2026-04-23T07:34:37.875Z</time></trkpt><trkpt lat="44.2832196" lon="11.7352731"><ele>172.0</ele><time>2026-04-23T07:34:39.875Z</time></trkpt><trkpt lat="44.283169" lon="11.7351533"><ele>172.0</ele><time>2026-04-23T07:34:41.874Z</time></trkpt><trkpt lat="44.2830792" lon="11.7350126"><ele>172.0</ele><time>2026-04-23T07:34:43.874Z</time></trkpt><trkpt lat="44.2830256" lon="11.7349291"><ele>172.0</ele><time>2026-04-23T07:34:44.874Z</time></trkpt><trkpt lat="44.282971" lon="11.7348339"><ele>169.4</ele><time>2026-04-23T07:34:45.874Z</time></trkpt><trkpt lat="44.2829258" lon="11.7347294"><ele>166.79999999999998</ele><time>2026-04-23T07:34:46.875Z</time></trkpt><trkpt lat="44.2828791" lon="11.7346159"><ele>164.2</ele><time>2026-04-23T07:34:47.874Z</time></trkpt><trkpt lat="44.2828276" lon="11.7344988"><ele>161.6</ele><time>2026-04-23T07:34:48.874Z</time></trkpt><trkpt lat="44.2827867" lon="11.7343873"><ele>159.0</ele><time>2026-04-23T07:34:49.874Z</time></trkpt><trkpt lat="44.2827427" lon="11.7342712"><ele>158.5</ele><time>2026-04-23T07:34:50.874Z</time></trkpt><trkpt lat="44.2827058" lon="11.7341602"><ele>158.0</ele><time>2026-04-23T07:34:51.875Z</time></trkpt><trkpt lat="44.2826674" lon="11.7340387"><ele>157.5</ele><time>2026-04-23T07:34:52.875Z</time></trkpt><trkpt lat="44.2826338" lon="11.7339256"><ele>157.0</ele><time>2026-04-23T07:34:53.875Z</time></trkpt><trkpt lat="44.2826041" lon="11.7338119"><ele>156.5</ele><time>2026-04-23T07:34:54.874Z</time></trkpt><trkpt lat="44.2825777" lon="11.7336963"><ele>156.0</ele><time>2026-04-23T07:34:55.874Z</time></trkpt><trkpt lat="44.2825519" lon="11.7335804"><ele>155.66666666666666</ele><time>2026-04-23T07:34:56.875Z</time></trkpt><trkpt lat="44.2825283" lon="11.7334624"><ele>155.33333333333334</ele><time>2026-04-23T07:34:57.875Z</time></trkpt><trkpt lat="44.2825028" lon="11.7333439"><ele>155.0</ele><time>2026-04-23T07:34:58.874Z</time></trkpt><trkpt lat="44.2824748" lon="11.7332287"><ele>154.66666666666669</ele><time>2026-04-23T07:34:59.874Z</time></trkpt><trkpt lat="44.282448" lon="11.7331184"><ele>154.33333333333334</ele><time>2026-04-23T07:35:00.875Z</time></trkpt><trkpt lat="44.28242" lon="11.7330069"><ele>154.0</ele><time>2026-04-23T07:35:01.874Z</time></trkpt><trkpt lat="44.2823991" lon="11.7329024"><ele>154.0</ele><time>2026-04-23T07:35:02.875Z</time></trkpt><trkpt lat="44.2823828" lon="11.7327996"><ele>154.0</ele><time>2026-04-23T07:35:03.874Z</time></trkpt><trkpt lat="44.2823694" lon="11.7327044"><ele>154.0</ele><time>2026-04-23T07:35:04.874Z</time></trkpt><trkpt lat="44.2823551" lon="11.7326148"><ele>154.0</ele><time>2026-04-23T07:35:05.874Z</time></trkpt><trkpt lat="44.2823495" lon="11.7325204"><ele>154.0</ele><time>2026-04-23T07:35:06.875Z</time></trkpt><trkpt lat="44.2823479" lon="11.7324324"><ele>154.0</ele><time>2026-04-23T07:35:07.875Z</time></trkpt><trkpt lat="44.2823479" lon="11.7322676"><ele>153.6</ele><time>2026-04-23T07:35:09.875Z</time></trkpt><trkpt lat="44.2823328" lon="11.7320926"><ele>153.2</ele><time>2026-04-23T07:35:11.874Z</time></trkpt><trkpt lat="44.2823289" lon="11.7319904"><ele>152.79999999999998</ele><time>2026-04-23T07:35:12.874Z</time></trkpt><trkpt lat="44.2823195" lon="11.7318837"><ele>152.4</ele><time>2026-04-23T07:35:13.875Z</time></trkpt><trkpt lat="44.2823041" lon="11.7317668"><ele>152.0</ele><time>2026-04-23T07:35:14.874Z</time></trkpt><trkpt lat="44.2822818" lon="11.7316473"><ele>151.16666666666666</ele><time>2026-04-23T07:35:15.874Z</time></trkpt><trkpt lat="44.2822658" lon="11.731532"><ele>150.33333333333331</ele><time>2026-04-23T07:35:16.875Z</time></trkpt><trkpt lat="44.2822433" lon="11.7314152"><ele>149.5</ele><time>2026-04-23T07:35:17.874Z</time></trkpt><trkpt lat="44.2822153" lon="11.731293"><ele>148.66666666666666</ele><time>2026-04-23T07:35:18.874Z</time></trkpt><trkpt lat="44.2821811" lon="11.731177"><ele>147.83333333333334</ele><time>2026-04-23T07:35:19.875Z</time></trkpt><trkpt lat="44.2821515" lon="11.7310623"><ele>147.0</ele><time>2026-04-23T07:35:20.874Z</time></trkpt><trkpt lat="44.2821216" lon="11.7309503"><ele>146.5</ele><time>2026-04-23T07:35:21.874Z</time></trkpt><trkpt lat="44.282084" lon="11.730842"><ele>146.0</ele><time>2026-04-23T07:35:22.874Z</time></trkpt><trkpt lat="44.2820543" lon="11.7307418"><ele>145.5</ele><time>2026-04-23T07:35:23.875Z</time></trkpt><trkpt lat="44.2820293" lon="11.7306466"><ele>145.0</ele><time>2026-04-23T07:35:24.874Z</time></trkpt><trkpt lat="44.2820036" lon="11.7305463"><ele>144.5</ele><time>2026-04-23T07:35:25.875Z</time></trkpt><trkpt lat="44.2819739" lon="11.7304424"><ele>144.0</ele><time>2026-04-23T07:35:26.874Z</time></trkpt><trkpt lat="44.2819403" lon="11.7303514"><ele>144.0</ele><time>2026-04-23T07:35:27.874Z</time></trkpt><trkpt lat="44.28191" lon="11.7302593"><ele>144.0</ele><time>2026-04-23T07:35:28.875Z</time></trkpt><trkpt lat="44.2818827" lon="11.7301687"><ele>144.0</ele><time>2026-04-23T07:35:29.874Z</time></trkpt><trkpt lat="44.2818504" lon="11.7300769"><ele>144.0</ele><time>2026-04-23T07:35:30.874Z</time></trkpt><trkpt lat="44.2818173" lon="11.7299857"><ele>144.0</ele><time>2026-04-23T07:35:31.874Z</time></trkpt><trkpt lat="44.2817927" lon="11.7299039"><ele>144.0</ele><time>2026-04-23T07:35:32.875Z</time></trkpt><trkpt lat="44.2817699" lon="11.729763"><ele>144.0</ele><time>2026-04-23T07:35:34.875Z</time></trkpt><trkpt lat="44.2817592" lon="11.7296459"><ele>144.0</ele><time>2026-04-23T07:35:36.875Z</time></trkpt><trkpt lat="44.2817457" lon="11.7295373"><ele>144.0</ele><time>2026-04-23T07:35:39.874Z</time></trkpt><trkpt lat="44.2817289" lon="11.729428"><ele>144.0</ele><time>2026-04-23T07:35:42.875Z</time></trkpt><trkpt lat="44.2817113" lon="11.7293147"><ele>144.0</ele><time>2026-04-23T07:35:45.875Z</time></trkpt><trkpt lat="44.2817047" lon="11.729209"><ele>144.0</ele><time>2026-04-23T07:35:47.906Z</time></trkpt><trkpt lat="44.2816893" lon="11.7290834"><ele>145.0</ele><time>2026-04-23T07:35:50.875Z</time></trkpt><trkpt lat="44.2816722" lon="11.728995"><ele>146.0</ele><time>2026-04-23T07:35:52.875Z</time></trkpt><trkpt lat="44.2816475" lon="11.7288717"><ele>147.0</ele><time>2026-04-23T07:35:55.875Z</time></trkpt><trkpt lat="44.2816312" lon="11.7287504"><ele>148.0</ele><time>2026-04-23T07:35:58.859Z</time></trkpt><trkpt lat="44.281621" lon="11.7286368"><ele>149.0</ele><time>2026-04-23T07:36:01.875Z</time></trkpt><trkpt lat="44.2816031" lon="11.7285124"><ele>150.0</ele><time>2026-04-23T07:36:04.874Z</time></trkpt><trkpt lat="44.2815909" lon="11.7283938"><ele>150.57142857142856</ele><time>2026-04-23T07:36:07.874Z</time></trkpt><trkpt lat="44.2815772" lon="11.7282742"><ele>151.14285714285714</ele><time>2026-04-23T07:36:10.88Z</time></trkpt><trkpt lat="44.2815579" lon="11.7281713"><ele>151.71428571428572</ele><time>2026-04-23T07:36:13.874Z</time></trkpt><trkpt lat="44.2815425" lon="11.7280838"><ele>152.28571428571428</ele><time>2026-04-23T07:36:15.874Z</time></trkpt><trkpt lat="44.2815326" lon="11.7279919"><ele>152.85714285714286</ele><time>2026-04-23T07:36:17.874Z</time></trkpt><trkpt lat="44.2815223" lon="11.727896"><ele>153.42857142857142</ele><time>2026-04-23T07:36:19.875Z</time></trkpt><trkpt lat="44.2815155" lon="11.7277974"><ele>154.0</ele><time>2026-04-23T07:36:21.874Z</time></trkpt><trkpt lat="44.2815173" lon="11.7276905"><ele>154.28571428571428</ele><time>2026-04-23T07:36:23.875Z</time></trkpt><trkpt lat="44.281512" lon="11.7276004"><ele>154.57142857142856</ele><time>2026-04-23T07:36:25.874Z</time></trkpt><trkpt lat="44.2815062" lon="11.7274998"><ele>154.85714285714286</ele><time>2026-04-23T07:36:27.875Z</time></trkpt><trkpt lat="44.2815046" lon="11.7274024"><ele>155.14285714285714</ele><time>2026-04-23T07:36:29.875Z</time></trkpt><trkpt lat="44.2815081" lon="11.7273001"><ele>155.42857142857142</ele><time>2026-04-23T07:36:31.875Z</time></trkpt><trkpt lat="44.2815059" lon="11.7272016"><ele>155.71428571428572</ele><time>2026-04-23T07:36:33.874Z</time></trkpt><trkpt lat="44.2815108" lon="11.7271029"><ele>156.0</ele><time>2026-04-23T07:36:35.874Z</time></trkpt><trkpt lat="44.281503" lon="11.7270074"><ele>156.0</ele><time>2026-04-23T07:36:37.875Z</time></trkpt><trkpt lat="44.2815101" lon="11.7269088"><ele>156.0</ele><time>2026-04-23T07:36:39.874Z</time></trkpt><trkpt lat="44.2815157" lon="11.7268209"><ele>156.0</ele><time>2026-04-23T07:36:41.874Z</time></trkpt><trkpt lat="44.2815181" lon="11.7267261"><ele>156.0</ele><time>2026-04-23T07:36:43.874Z</time></trkpt><trkpt lat="44.2815302" lon="11.7265985"><ele>156.0</ele><time>2026-04-23T07:36:46.875Z</time></trkpt><trkpt lat="44.2815264" lon="11.7265041"><ele>156.0</ele><time>2026-04-23T07:36:48.874Z</time></trkpt><trkpt lat="44.2815363" lon="11.7263791"><ele>157.0</ele><time>2026-04-23T07:36:51.874Z</time></trkpt><trkpt lat="44.281558" lon="11.7262597"><ele>158.0</ele><time>2026-04-23T07:36:54.874Z</time></trkpt><trkpt lat="44.2815785" lon="11.7261421"><ele>159.0</ele><time>2026-04-23T07:36:57.875Z</time></trkpt><trkpt lat="44.2816026" lon="11.726038"><ele>160.0</ele><time>2026-04-23T07:37:00.874Z</time></trkpt><trkpt lat="44.2816329" lon="11.725921"><ele>161.0</ele><time>2026-04-23T07:37:03.874Z</time></trkpt><trkpt lat="44.2816616" lon="11.7258109"><ele>162.0</ele><time>2026-04-23T07:37:06.874Z</time></trkpt><trkpt lat="44.2816955" lon="11.7257089"><ele>162.5</ele><time>2026-04-23T07:37:09.875Z</time></trkpt><trkpt lat="44.28174" lon="11.7256034"><ele>163.0</ele><time>2026-04-23T07:37:12.875Z</time></trkpt><trkpt lat="44.2817793" lon="11.7254918"><ele>163.5</ele><time>2026-04-23T07:37:15.875Z</time></trkpt><trkpt lat="44.2818227" lon="11.7253809"><ele>164.0</ele><time>2026-04-23T07:37:18.874Z</time></trkpt><trkpt lat="44.2818585" lon="11.7252712"><ele>164.5</ele><time>2026-04-23T07:37:21.875Z</time></trkpt><trkpt lat="44.2818865" lon="11.7251746"><ele>165.0</ele><time>2026-04-23T07:37:24.874Z</time></trkpt><trkpt lat="44.2819072" lon="11.7250657"><ele>165.66666666666666</ele><time>2026-04-23T07:37:27.874Z</time></trkpt><trkpt lat="44.2819168" lon="11.7249476"><ele>166.33333333333334</ele><time>2026-04-23T07:37:30.874Z</time></trkpt><trkpt lat="44.2819097" lon="11.7248257"><ele>167.0</ele><time>2026-04-23T07:37:33.875Z</time></trkpt><trkpt lat="44.2819071" lon="11.7246993"><ele>167.66666666666669</ele><time>2026-04-23T07:37:36.875Z</time></trkpt><trkpt lat="44.2819012" lon="11.7245901"><ele>168.33333333333334</ele><time>2026-04-23T07:37:39.875Z</time></trkpt><trkpt lat="44.2818843" lon="11.7244718"><ele>169.0</ele><time>2026-04-23T07:37:42.874Z</time></trkpt><trkpt lat="44.2818672" lon="11.7243504"><ele>170.66666666666669</ele><time>2026-04-23T07:37:45.875Z</time></trkpt><trkpt lat="44.2818543" lon="11.7242296"><ele>172.33333333333334</ele><time>2026-04-23T07:37:48.875Z</time></trkpt><trkpt lat="44.2818524" lon="11.7241087"><ele>174.0</ele><time>2026-04-23T07:37:51.874Z</time></trkpt><trkpt lat="44.2818558" lon="11.7240013"><ele>175.66666666666666</ele><time>2026-04-23T07:37:54.875Z</time></trkpt><trkpt lat="44.2818886" lon="11.7239037"><ele>177.33333333333331</ele><time>2026-04-23T07:37:57.875Z</time></trkpt><trkpt lat="44.2819297" lon="11.7238075"><ele>179.0</ele><time>2026-04-23T07:38:00.874Z</time></trkpt><trkpt lat="44.2819798" lon="11.7237028"><ele>179.0</ele><time>2026-04-23T07:38:03.875Z</time></trkpt><trkpt lat="44.2820359" lon="11.7236218"><ele>179.0</ele><time>2026-04-23T07:38:06.875Z</time></trkpt><trkpt lat="44.2820961" lon="11.7235362"><ele>179.0</ele><time>2026-04-23T07:38:09.875Z</time></trkpt><trkpt lat="44.2821646" lon="11.7234513"><ele>179.0</ele><time>2026-04-23T07:38:12.875Z</time></trkpt><trkpt lat="44.2822307" lon="11.723386"><ele>179.0</ele><time>2026-04-23T07:38:15.874Z</time></trkpt><trkpt lat="44.2823057" lon="11.7233107"><ele>179.0</ele><time>2026-04-23T07:38:18.875Z</time></trkpt><trkpt lat="44.2823623" lon="11.7232652"><ele>180.85714285714286</ele><time>2026-04-23T07:38:20.875Z</time></trkpt><trkpt lat="44.2824392" lon="11.7232041"><ele>182.71428571428572</ele><time>2026-04-23T07:38:23.875Z</time></trkpt><trkpt lat="44.2825021" lon="11.723168"><ele>184.57142857142856</ele><time>2026-04-23T07:38:25.875Z</time></trkpt><trkpt lat="44.2825635" lon="11.7231342"><ele>186.42857142857144</ele><time>2026-04-23T07:38:27.875Z</time></trkpt><trkpt lat="44.2826279" lon="11.7231122"><ele>188.28571428571428</ele><time>2026-04-23T07:38:29.875Z</time></trkpt><trkpt lat="44.2826954" lon="11.7230975"><ele>190.14285714285714</ele><time>2026-04-23T07:38:31.875Z</time></trkpt><trkpt lat="44.2827639" lon="11.723102"><ele>192.0</ele><time>2026-04-23T07:38:33.874Z</time></trkpt><trkpt lat="44.2828283" lon="11.7231156"><ele>191.99999999999997</ele><time>2026-04-23T07:38:35.874Z</time></trkpt><trkpt lat="44.282895" lon="11.7231256"><ele>192.0</ele><time>2026-04-23T07:38:37.875Z</time></trkpt><trkpt lat="44.2829611" lon="11.7231448"><ele>192.0</ele><time>2026-04-23T07:38:39.875Z</time></trkpt><trkpt lat="44.2830258" lon="11.7231599"><ele>192.0</ele><time>2026-04-23T07:38:41.875Z</time></trkpt><trkpt lat="44.283092" lon="11.7231751"><ele>192.0</ele><time>2026-04-23T07:38:43.875Z</time></trkpt><trkpt lat="44.2831625" lon="11.7231789"><ele>191.99999999999997</ele><time>2026-04-23T07:38:45.874Z</time></trkpt><trkpt lat="44.2832325" lon="11.7231862"><ele>192.0</ele><time>2026-04-23T07:38:47.875Z</time></trkpt><trkpt lat="44.2832977" lon="11.7231912"><ele>192.42857142857142</ele><time>2026-04-23T07:38:49.875Z</time></trkpt><trkpt lat="44.2833911" lon="11.7231978"><ele>192.85714285714286</ele><time>2026-04-23T07:38:52.875Z</time></trkpt><trkpt lat="44.2834568" lon="11.7232019"><ele>193.28571428571428</ele><time>2026-04-23T07:38:54.875Z</time></trkpt><trkpt lat="44.283528" lon="11.7231951"><ele>193.71428571428572</ele><time>2026-04-23T07:38:56.874Z</time></trkpt><trkpt lat="44.2835989" lon="11.723184"><ele>194.14285714285714</ele><time>2026-04-23T07:38:58.874Z</time></trkpt><trkpt lat="44.2836684" lon="11.723174"><ele>194.57142857142856</ele><time>2026-04-23T07:39:00.874Z</time></trkpt><trkpt lat="44.2837347" lon="11.7231596"><ele>195.0</ele><time>2026-04-23T07:39:02.875Z</time></trkpt><trkpt lat="44.2838007" lon="11.7231281"><ele>195.0</ele><time>2026-04-23T07:39:04.875Z</time></trkpt><trkpt lat="44.2838673" lon="11.7231008"><ele>195.0</ele><time>2026-04-23T07:39:06.875Z</time></trkpt><trkpt lat="44.2839296" lon="11.7230742"><ele>195.0</ele><time>2026-04-23T07:39:08.875Z</time></trkpt><trkpt lat="44.2839963" lon="11.7230516"><ele>195.0</ele><time>2026-04-23T07:39:10.874Z</time></trkpt><trkpt lat="44.2840625" lon="11.7230311"><ele>195.0</ele><time>2026-04-23T07:39:12.875Z</time></trkpt><trkpt lat="44.2841256" lon="11.7230194"><ele>195.0</ele><time>2026-04-23T07:39:14.874Z</time></trkpt><trkpt lat="44.284217" lon="11.7230177"><ele>195.0</ele><time>2026-04-23T07:39:17.874Z</time></trkpt><trkpt lat="44.2843073" lon="11.7230288"><ele>195.83333333333334</ele><time>2026-04-23T07:39:20.874Z</time></trkpt><trkpt lat="44.2843961" lon="11.7230424"><ele>196.66666666666669</ele><time>2026-04-23T07:39:23.874Z</time></trkpt><trkpt lat="44.284477" lon="11.7230625"><ele>197.5</ele><time>2026-04-23T07:39:26.875Z</time></trkpt><trkpt lat="44.2845484" lon="11.7230972"><ele>198.33333333333334</ele><time>2026-04-23T07:39:29.875Z</time></trkpt><trkpt lat="44.2846246" lon="11.7231408"><ele>199.16666666666669</ele><time>2026-04-23T07:39:32.874Z</time></trkpt><trkpt lat="44.2846895" lon="11.7232206"><ele>200.0</ele><time>2026-04-23T07:39:35.875Z</time></trkpt><trkpt lat="44.2847365" lon="11.7232952"><ele>202.00000000000003</ele><time>2026-04-23T07:39:38.874Z</time></trkpt><trkpt lat="44.2847925" lon="11.7233691"><ele>204.0</ele><time>2026-04-23T07:39:41.875Z</time></trkpt><trkpt lat="44.2848418" lon="11.7234607"><ele>206.0</ele><time>2026-04-23T07:39:44.875Z</time></trkpt><trkpt lat="44.2848905" lon="11.7235397"><ele>208.0</ele><time>2026-04-23T07:39:47.875Z</time></trkpt><trkpt lat="44.2849421" lon="11.7236222"><ele>210.00000000000003</ele><time>2026-04-23T07:39:50.875Z</time></trkpt><trkpt lat="44.2849874" lon="11.7237082"><ele>212.0</ele><time>2026-04-23T07:39:53.875Z</time></trkpt><trkpt lat="44.2850378" lon="11.723795"><ele>212.00000000000003</ele><time>2026-04-23T07:39:56.874Z</time></trkpt><trkpt lat="44.2850824" lon="11.7238789"><ele>212.0</ele><time>2026-04-23T07:39:59.875Z</time></trkpt><trkpt lat="44.2851408" lon="11.7239636"><ele>212.0</ele><time>2026-04-23T07:40:02.874Z</time></trkpt><trkpt lat="44.2851857" lon="11.7240501"><ele>212.0</ele><time>2026-04-23T07:40:05.875Z</time></trkpt><trkpt lat="44.2852283" lon="11.7241317"><ele>212.00000000000003</ele><time>2026-04-23T07:40:08.874Z</time></trkpt><trkpt lat="44.2852757" lon="11.7242275"><ele>212.0</ele><time>2026-04-23T07:40:11.874Z</time></trkpt><trkpt lat="44.2853124" lon="11.7243215"><ele>211.50000000000003</ele><time>2026-04-23T07:40:14.874Z</time></trkpt><trkpt lat="44.2853381" lon="11.7244313"><ele>211.0</ele><time>2026-04-23T07:40:17.875Z</time></trkpt><trkpt lat="44.2853662" lon="11.7245291"><ele>210.5</ele><time>2026-04-23T07:40:20.874Z</time></trkpt><trkpt lat="44.2853905" lon="11.7246214"><ele>210.0</ele><time>2026-04-23T07:40:23.874Z</time></trkpt><trkpt lat="44.2854296" lon="11.724729"><ele>209.50000000000003</ele><time>2026-04-23T07:40:26.875Z</time></trkpt><trkpt lat="44.2854709" lon="11.7248258"><ele>209.0</ele><time>2026-04-23T07:40:29.875Z</time></trkpt><trkpt lat="44.2855375" lon="11.7248978"><ele>211.16666666666669</ele><time>2026-04-23T07:40:32.875Z</time></trkpt><trkpt lat="44.2856084" lon="11.7249425"><ele>213.33333333333334</ele><time>2026-04-23T07:40:35.875Z</time></trkpt><trkpt lat="44.2856865" lon="11.7249577"><ele>215.5</ele><time>2026-04-23T07:40:38.874Z</time></trkpt><trkpt lat="44.2857657" lon="11.7249096"><ele>217.66666666666669</ele><time>2026-04-23T07:40:41.874Z</time></trkpt><trkpt lat="44.2858262" lon="11.7248082"><ele>219.83333333333334</ele><time>2026-04-23T07:40:44.875Z</time></trkpt><trkpt lat="44.2858356" lon="11.7246941"><ele>222.0</ele><time>2026-04-23T07:40:47.875Z</time></trkpt><trkpt lat="44.28583" lon="11.7245743"><ele>222.0</ele><time>2026-04-23T07:40:50.875Z</time></trkpt><trkpt lat="44.2858181" lon="11.7244636"><ele>222.0</ele><time>2026-04-23T07:40:53.874Z</time></trkpt><trkpt lat="44.2857873" lon="11.7243566"><ele>222.0</ele><time>2026-04-23T07:40:56.874Z</time></trkpt><trkpt lat="44.2857494" lon="11.7242557"><ele>222.0</ele><time>2026-04-23T07:40:59.874Z</time></trkpt><trkpt lat="44.285715" lon="11.7241505"><ele>222.0</ele><time>2026-04-23T07:41:02.874Z</time></trkpt><trkpt lat="44.2856769" lon="11.7240602"><ele>222.0</ele><time>2026-04-23T07:41:05.875Z</time></trkpt><trkpt lat="44.2856471" lon="11.7239505"><ele>222.66666666666666</ele><time>2026-04-23T07:41:08.875Z</time></trkpt><trkpt lat="44.2856316" lon="11.7238438"><ele>223.33333333333331</ele><time>2026-04-23T07:41:11.874Z</time></trkpt><trkpt lat="44.2856246" lon="11.7237335"><ele>224.0</ele><time>2026-04-23T07:41:14.875Z</time></trkpt><trkpt lat="44.2856186" lon="11.7236255"><ele>224.66666666666666</ele><time>2026-04-23T07:41:17.874Z</time></trkpt><trkpt lat="44.2856168" lon="11.7235179"><ele>225.33333333333331</ele><time>2026-04-23T07:41:20.875Z</time></trkpt><trkpt lat="44.2856098" lon="11.7234034"><ele>226.0</ele><time>2026-04-23T07:41:23.875Z</time></trkpt><trkpt lat="44.2856046" lon="11.7232889"><ele>226.33333333333331</ele><time>2026-04-23T07:41:26.875Z</time></trkpt><trkpt lat="44.285597" lon="11.7231817"><ele>226.66666666666666</ele><time>2026-04-23T07:41:29.874Z</time></trkpt><trkpt lat="44.2855828" lon="11.7230748"><ele>227.0</ele><time>2026-04-23T07:41:32.875Z</time></trkpt><trkpt lat="44.2855801" lon="11.7229615"><ele>227.33333333333331</ele><time>2026-04-23T07:41:35.875Z</time></trkpt><trkpt lat="44.285576" lon="11.7228472"><ele>227.66666666666666</ele><time>2026-04-23T07:41:38.875Z</time></trkpt><trkpt lat="44.2855749" lon="11.7227351"><ele>228.0</ele><time>2026-04-23T07:41:41.875Z</time></trkpt><trkpt lat="44.2855711" lon="11.7226226"><ele>228.16666666666666</ele><time>2026-04-23T07:41:44.875Z</time></trkpt><trkpt lat="44.2855751" lon="11.7225077"><ele>228.33333333333331</ele><time>2026-04-23T07:41:47.874Z</time></trkpt><trkpt lat="44.2855803" lon="11.7223844"><ele>228.5</ele><time>2026-04-23T07:41:50.875Z</time></trkpt><trkpt lat="44.2855864" lon="11.7222639"><ele>228.66666666666666</ele><time>2026-04-23T07:41:53.874Z</time></trkpt><trkpt lat="44.2856064" lon="11.7221586"><ele>228.83333333333331</ele><time>2026-04-23T07:41:56.874Z</time></trkpt><trkpt lat="44.2856379" lon="11.7220543"><ele>229.0</ele><time>2026-04-23T07:41:59.875Z</time></trkpt><trkpt lat="44.2856754" lon="11.7219494"><ele>230.66666666666666</ele><time>2026-04-23T07:42:02.875Z</time></trkpt><trkpt lat="44.2857199" lon="11.7218302"><ele>232.33333333333331</ele><time>2026-04-23T07:42:05.874Z</time></trkpt><trkpt lat="44.2857611" lon="11.7217502"><ele>234.0</ele><time>2026-04-23T07:42:07.875Z</time></trkpt><trkpt lat="44.2858036" lon="11.7216732"><ele>235.66666666666669</ele><time>2026-04-23T07:42:09.874Z</time></trkpt><trkpt lat="44.2858422" lon="11.7215883"><ele>237.33333333333334</ele><time>2026-04-23T07:42:11.874Z</time></trkpt><trkpt lat="44.2858854" lon="11.7214997"><ele>239.0</ele><time>2026-04-23T07:42:13.875Z</time></trkpt><trkpt lat="44.2859309" lon="11.7214144"><ele>239.00000000000003</ele><time>2026-04-23T07:42:15.874Z</time></trkpt><trkpt lat="44.2859703" lon="11.7213233"><ele>239.0</ele><time>2026-04-23T07:42:17.874Z</time></trkpt><trkpt lat="44.2860167" lon="11.7212292"><ele>239.0</ele><time>2026-04-23T07:42:19.875Z</time></trkpt><trkpt lat="44.2860644" lon="11.721141"><ele>239.0</ele><time>2026-04-23T07:42:21.875Z</time></trkpt><trkpt lat="44.2861113" lon="11.7210473"><ele>239.00000000000003</ele><time>2026-04-23T07:42:23.874Z</time></trkpt><trkpt lat="44.2861494" lon="11.7209638"><ele>239.0</ele><time>2026-04-23T07:42:25.874Z</time></trkpt><trkpt lat="44.2861924" lon="11.7208845"><ele>239.83333333333334</ele><time>2026-04-23T07:42:27.875Z</time></trkpt><trkpt lat="44.2862353" lon="11.7207935"><ele>240.66666666666669</ele><time>2026-04-23T07:42:29.874Z</time></trkpt><trkpt lat="44.2862784" lon="11.720705"><ele>241.5</ele><time>2026-04-23T07:42:31.875Z</time></trkpt><trkpt lat="44.286318" lon="11.7206112"><ele>242.33333333333331</ele><time>2026-04-23T07:42:33.874Z</time></trkpt><trkpt lat="44.2863587" lon="11.7205085"><ele>243.16666666666666</ele><time>2026-04-23T07:42:35.875Z</time></trkpt><trkpt lat="44.2863936" lon="11.7204036"><ele>244.0</ele><time>2026-04-23T07:42:37.874Z</time></trkpt><trkpt lat="44.2864311" lon="11.7202953"><ele>242.49999999999997</ele><time>2026-04-23T07:42:39.875Z</time></trkpt><trkpt lat="44.2864692" lon="11.7201971"><ele>241.0</ele><time>2026-04-23T07:42:41.875Z</time></trkpt><trkpt lat="44.2865174" lon="11.7201016"><ele>239.5</ele><time>2026-04-23T07:42:43.874Z</time></trkpt><trkpt lat="44.2865418" lon="11.7200152"><ele>238.0</ele><time>2026-04-23T07:42:45.875Z</time></trkpt><trkpt lat="44.2865708" lon="11.7199037"><ele>236.49999999999997</ele><time>2026-04-23T07:42:48.874Z</time></trkpt><trkpt lat="44.2866008" lon="11.7197971"><ele>235.0</ele><time>2026-04-23T07:42:51.874Z</time></trkpt><trkpt lat="44.2865669" lon="11.719721"><ele>234.99999999999997</ele><time>2026-04-23T07:42:53.873Z</time></trkpt><trkpt lat="44.2865052" lon="11.7196583"><ele>235.0</ele><time>2026-04-23T07:42:56.873Z</time></trkpt><trkpt lat="44.2864517" lon="11.7196"><ele>235.0</ele><time>2026-04-23T07:42:59.874Z</time></trkpt><trkpt lat="44.2863819" lon="11.7195302"><ele>235.0</ele><time>2026-04-23T07:43:03.873Z</time></trkpt><trkpt lat="44.286317" lon="11.7194673"><ele>234.99999999999997</ele><time>2026-04-23T07:43:06.873Z</time></trkpt><trkpt lat="44.2862556" lon="11.7194893"><ele>235.0</ele><time>2026-04-23T07:43:09.891Z</time></trkpt><trkpt lat="44.286175" lon="11.7194878"><ele>236.33333333333331</ele><time>2026-04-23T07:43:12.874Z</time></trkpt><trkpt lat="44.2860896" lon="11.7194747"><ele>237.66666666666666</ele><time>2026-04-23T07:43:15.878Z</time></trkpt><trkpt lat="44.2860133" lon="11.7194597"><ele>239.0</ele><time>2026-04-23T07:43:17.917Z</time></trkpt><trkpt lat="44.2859147" lon="11.7194518"><ele>240.33333333333331</ele><time>2026-04-23T07:43:19.874Z</time></trkpt><trkpt lat="44.285828" lon="11.7194501"><ele>241.66666666666666</ele><time>2026-04-23T07:43:21.873Z</time></trkpt><trkpt lat="44.2857505" lon="11.7194515"><ele>243.0</ele><time>2026-04-23T07:43:23.89Z</time></trkpt><trkpt lat="44.2856839" lon="11.7194639"><ele>243.0</ele><time>2026-04-23T07:43:25.782Z</time></trkpt><trkpt lat="44.2856129" lon="11.7194609"><ele>243.0</ele><time>2026-04-23T07:43:27.742Z</time></trkpt><trkpt lat="44.2855314" lon="11.719461"><ele>243.0</ele><time>2026-04-23T07:43:29.874Z</time></trkpt><trkpt lat="44.2854644" lon="11.7194637"><ele>243.0</ele><time>2026-04-23T07:43:31.835Z</time></trkpt><trkpt lat="44.2853761" lon="11.719447"><ele>243.0</ele><time>2026-04-23T07:43:34.874Z</time></trkpt><trkpt lat="44.2853007" lon="11.7194094"><ele>243.0</ele><time>2026-04-23T07:43:37.885Z</time></trkpt><trkpt lat="44.2852391" lon="11.7193486"><ele>239.0</ele><time>2026-04-23T07:43:39.9Z</time></trkpt><trkpt lat="44.2851672" lon="11.7192912"><ele>235.0</ele><time>2026-04-23T07:43:41.825Z</time></trkpt><trkpt lat="44.285083" lon="11.7192519"><ele>231.0</ele><time>2026-04-23T07:43:43.874Z</time></trkpt><trkpt lat="44.2849996" lon="11.7192204"><ele>227.0</ele><time>2026-04-23T07:43:45.873Z</time></trkpt><trkpt lat="44.284939" lon="11.7191853"><ele>223.0</ele><time>2026-04-23T07:43:47.873Z</time></trkpt><trkpt lat="44.284868" lon="11.7191386"><ele>219.0</ele><time>2026-04-23T07:43:49.873Z</time></trkpt><trkpt lat="44.2847917" lon="11.7190992"><ele>214.39999999999998</ele><time>2026-04-23T07:43:51.873Z</time></trkpt><trkpt lat="44.284711" lon="11.7190617"><ele>209.79999999999998</ele><time>2026-04-23T07:43:53.874Z</time></trkpt><trkpt lat="44.2846205" lon="11.7189993"><ele>205.2</ele><time>2026-04-23T07:43:55.874Z</time></trkpt><trkpt lat="44.2845312" lon="11.7189138"><ele>200.60000000000002</ele><time>2026-04-23T07:43:57.873Z</time></trkpt><trkpt lat="44.2844409" lon="11.7187939"><ele>196.0</ele><time>2026-04-23T07:43:59.873Z</time></trkpt><trkpt lat="44.2843945" lon="11.7187311"><ele>195.99999999999997</ele><time>2026-04-23T07:44:00.873Z</time></trkpt><trkpt lat="44.2843438" lon="11.7186635"><ele>196.0</ele><time>2026-04-23T07:44:01.873Z</time></trkpt><trkpt lat="44.2842923" lon="11.7186005"><ele>196.0</ele><time>2026-04-23T07:44:02.874Z</time></trkpt><trkpt lat="44.2842444" lon="11.7185368"><ele>196.0</ele><time>2026-04-23T07:44:03.874Z</time></trkpt><trkpt lat="44.2841938" lon="11.7184792"><ele>195.99999999999997</ele><time>2026-04-23T07:44:04.873Z</time></trkpt><trkpt lat="44.2841446" lon="11.7184194"><ele>196.0</ele><time>2026-04-23T07:44:05.874Z</time></trkpt><trkpt lat="44.2840479" lon="11.7183209"><ele>196.49999999999997</ele><time>2026-04-23T07:44:07.873Z</time></trkpt><trkpt lat="44.2839385" lon="11.7182499"><ele>197.0</ele><time>2026-04-23T07:44:09.873Z</time></trkpt><trkpt lat="44.2838424" lon="11.7182356"><ele>197.5</ele><time>2026-04-23T07:44:11.873Z</time></trkpt><trkpt lat="44.2837703" lon="11.7182507"><ele>198.0</ele><time>2026-04-23T07:44:13.873Z</time></trkpt><trkpt lat="44.2837015" lon="11.7182783"><ele>198.49999999999997</ele><time>2026-04-23T07:44:15.873Z</time></trkpt><trkpt lat="44.2836332" lon="11.7183135"><ele>199.0</ele><time>2026-04-23T07:44:17.873Z</time></trkpt><trkpt lat="44.2835318" lon="11.7183621"><ele>199.0</ele><time>2026-04-23T07:44:19.874Z</time></trkpt><trkpt lat="44.2834355" lon="11.7183877"><ele>199.0</ele><time>2026-04-23T07:44:21.873Z</time></trkpt><trkpt lat="44.2833437" lon="11.7184223"><ele>199.0</ele><time>2026-04-23T07:44:23.873Z</time></trkpt><trkpt lat="44.2832569" lon="11.7184381"><ele>199.0</ele><time>2026-04-23T07:44:25.874Z</time></trkpt><trkpt lat="44.2831559" lon="11.7184667"><ele>199.0</ele><time>2026-04-23T07:44:28.873Z</time></trkpt><trkpt lat="44.2830833" lon="11.7185112"><ele>195.6</ele><time>2026-04-23T07:44:30.874Z</time></trkpt><trkpt lat="44.2830075" lon="11.7185608"><ele>192.2</ele><time>2026-04-23T07:44:32.873Z</time></trkpt><trkpt lat="44.2829394" lon="11.7185817"><ele>188.79999999999998</ele><time>2026-04-23T07:44:34.874Z</time></trkpt><trkpt lat="44.2828473" lon="11.7185966"><ele>185.39999999999998</ele><time>2026-04-23T07:44:36.873Z</time></trkpt><trkpt lat="44.282724" lon="11.7185903"><ele>182.0</ele><time>2026-04-23T07:44:38.873Z</time></trkpt><trkpt lat="44.2826118" lon="11.7185621"><ele>182.0</ele><time>2026-04-23T07:44:40.874Z</time></trkpt><trkpt lat="44.2825083" lon="11.7185434"><ele>182.0</ele><time>2026-04-23T07:44:42.874Z</time></trkpt><trkpt lat="44.2824198" lon="11.7184867"><ele>182.0</ele><time>2026-04-23T07:44:44.874Z</time></trkpt><trkpt lat="44.28235" lon="11.7184179"><ele>182.0</ele><time>2026-04-23T07:44:46.874Z</time></trkpt><trkpt lat="44.2822813" lon="11.7183673"><ele>182.0</ele><time>2026-04-23T07:44:48.873Z</time></trkpt><trkpt lat="44.2822159" lon="11.7183183"><ele>182.0</ele><time>2026-04-23T07:44:50.873Z</time></trkpt><trkpt lat="44.2821356" lon="11.7182787"><ele>182.0</ele><time>2026-04-23T07:44:53.873Z</time></trkpt><trkpt lat="44.2821161" lon="11.7181945"><ele>182.0</ele><time>2026-04-23T07:44:56.874Z</time></trkpt><trkpt lat="44.2821746" lon="11.7181143"><ele>182.0</ele><time>2026-04-23T07:44:59.873Z</time></trkpt><trkpt lat="44.2822246" lon="11.7180565"><ele>182.0</ele><time>2026-04-23T07:45:01.873Z</time></trkpt><trkpt lat="44.2822974" lon="11.7179606"><ele>182.0</ele><time>2026-04-23T07:45:03.873Z</time></trkpt><trkpt lat="44.2823861" lon="11.7178579"><ele>182.0</ele><time>2026-04-23T07:45:05.874Z</time></trkpt><trkpt lat="44.2824443" lon="11.7178022"><ele>182.0</ele><time>2026-04-23T07:45:06.873Z</time></trkpt><trkpt lat="44.2825139" lon="11.717756"><ele>182.0</ele><time>2026-04-23T07:45:07.873Z</time></trkpt><trkpt lat="44.2825769" lon="11.7177069"><ele>182.0</ele><time>2026-04-23T07:45:08.874Z</time></trkpt><trkpt lat="44.2826223" lon="11.7176424"><ele>182.0</ele><time>2026-04-23T07:45:09.873Z</time></trkpt><trkpt lat="44.2826624" lon="11.7175685"><ele>182.0</ele><time>2026-04-23T07:45:10.874Z</time></trkpt><trkpt lat="44.2827139" lon="11.717403"><ele>182.0</ele><time>2026-04-23T07:45:12.874Z</time></trkpt><trkpt lat="44.2827442" lon="11.7172571"><ele>180.0</ele><time>2026-04-23T07:45:14.873Z</time></trkpt><trkpt lat="44.2827599" lon="11.7170925"><ele>178.0</ele><time>2026-04-23T07:45:16.874Z</time></trkpt><trkpt lat="44.282771" lon="11.7169916"><ele>176.0</ele><time>2026-04-23T07:45:17.873Z</time></trkpt><trkpt lat="44.2827822" lon="11.7168797"><ele>174.0</ele><time>2026-04-23T07:45:18.874Z</time></trkpt><trkpt lat="44.2827942" lon="11.7167616"><ele>172.0</ele><time>2026-04-23T07:45:19.873Z</time></trkpt><trkpt lat="44.2827996" lon="11.7166558"><ele>170.0</ele><time>2026-04-23T07:45:20.874Z</time></trkpt><trkpt lat="44.2827936" lon="11.7165559"><ele>168.0</ele><time>2026-04-23T07:45:21.873Z</time></trkpt><trkpt lat="44.2827836" lon="11.7164625"><ele>166.0</ele><time>2026-04-23T07:45:22.873Z</time></trkpt><trkpt lat="44.2827637" lon="11.7163574"><ele>164.0</ele><time>2026-04-23T07:45:24.873Z</time></trkpt><trkpt lat="44.2827639" lon="11.7162595"><ele>162.0</ele><time>2026-04-23T07:45:43.874Z</time></trkpt><trkpt lat="44.2827992" lon="11.7161791"><ele>160.0</ele><time>2026-04-23T07:45:47.873Z</time></trkpt><trkpt lat="44.2828422" lon="11.7160992"><ele>158.0</ele><time>2026-04-23T07:45:50.874Z</time></trkpt><trkpt lat="44.2829023" lon="11.7160117"><ele>156.0</ele><time>2026-04-23T07:45:53.874Z</time></trkpt><trkpt lat="44.2829549" lon="11.7159401"><ele>156.16666666666666</ele><time>2026-04-23T07:45:55.874Z</time></trkpt><trkpt lat="44.2830094" lon="11.7158398"><ele>156.33333333333334</ele><time>2026-04-23T07:45:57.874Z</time></trkpt><trkpt lat="44.2830661" lon="11.7157644"><ele>156.5</ele><time>2026-04-23T07:45:59.874Z</time></trkpt><trkpt lat="44.2831245" lon="11.7156938"><ele>156.66666666666669</ele><time>2026-04-23T07:46:01.873Z</time></trkpt><trkpt lat="44.2831922" lon="11.7156406"><ele>156.83333333333334</ele><time>2026-04-23T07:46:04.874Z</time></trkpt><trkpt lat="44.2832541" lon="11.7155659"><ele>157.0</ele><time>2026-04-23T07:46:07.873Z</time></trkpt><trkpt lat="44.2833126" lon="11.7154887"><ele>157.0</ele><time>2026-04-23T07:46:10.873Z</time></trkpt><trkpt lat="44.2833855" lon="11.7153986"><ele>157.0</ele><time>2026-04-23T07:46:13.873Z</time></trkpt><trkpt lat="44.2834477" lon="11.715323"><ele>157.0</ele><time>2026-04-23T07:46:15.873Z</time></trkpt><trkpt lat="44.2835003" lon="11.7152504"><ele>157.0</ele><time>2026-04-23T07:46:17.873Z</time></trkpt><trkpt lat="44.2835713" lon="11.7151694"><ele>157.0</ele><time>2026-04-23T07:46:20.873Z</time></trkpt><trkpt lat="44.2836338" lon="11.7151226"><ele>157.0</ele><time>2026-04-23T07:46:22.873Z</time></trkpt><trkpt lat="44.2837438" lon="11.7150505"><ele>154.57142857142856</ele><time>2026-04-23T07:46:24.873Z</time></trkpt><trkpt lat="44.2838206" lon="11.7150142"><ele>152.14285714285714</ele><time>2026-04-23T07:46:25.873Z</time></trkpt><trkpt lat="44.2838831" lon="11.7150023"><ele>149.71428571428572</ele><time>2026-04-23T07:46:26.874Z</time></trkpt><trkpt lat="44.2839627" lon="11.7149442"><ele>147.28571428571428</ele><time>2026-04-23T07:46:28.873Z</time></trkpt><trkpt lat="44.2840097" lon="11.7148808"><ele>144.85714285714286</ele><time>2026-04-23T07:46:30.873Z</time></trkpt><trkpt lat="44.2840321" lon="11.7147886"><ele>142.42857142857142</ele><time>2026-04-23T07:46:33.873Z</time></trkpt><trkpt lat="44.2840682" lon="11.7147044"><ele>140.0</ele><time>2026-04-23T07:46:35.874Z</time></trkpt><trkpt lat="44.2841349" lon="11.7146198"><ele>139.83333333333331</ele><time>2026-04-23T07:46:37.873Z</time></trkpt><trkpt lat="44.2841831" lon="11.7145469"><ele>139.66666666666666</ele><time>2026-04-23T07:46:39.873Z</time></trkpt><trkpt lat="44.284245" lon="11.7144605"><ele>139.5</ele><time>2026-04-23T07:46:42.874Z</time></trkpt><trkpt lat="44.2842954" lon="11.7143452"><ele>139.33333333333334</ele><time>2026-04-23T07:46:45.874Z</time></trkpt><trkpt lat="44.2843238" lon="11.7142648"><ele>139.16666666666669</ele><time>2026-04-23T07:46:47.873Z</time></trkpt><trkpt lat="44.2843843" lon="11.7142097"><ele>139.0</ele><time>2026-04-23T07:46:50.874Z</time></trkpt><trkpt lat="44.2844555" lon="11.714173"><ele>136.83333333333334</ele><time>2026-04-23T07:46:54.873Z</time></trkpt><trkpt lat="44.2845121" lon="11.7141307"><ele>134.66666666666669</ele><time>2026-04-23T07:46:57.873Z</time></trkpt><trkpt lat="44.2845819" lon="11.714085"><ele>132.5</ele><time>2026-04-23T07:47:00.874Z</time></trkpt><trkpt lat="44.2845897" lon="11.7139947"><ele>130.33333333333334</ele><time>2026-04-23T07:47:05.873Z</time></trkpt><trkpt lat="44.2845079" lon="11.7139523"><ele>128.16666666666666</ele><time>2026-04-23T07:47:09.873Z</time></trkpt><trkpt lat="44.2844298" lon="11.7138844"><ele>126.0</ele><time>2026-04-23T07:47:12.873Z</time></trkpt><trkpt lat="44.2843713" lon="11.7138305"><ele>126.0</ele><time>2026-04-23T07:47:14.873Z</time></trkpt><trkpt lat="44.2843253" lon="11.7137414"><ele>126.0</ele><time>2026-04-23T07:47:18.873Z</time></trkpt><trkpt lat="44.2842742" lon="11.713666"><ele>126.0</ele><time>2026-04-23T07:47:21.874Z</time></trkpt><trkpt lat="44.2842173" lon="11.7136102"><ele>126.0</ele><time>2026-04-23T07:47:25.874Z</time></trkpt><trkpt lat="44.2841336" lon="11.7135269"><ele>126.0</ele><time>2026-04-23T07:47:28.873Z</time></trkpt><trkpt lat="44.2840605" lon="11.7134533"><ele>126.0</ele><time>2026-04-23T07:47:30.873Z</time></trkpt><trkpt lat="44.2839781" lon="11.7133816"><ele>123.6</ele><time>2026-04-23T07:47:32.874Z</time></trkpt><trkpt lat="44.2838957" lon="11.7133151"><ele>121.19999999999999</ele><time>2026-04-23T07:47:34.874Z</time></trkpt><trkpt lat="44.2838108" lon="11.7132527"><ele>118.80000000000001</ele><time>2026-04-23T07:47:36.874Z</time></trkpt><trkpt lat="44.2837157" lon="11.7131611"><ele>116.4</ele><time>2026-04-23T07:47:38.873Z</time></trkpt><trkpt lat="44.2836377" lon="11.7130902"><ele>114.0</ele><time>2026-04-23T07:47:40.874Z</time></trkpt><trkpt lat="44.2835651" lon="11.7130327"><ele>114.0</ele><time>2026-04-23T07:47:42.874Z</time></trkpt><trkpt lat="44.2834812" lon="11.7129845"><ele>114.0</ele><time>2026-04-23T07:47:44.873Z</time></trkpt><trkpt lat="44.2833847" lon="11.71291"><ele>114.0</ele><time>2026-04-23T07:47:46.874Z</time></trkpt><trkpt lat="44.2833095" lon="11.7128004"><ele>114.0</ele><time>2026-04-23T07:47:48.873Z</time></trkpt><trkpt lat="44.2832358" lon="11.7127191"><ele>114.0</ele><time>2026-04-23T07:47:50.874Z</time></trkpt><trkpt lat="44.2831499" lon="11.71263"><ele>113.4</ele><time>2026-04-23T07:47:52.874Z</time></trkpt><trkpt lat="44.283062" lon="11.7125351"><ele>112.80000000000001</ele><time>2026-04-23T07:47:54.873Z</time></trkpt><trkpt lat="44.2829617" lon="11.7124243"><ele>112.19999999999999</ele><time>2026-04-23T07:47:56.873Z</time></trkpt><trkpt lat="44.2828604" lon="11.7123116"><ele>111.6</ele><time>2026-04-23T07:47:58.874Z</time></trkpt><trkpt lat="44.2827998" lon="11.7122646"><ele>111.0</ele><time>2026-04-23T07:47:59.873Z</time></trkpt><trkpt lat="44.2826771" lon="11.7121969"><ele>111.0</ele><time>2026-04-23T07:48:01.874Z</time></trkpt><trkpt lat="44.2826098" lon="11.7121703"><ele>111.0</ele><time>2026-04-23T07:48:02.873Z</time></trkpt><trkpt lat="44.2825019" lon="11.7121309"><ele>111.0</ele><time>2026-04-23T07:48:04.873Z</time></trkpt><trkpt lat="44.2823851" lon="11.7121085"><ele>111.0</ele><time>2026-04-23T07:48:06.874Z</time></trkpt><trkpt lat="44.2822687" lon="11.7120768"><ele>111.0</ele><time>2026-04-23T07:48:08.873Z</time></trkpt><trkpt lat="44.2821591" lon="11.7120408"><ele>111.0</ele><time>2026-04-23T07:48:10.873Z</time></trkpt><trkpt lat="44.2820532" lon="11.7120028"><ele>111.0</ele><time>2026-04-23T07:48:12.873Z</time></trkpt><trkpt lat="44.2819495" lon="11.7119658"><ele>111.0</ele><time>2026-04-23T07:48:14.873Z</time></trkpt><trkpt lat="44.281854" lon="11.7119381"><ele>111.0</ele><time>2026-04-23T07:48:16.873Z</time></trkpt><trkpt lat="44.2817602" lon="11.7119148"><ele>111.0</ele><time>2026-04-23T07:48:18.873Z</time></trkpt><trkpt lat="44.2816618" lon="11.711878"><ele>110.16666666666667</ele><time>2026-04-23T07:48:20.873Z</time></trkpt><trkpt lat="44.2815763" lon="11.7118519"><ele>109.33333333333334</ele><time>2026-04-23T07:48:22.873Z</time></trkpt><trkpt lat="44.2815028" lon="11.7118291"><ele>108.5</ele><time>2026-04-23T07:48:24.874Z</time></trkpt><trkpt lat="44.2814249" lon="11.7118013"><ele>107.66666666666667</ele><time>2026-04-23T07:48:26.873Z</time></trkpt><trkpt lat="44.2813446" lon="11.7117727"><ele>106.83333333333334</ele><time>2026-04-23T07:48:28.874Z</time></trkpt><trkpt lat="44.2812806" lon="11.7117537"><ele>106.0</ele><time>2026-04-23T07:48:30.873Z</time></trkpt><trkpt lat="44.281189" lon="11.7117479"><ele>105.19999999999999</ele><time>2026-04-23T07:48:33.873Z</time></trkpt><trkpt lat="44.2811144" lon="11.7117652"><ele>104.39999999999999</ele><time>2026-04-23T07:48:36.874Z</time></trkpt><trkpt lat="44.2810269" lon="11.7117818"><ele>103.6</ele><time>2026-04-23T07:48:40.873Z</time></trkpt><trkpt lat="44.2809324" lon="11.7117805"><ele>102.8</ele><time>2026-04-23T07:48:43.873Z</time></trkpt><trkpt lat="44.2808419" lon="11.7118306"><ele>102.0</ele><time>2026-04-23T07:48:45.873Z</time></trkpt><trkpt lat="44.2807488" lon="11.7118812"><ele>103.33333333333333</ele><time>2026-04-23T07:48:47.874Z</time></trkpt><trkpt lat="44.2806539" lon="11.7119497"><ele>104.66666666666666</ele><time>2026-04-23T07:48:49.873Z</time></trkpt><trkpt lat="44.2805794" lon="11.7120293"><ele>106.0</ele><time>2026-04-23T07:48:51.873Z</time></trkpt><trkpt lat="44.2805231" lon="11.7121301"><ele>107.33333333333333</ele><time>2026-04-23T07:48:53.873Z</time></trkpt><trkpt lat="44.2804799" lon="11.7121992"><ele>108.66666666666666</ele><time>2026-04-23T07:48:55.873Z</time></trkpt><trkpt lat="44.2804462" lon="11.7123171"><ele>110.0</ele><time>2026-04-23T07:48:57.874Z</time></trkpt><trkpt lat="44.2804087" lon="11.7124108"><ele>107.2</ele><time>2026-04-23T07:48:59.873Z</time></trkpt><trkpt lat="44.2803576" lon="11.712515"><ele>104.4</ele><time>2026-04-23T07:49:01.874Z</time></trkpt><trkpt lat="44.2802864" lon="11.7126236"><ele>101.6</ele><time>2026-04-23T07:49:03.873Z</time></trkpt><trkpt lat="44.2802032" lon="11.7127366"><ele>98.8</ele><time>2026-04-23T07:49:05.874Z</time></trkpt><trkpt lat="44.2801432" lon="11.7128861"><ele>96.0</ele><time>2026-04-23T07:49:07.873Z</time></trkpt><trkpt lat="44.2801485" lon="11.7130266"><ele>96.0</ele><time>2026-04-23T07:49:09.874Z</time></trkpt><trkpt lat="44.2801999" lon="11.7131868"><ele>96.0</ele><time>2026-04-23T07:49:11.873Z</time></trkpt><trkpt lat="44.2802536" lon="11.7133305"><ele>96.0</ele><time>2026-04-23T07:49:13.874Z</time></trkpt><trkpt lat="44.2802639" lon="11.7134484"><ele>96.0</ele><time>2026-04-23T07:49:15.874Z</time></trkpt><trkpt lat="44.2802274" lon="11.7135311"><ele>96.0</ele><time>2026-04-23T07:49:17.874Z</time></trkpt><trkpt lat="44.2801519" lon="11.7135424"><ele>96.0</ele><time>2026-04-23T07:49:19.874Z</time></trkpt><trkpt lat="44.2800618" lon="11.7134879"><ele>96.0</ele><time>2026-04-23T07:49:21.873Z</time></trkpt><trkpt lat="44.2799999" lon="11.7133717"><ele>96.0</ele><time>2026-04-23T07:49:23.873Z</time></trkpt><trkpt lat="44.2799107" lon="11.7132561"><ele>96.0</ele><time>2026-04-23T07:49:25.873Z</time></trkpt><trkpt lat="44.2798626" lon="11.7131899"><ele>96.0</ele><time>2026-04-23T07:49:26.873Z</time></trkpt><trkpt lat="44.2797545" lon="11.7131188"><ele>95.42857142857142</ele><time>2026-04-23T07:49:28.873Z</time></trkpt><trkpt lat="44.2796841" lon="11.7131183"><ele>94.85714285714286</ele><time>2026-04-23T07:49:29.874Z</time></trkpt><trkpt lat="44.2796144" lon="11.7131367"><ele>94.28571428571428</ele><time>2026-04-23T07:49:30.873Z</time></trkpt><trkpt lat="44.2795318" lon="11.7131666"><ele>93.71428571428571</ele><time>2026-04-23T07:49:31.874Z</time></trkpt><trkpt lat="44.2794684" lon="11.7132068"><ele>93.14285714285714</ele><time>2026-04-23T07:49:32.873Z</time></trkpt><trkpt lat="44.2794027" lon="11.7132684"><ele>92.57142857142857</ele><time>2026-04-23T07:49:33.874Z</time></trkpt><trkpt lat="44.2793411" lon="11.7132901"><ele>92.0</ele><time>2026-04-23T07:49:34.873Z</time></trkpt><trkpt lat="44.279272" lon="11.7132634"><ele>92.0</ele><time>2026-04-23T07:49:35.874Z</time></trkpt><trkpt lat="44.2791922" lon="11.7132441"><ele>92.0</ele><time>2026-04-23T07:49:36.874Z</time></trkpt><trkpt lat="44.2791126" lon="11.7132454"><ele>92.0</ele><time>2026-04-23T07:49:37.873Z</time></trkpt><trkpt lat="44.2790289" lon="11.7132646"><ele>92.0</ele><time>2026-04-23T07:49:38.873Z</time></trkpt><trkpt lat="44.2789584" lon="11.713299"><ele>92.0</ele><time>2026-04-23T07:49:39.874Z</time></trkpt><trkpt lat="44.2788731" lon="11.7133399"><ele>92.0</ele><time>2026-04-23T07:49:40.874Z</time></trkpt><trkpt lat="44.2788034" lon="11.713368"><ele>92.28571428571429</ele><time>2026-04-23T07:49:41.873Z</time></trkpt><trkpt lat="44.2787328" lon="11.7133998"><ele>92.57142857142857</ele><time>2026-04-23T07:49:42.873Z</time></trkpt><trkpt lat="44.278666" lon="11.7134363"><ele>92.85714285714286</ele><time>2026-04-23T07:49:43.873Z</time></trkpt><trkpt lat="44.2785993" lon="11.7134555"><ele>93.14285714285714</ele><time>2026-04-23T07:49:44.874Z</time></trkpt><trkpt lat="44.2785261" lon="11.7134802"><ele>93.42857142857142</ele><time>2026-04-23T07:49:45.874Z</time></trkpt><trkpt lat="44.2784546" lon="11.7134916"><ele>93.71428571428571</ele><time>2026-04-23T07:49:46.874Z</time></trkpt><trkpt lat="44.278382" lon="11.7135057"><ele>94.0</ele><time>2026-04-23T07:49:47.874Z</time></trkpt><trkpt lat="44.2783077" lon="11.7135177"><ele>94.0</ele><time>2026-04-23T07:49:48.873Z</time></trkpt><trkpt lat="44.2782279" lon="11.7135327"><ele>94.0</ele><time>2026-04-23T07:49:49.873Z</time></trkpt><trkpt lat="44.2781526" lon="11.7135458"><ele>94.0</ele><time>2026-04-23T07:49:50.873Z</time></trkpt><trkpt lat="44.2780886" lon="11.7135661"><ele>94.0</ele><time>2026-04-23T07:49:51.874Z</time></trkpt><trkpt lat="44.2780218" lon="11.7135752"><ele>94.0</ele><time>2026-04-23T07:49:52.873Z</time></trkpt><trkpt lat="44.2779091" lon="11.7136215"><ele>94.0</ele><time>2026-04-23T07:49:54.873Z</time></trkpt><trkpt lat="44.2778544" lon="11.7136666"><ele>94.0</ele><time>2026-04-23T07:49:55.873Z</time></trkpt><trkpt lat="44.2777529" lon="11.7137408"><ele>94.0</ele><time>2026-04-23T07:49:57.873Z</time></trkpt><trkpt lat="44.277658" lon="11.7138268"><ele>94.0</ele><time>2026-04-23T07:49:59.874Z</time></trkpt><trkpt lat="44.2775654" lon="11.7139454"><ele>94.0</ele><time>2026-04-23T07:50:01.873Z</time></trkpt><trkpt lat="44.277489" lon="11.7140316"><ele>94.0</ele><time>2026-04-23T07:50:03.874Z</time></trkpt><trkpt lat="44.2774101" lon="11.7141371"><ele>94.0</ele><time>2026-04-23T07:50:05.873Z</time></trkpt><trkpt lat="44.2773675" lon="11.7142066"><ele>94.0</ele><time>2026-04-23T07:50:06.874Z</time></trkpt><trkpt lat="44.2772877" lon="11.7143308"><ele>94.0</ele><time>2026-04-23T07:50:08.873Z</time></trkpt><trkpt lat="44.2772227" lon="11.7144652"><ele>94.0</ele><time>2026-04-23T07:50:10.874Z</time></trkpt><trkpt lat="44.2771631" lon="11.7145882"><ele>93.14285714285714</ele><time>2026-04-23T07:50:12.873Z</time></trkpt><trkpt lat="44.2771355" lon="11.7146745"><ele>92.28571428571428</ele><time>2026-04-23T07:50:13.873Z</time></trkpt><trkpt lat="44.2771005" lon="11.7147599"><ele>91.42857142857143</ele><time>2026-04-23T07:50:14.874Z</time></trkpt><trkpt lat="44.2770655" lon="11.7148428"><ele>90.57142857142857</ele><time>2026-04-23T07:50:15.873Z</time></trkpt><trkpt lat="44.277028" lon="11.7149278"><ele>89.71428571428571</ele><time>2026-04-23T07:50:16.874Z</time></trkpt><trkpt lat="44.2769862" lon="11.7150083"><ele>88.85714285714286</ele><time>2026-04-23T07:50:17.873Z</time></trkpt><trkpt lat="44.2769484" lon="11.7150949"><ele>88.0</ele><time>2026-04-23T07:50:18.874Z</time></trkpt><trkpt lat="44.2769153" lon="11.7151755"><ele>88.0</ele><time>2026-04-23T07:50:19.873Z</time></trkpt><trkpt lat="44.2768804" lon="11.7152761"><ele>88.0</ele><time>2026-04-23T07:50:20.873Z</time></trkpt><trkpt lat="44.276854" lon="11.7153741"><ele>88.0</ele><time>2026-04-23T07:50:21.874Z</time></trkpt><trkpt lat="44.2768329" lon="11.7154719"><ele>88.0</ele><time>2026-04-23T07:50:22.873Z</time></trkpt><trkpt lat="44.2768169" lon="11.7155702"><ele>88.0</ele><time>2026-04-23T07:50:23.873Z</time></trkpt><trkpt lat="44.2768001" lon="11.7156675"><ele>88.0</ele><time>2026-04-23T07:50:24.874Z</time></trkpt><trkpt lat="44.2767573" lon="11.7158352"><ele>88.0</ele><time>2026-04-23T07:50:26.874Z</time></trkpt><trkpt lat="44.2767232" lon="11.7159155"><ele>88.0</ele><time>2026-04-23T07:50:27.874Z</time></trkpt><trkpt lat="44.2766265" lon="11.7160275"><ele>88.0</ele><time>2026-04-23T07:50:29.873Z</time></trkpt><trkpt lat="44.2765631" lon="11.7160441"><ele>88.0</ele><time>2026-04-23T07:50:30.873Z</time></trkpt><trkpt lat="44.2764988" lon="11.716045"><ele>88.0</ele><time>2026-04-23T07:50:31.873Z</time></trkpt><trkpt lat="44.2764305" lon="11.7160497"><ele>88.0</ele><time>2026-04-23T07:50:32.874Z</time></trkpt><trkpt lat="44.276302" lon="11.7160803"><ele>88.2</ele><time>2026-04-23T07:50:34.874Z</time></trkpt><trkpt lat="44.2761851" lon="11.7161141"><ele>88.4</ele><time>2026-04-23T07:50:36.874Z</time></trkpt><trkpt lat="44.2761244" lon="11.7161507"><ele>88.60000000000001</ele><time>2026-04-23T07:50:37.874Z</time></trkpt><trkpt lat="44.2760202" lon="11.7162197"><ele>88.80000000000001</ele><time>2026-04-23T07:50:39.874Z</time></trkpt><trkpt lat="44.2759219" lon="11.7163038"><ele>89.0</ele><time>2026-04-23T07:50:41.874Z</time></trkpt><trkpt lat="44.2758325" lon="11.7163721"><ele>89.0</ele><time>2026-04-23T07:50:43.874Z</time></trkpt><trkpt lat="44.275736" lon="11.7164462"><ele>89.0</ele><time>2026-04-23T07:50:45.873Z</time></trkpt><trkpt lat="44.2756528" lon="11.7165357"><ele>89.0</ele><time>2026-04-23T07:50:47.874Z</time></trkpt><trkpt lat="44.2755725" lon="11.7166341"><ele>89.0</ele><time>2026-04-23T07:50:49.874Z</time></trkpt><trkpt lat="44.27549" lon="11.7167028"><ele>89.0</ele><time>2026-04-23T07:50:51.873Z</time></trkpt><trkpt lat="44.2754152" lon="11.7167869"><ele>89.0</ele><time>2026-04-23T07:50:53.874Z</time></trkpt><trkpt lat="44.2753431" lon="11.7168778"><ele>89.0</ele><time>2026-04-23T07:50:55.873Z</time></trkpt><trkpt lat="44.2752622" lon="11.7169595"><ele>89.0</ele><time>2026-04-23T07:50:57.873Z</time></trkpt><trkpt lat="44.275191" lon="11.7170417"><ele>89.0</ele><time>2026-04-23T07:50:59.873Z</time></trkpt><trkpt lat="44.27513" lon="11.7171358"><ele>89.0</ele><time>2026-04-23T07:51:01.874Z</time></trkpt><trkpt lat="44.2750678" lon="11.7172744"><ele>87.6</ele><time>2026-04-23T07:51:03.874Z</time></trkpt><trkpt lat="44.2750056" lon="11.7173926"><ele>86.2</ele><time>2026-04-23T07:51:05.874Z</time></trkpt><trkpt lat="44.274952" lon="11.717513"><ele>84.8</ele><time>2026-04-23T07:51:07.873Z</time></trkpt><trkpt lat="44.2748816" lon="11.7176196"><ele>83.39999999999999</ele><time>2026-04-23T07:51:09.874Z</time></trkpt><trkpt lat="44.2748206" lon="11.717717"><ele>82.0</ele><time>2026-04-23T07:51:11.873Z</time></trkpt><trkpt lat="44.2747391" lon="11.7178096"><ele>80.33333333333333</ele><time>2026-04-23T07:51:13.873Z</time></trkpt><trkpt lat="44.2746655" lon="11.7178943"><ele>78.66666666666666</ele><time>2026-04-23T07:51:15.874Z</time></trkpt><trkpt lat="44.274601" lon="11.7179616"><ele>77.0</ele><time>2026-04-23T07:51:17.873Z</time></trkpt><trkpt lat="44.274542" lon="11.7180233"><ele>75.33333333333333</ele><time>2026-04-23T07:51:19.873Z</time></trkpt><trkpt lat="44.2744916" lon="11.7180784"><ele>73.66666666666667</ele><time>2026-04-23T07:51:21.874Z</time></trkpt><trkpt lat="44.2744252" lon="11.7180459"><ele>72.0</ele><time>2026-04-23T07:51:24.874Z</time></trkpt><trkpt lat="44.2744024" lon="11.7179346"><ele>72.0</ele><time>2026-04-23T07:51:27.873Z</time></trkpt><trkpt lat="44.2743876" lon="11.7178479"><ele>72.0</ele><time>2026-04-23T07:51:29.874Z</time></trkpt><trkpt lat="44.2743291" lon="11.7177736"><ele>72.0</ele><time>2026-04-23T07:51:32.874Z</time></trkpt><trkpt lat="44.2742536" lon="11.7177611"><ele>72.0</ele><time>2026-04-23T07:51:35.889Z</time></trkpt><trkpt lat="44.274161" lon="11.7178091"><ele>72.0</ele><time>2026-04-23T07:51:38.874Z</time></trkpt><trkpt lat="44.2740894" lon="11.7178412"><ele>72.0</ele><time>2026-04-23T07:51:40.874Z</time></trkpt><trkpt lat="44.2740296" lon="11.7178771"><ele>72.0</ele><time>2026-04-23T07:51:42.873Z</time></trkpt><trkpt lat="44.2739608" lon="11.7178918"><ele>72.0</ele><time>2026-04-23T07:51:45.873Z</time></trkpt><trkpt lat="44.2740322" lon="11.7178996"><ele>72.0</ele><time>2026-04-23T07:51:54.915Z</time></trkpt><trkpt lat="44.2741087" lon="11.7178559"><ele>72.0</ele><time>2026-04-23T07:51:56.873Z</time></trkpt><trkpt lat="44.2741862" lon="11.7178381"><ele>72.0</ele><time>2026-04-23T07:51:58.873Z</time></trkpt><trkpt lat="44.2742657" lon="11.717812"><ele>72.0</ele><time>2026-04-23T07:52:00.874Z</time></trkpt><trkpt lat="44.2743323" lon="11.7178273"><ele>72.0</ele><time>2026-04-23T07:52:02.873Z</time></trkpt><trkpt lat="44.2743767" lon="11.7179057"><ele>72.0</ele><time>2026-04-23T07:52:04.777Z</time></trkpt><trkpt lat="44.274411" lon="11.7180086"><ele>72.0</ele><time>2026-04-23T07:52:06.892Z</time></trkpt><trkpt lat="44.2744357" lon="11.7181202"><ele>72.0</ele><time>2026-04-23T07:52:08.873Z</time></trkpt><trkpt lat="44.2744447" lon="11.718234"><ele>72.0</ele><time>2026-04-23T07:52:10.873Z</time></trkpt><trkpt lat="44.274433" lon="11.7183597"><ele>72.0</ele><time>2026-04-23T07:52:12.873Z</time></trkpt><trkpt lat="44.2744166" lon="11.7184807"><ele>72.4</ele><time>2026-04-23T07:52:14.874Z</time></trkpt><trkpt lat="44.2743963" lon="11.7186166"><ele>72.80000000000001</ele><time>2026-04-23T07:52:16.874Z</time></trkpt><trkpt lat="44.2743745" lon="11.7187634"><ele>73.2</ele><time>2026-04-23T07:52:18.874Z</time></trkpt><trkpt lat="44.2743529" lon="11.7189067"><ele>73.60000000000001</ele><time>2026-04-23T07:52:20.873Z</time></trkpt><trkpt lat="44.2743359" lon="11.7190409"><ele>74.0</ele><time>2026-04-23T07:52:22.874Z</time></trkpt><trkpt lat="44.2743311" lon="11.7191698"><ele>74.0</ele><time>2026-04-23T07:52:24.873Z</time></trkpt><trkpt lat="44.2743231" lon="11.7192988"><ele>74.0</ele><time>2026-04-23T07:52:26.873Z</time></trkpt><trkpt lat="44.2743158" lon="11.7194248"><ele>74.0</ele><time>2026-04-23T07:52:28.874Z</time></trkpt><trkpt lat="44.2742951" lon="11.7195606"><ele>74.0</ele><time>2026-04-23T07:52:30.873Z</time></trkpt><trkpt lat="44.2742831" lon="11.7196932"><ele>74.0</ele><time>2026-04-23T07:52:32.874Z</time></trkpt><trkpt lat="44.274267" lon="11.7198207"><ele>73.8</ele><time>2026-04-23T07:52:34.873Z</time></trkpt><trkpt lat="44.2742593" lon="11.7199415"><ele>73.60000000000001</ele><time>2026-04-23T07:52:36.873Z</time></trkpt><trkpt lat="44.2742416" lon="11.7200695"><ele>73.4</ele><time>2026-04-23T07:52:38.873Z</time></trkpt><trkpt lat="44.2742272" lon="11.7201938"><ele>73.2</ele><time>2026-04-23T07:52:40.874Z</time></trkpt><trkpt lat="44.2742153" lon="11.7203308"><ele>73.0</ele><time>2026-04-23T07:52:42.873Z</time></trkpt><trkpt lat="44.2742042" lon="11.7204615"><ele>73.0</ele><time>2026-04-23T07:52:44.873Z</time></trkpt><trkpt lat="44.2741982" lon="11.7205973"><ele>73.0</ele><time>2026-04-23T07:52:46.873Z</time></trkpt><trkpt lat="44.2741804" lon="11.7207341"><ele>73.0</ele><time>2026-04-23T07:52:48.873Z</time></trkpt><trkpt lat="44.2741621" lon="11.7208535"><ele>73.0</ele><time>2026-04-23T07:52:50.874Z</time></trkpt><trkpt lat="44.2741342" lon="11.7209775"><ele>73.0</ele><time>2026-04-23T07:52:52.873Z</time></trkpt><trkpt lat="44.2741162" lon="11.7211144"><ele>73.83333333333333</ele><time>2026-04-23T07:52:54.874Z</time></trkpt><trkpt lat="44.2741093" lon="11.7212389"><ele>74.66666666666666</ele><time>2026-04-23T07:52:56.873Z</time></trkpt><trkpt lat="44.2741019" lon="11.7213652"><ele>75.5</ele><time>2026-04-23T07:52:58.874Z</time></trkpt><trkpt lat="44.2740956" lon="11.7214888"><ele>76.33333333333333</ele><time>2026-04-23T07:53:00.874Z</time></trkpt><trkpt lat="44.274083" lon="11.7215914"><ele>77.16666666666667</ele><time>2026-04-23T07:53:02.873Z</time></trkpt><trkpt lat="44.2740685" lon="11.7216851"><ele>78.0</ele><time>2026-04-23T07:53:04.874Z</time></trkpt><trkpt lat="44.2740634" lon="11.7217747"><ele>78.0</ele><time>2026-04-23T07:53:06.874Z</time></trkpt><trkpt lat="44.2740446" lon="11.7218905"><ele>78.0</ele><time>2026-04-23T07:53:09.874Z</time></trkpt><trkpt lat="44.2740977" lon="11.7219721"><ele>78.0</ele><time>2026-04-23T07:53:12.874Z</time></trkpt><trkpt lat="44.2741812" lon="11.722008"><ele>78.0</ele><time>2026-04-23T07:53:15.873Z</time></trkpt><trkpt lat="44.2742358" lon="11.7220985"><ele>78.0</ele><time>2026-04-23T07:53:18.874Z</time></trkpt><trkpt lat="44.2742817" lon="11.7221976"><ele>78.0</ele><time>2026-04-23T07:53:21.874Z</time></trkpt><trkpt lat="44.2743171" lon="11.7222974"><ele>77.83333333333333</ele><time>2026-04-23T07:53:24.873Z</time></trkpt><trkpt lat="44.2743606" lon="11.722378"><ele>77.66666666666667</ele><time>2026-04-23T07:53:27.874Z</time></trkpt><trkpt lat="44.2743999" lon="11.7224596"><ele>77.5</ele><time>2026-04-23T07:53:30.874Z</time></trkpt><trkpt lat="44.2744425" lon="11.7225565"><ele>77.33333333333334</ele><time>2026-04-23T07:53:33.874Z</time></trkpt><trkpt lat="44.2744822" lon="11.7226694"><ele>77.16666666666667</ele><time>2026-04-23T07:53:37.874Z</time></trkpt><trkpt lat="44.274527" lon="11.7227625"><ele>77.0</ele><time>2026-04-23T07:53:40.874Z</time></trkpt><trkpt lat="44.2745927" lon="11.7227976"><ele>77.0</ele><time>2026-04-23T07:53:43.874Z</time></trkpt><trkpt lat="44.2746643" lon="11.7227863"><ele>77.0</ele><time>2026-04-23T07:53:46.842Z</time></trkpt><trkpt lat="44.2747478" lon="11.7227486"><ele>77.0</ele><time>2026-04-23T07:53:49.729Z</time></trkpt><trkpt lat="44.2748271" lon="11.7227511"><ele>77.0</ele><time>2026-04-23T07:53:51.807Z</time></trkpt><trkpt lat="44.2748966" lon="11.7227501"><ele>77.0</ele><time>2026-04-23T07:53:54.821Z</time></trkpt><trkpt lat="44.2749848" lon="11.7227254"><ele>77.0</ele><time>2026-04-23T07:53:57.873Z</time></trkpt><trkpt lat="44.2750487" lon="11.7227439"><ele>79.28571428571429</ele><time>2026-04-23T07:54:00.873Z</time></trkpt><trkpt lat="44.2751214" lon="11.72276"><ele>81.57142857142857</ele><time>2026-04-23T07:54:05.873Z</time></trkpt><trkpt lat="44.2752099" lon="11.7227603"><ele>83.85714285714286</ele><time>2026-04-23T07:54:09.873Z</time></trkpt><trkpt lat="44.2752734" lon="11.7227639"><ele>86.14285714285714</ele><time>2026-04-23T07:54:11.873Z</time></trkpt><trkpt lat="44.2753359" lon="11.7227483"><ele>88.42857142857143</ele><time>2026-04-23T07:54:15.877Z</time></trkpt><trkpt lat="44.2753906" lon="11.7226856"><ele>90.71428571428572</ele><time>2026-04-23T07:54:19.906Z</time></trkpt><trkpt lat="44.2754517" lon="11.7226512"><ele>93.0</ele><time>2026-04-23T07:54:22.873Z</time></trkpt><trkpt lat="44.2755435" lon="11.722617"><ele>94.33333333333333</ele><time>2026-04-23T07:54:25.873Z</time></trkpt><trkpt lat="44.2756269" lon="11.7225855"><ele>95.66666666666666</ele><time>2026-04-23T07:54:27.874Z</time></trkpt><trkpt lat="44.2757067" lon="11.7225595"><ele>97.0</ele><time>2026-04-23T07:54:30.879Z</time></trkpt><trkpt lat="44.2757796" lon="11.7225337"><ele>98.33333333333333</ele><time>2026-04-23T07:54:33.825Z</time></trkpt><trkpt lat="44.2758418" lon="11.7225079"><ele>99.66666666666666</ele><time>2026-04-23T07:54:37.874Z</time></trkpt><trkpt lat="44.275917" lon="11.7224482"><ele>101.0</ele><time>2026-04-23T07:54:40.874Z</time></trkpt><trkpt lat="44.2760915" lon="11.722377"><ele>101.0</ele><time>2026-04-23T07:54:42.873Z</time></trkpt><trkpt lat="44.2761811" lon="11.72233"><ele>101.0</ele><time>2026-04-23T07:54:43.874Z</time></trkpt><trkpt lat="44.2762529" lon="11.7222948"><ele>101.0</ele><time>2026-04-23T07:54:44.874Z</time></trkpt><trkpt lat="44.2763611" lon="11.7222327"><ele>101.0</ele><time>2026-04-23T07:54:46.873Z</time></trkpt><trkpt lat="44.2764825" lon="11.7221516"><ele>101.0</ele><time>2026-04-23T07:54:48.874Z</time></trkpt><trkpt lat="44.2765892" lon="11.7220781"><ele>101.0</ele><time>2026-04-23T07:54:50.873Z</time></trkpt><trkpt lat="44.2766759" lon="11.7219818"><ele>101.0</ele><time>2026-04-23T07:54:52.873Z</time></trkpt><trkpt lat="44.2767283" lon="11.7218511"><ele>101.0</ele><time>2026-04-23T07:54:54.873Z</time></trkpt><trkpt lat="44.2768173" lon="11.7217667"><ele>101.0</ele><time>2026-04-23T07:54:56.873Z</time></trkpt><trkpt lat="44.2769084" lon="11.7217107"><ele>101.0</ele><time>2026-04-23T07:54:58.874Z</time></trkpt><trkpt lat="44.2770041" lon="11.7216634"><ele>100.99999999999999</ele><time>2026-04-23T07:55:00.874Z</time></trkpt><trkpt lat="44.2770979" lon="11.7216154"><ele>101.0</ele><time>2026-04-23T07:55:02.873Z</time></trkpt><trkpt lat="44.2771805" lon="11.7215738"><ele>101.0</ele><time>2026-04-23T07:55:04.873Z</time></trkpt><trkpt lat="44.2772525" lon="11.721536"><ele>101.0</ele><time>2026-04-23T07:55:06.874Z</time></trkpt><trkpt lat="44.2773222" lon="11.7214973"><ele>100.99999999999999</ele><time>2026-04-23T07:55:08.874Z</time></trkpt><trkpt lat="44.277402" lon="11.7214646"><ele>101.0</ele><time>2026-04-23T07:55:10.873Z</time></trkpt><trkpt lat="44.2774829" lon="11.7214293"><ele>101.0</ele><time>2026-04-23T07:55:12.874Z</time></trkpt><trkpt lat="44.277573" lon="11.7213762"><ele>101.0</ele><time>2026-04-23T07:55:15.873Z</time></trkpt><trkpt lat="44.2776368" lon="11.7213353"><ele>101.0</ele><time>2026-04-23T07:55:17.874Z</time></trkpt><trkpt lat="44.2776739" lon="11.72125"><ele>101.0</ele><time>2026-04-23T07:55:19.874Z</time></trkpt><trkpt lat="44.2776759" lon="11.7211493"><ele>101.0</ele><time>2026-04-23T07:55:21.874Z</time></trkpt><trkpt lat="44.2776853" lon="11.7210622"><ele>101.0</ele><time>2026-04-23T07:55:23.873Z</time></trkpt><trkpt lat="44.2777452" lon="11.7210164"><ele>101.0</ele><time>2026-04-23T07:55:25.874Z</time></trkpt><trkpt lat="44.2778054" lon="11.720984"><ele>101.33333333333333</ele><time>2026-04-23T07:55:27.874Z</time></trkpt><trkpt lat="44.2778828" lon="11.7209377"><ele>101.66666666666666</ele><time>2026-04-23T07:55:30.873Z</time></trkpt><trkpt lat="44.2779539" lon="11.7208832"><ele>102.0</ele><time>2026-04-23T07:55:33.874Z</time></trkpt><trkpt lat="44.2780167" lon="11.7208366"><ele>102.33333333333334</ele><time>2026-04-23T07:55:36.873Z</time></trkpt><trkpt lat="44.2780985" lon="11.7208415"><ele>102.66666666666667</ele><time>2026-04-23T07:55:40.874Z</time></trkpt><trkpt lat="44.278117" lon="11.7209353"><ele>103.0</ele><time>2026-04-23T07:55:50.874Z</time></trkpt><trkpt lat="44.2781647" lon="11.7209943"><ele>103.66666666666667</ele><time>2026-04-23T07:55:53.874Z</time></trkpt><trkpt lat="44.2782128" lon="11.7211096"><ele>104.33333333333334</ele><time>2026-04-23T07:55:56.873Z</time></trkpt><trkpt lat="44.2782474" lon="11.7211946"><ele>105.0</ele><time>2026-04-23T07:55:58.873Z</time></trkpt><trkpt lat="44.278274" lon="11.7213059"><ele>105.66666666666666</ele><time>2026-04-23T07:56:00.874Z</time></trkpt><trkpt lat="44.2783" lon="11.7214108"><ele>106.33333333333333</ele><time>2026-04-23T07:56:03.873Z</time></trkpt><trkpt lat="44.2783299" lon="11.7214909"><ele>107.0</ele><time>2026-04-23T07:56:06.873Z</time></trkpt><trkpt lat="44.2783504" lon="11.7215751"><ele>106.99999999999999</ele><time>2026-04-23T07:56:09.873Z</time></trkpt><trkpt lat="44.2783739" lon="11.7216859"><ele>107.0</ele><time>2026-04-23T07:56:12.874Z</time></trkpt><trkpt lat="44.2783857" lon="11.7217816"><ele>107.0</ele><time>2026-04-23T07:56:14.873Z</time></trkpt><trkpt lat="44.2784115" lon="11.7218996"><ele>107.0</ele><time>2026-04-23T07:56:16.873Z</time></trkpt><trkpt lat="44.2784243" lon="11.7220184"><ele>106.99999999999999</ele><time>2026-04-23T07:56:18.874Z</time></trkpt><trkpt lat="44.2784479" lon="11.7221181"><ele>107.0</ele><time>2026-04-23T07:56:20.874Z</time></trkpt><trkpt lat="44.2784795" lon="11.7222187"><ele>107.00000000000001</ele><time>2026-04-23T07:56:22.873Z</time></trkpt><trkpt lat="44.2784968" lon="11.7223216"><ele>107.0</ele><time>2026-04-23T07:56:24.874Z</time></trkpt><trkpt lat="44.2785176" lon="11.7224181"><ele>107.0</ele><time>2026-04-23T07:56:26.873Z</time></trkpt><trkpt lat="44.2785447" lon="11.7225189"><ele>107.0</ele><time>2026-04-23T07:56:28.874Z</time></trkpt><trkpt lat="44.2785587" lon="11.7226088"><ele>107.0</ele><time>2026-04-23T07:56:30.874Z</time></trkpt><trkpt lat="44.2785657" lon="11.7226989"><ele>107.00000000000001</ele><time>2026-04-23T07:56:32.873Z</time></trkpt><trkpt lat="44.2785188" lon="11.7227712"><ele>107.0</ele><time>2026-04-23T07:56:34.873Z</time></trkpt><trkpt lat="44.2784222" lon="11.7228002"><ele>106.99999999999999</ele><time>2026-04-23T07:56:36.874Z</time></trkpt><trkpt lat="44.2783071" lon="11.7228575"><ele>107.0</ele><time>2026-04-23T07:56:38.873Z</time></trkpt><trkpt lat="44.2782397" lon="11.7228833"><ele>107.0</ele><time>2026-04-23T07:56:39.874Z</time></trkpt><trkpt lat="44.2781748" lon="11.7229046"><ele>107.0</ele><time>2026-04-23T07:56:40.873Z</time></trkpt><trkpt lat="44.2780666" lon="11.7229243"><ele>106.99999999999999</ele><time>2026-04-23T07:56:42.874Z</time></trkpt><trkpt lat="44.2779865" lon="11.7229197"><ele>107.0</ele><time>2026-04-23T07:56:44.873Z</time></trkpt><trkpt lat="44.277919" lon="11.7229331"><ele>106.33333333333333</ele><time>2026-04-23T07:56:46.873Z</time></trkpt><trkpt lat="44.2778531" lon="11.7229431"><ele>105.66666666666666</ele><time>2026-04-23T07:56:48.873Z</time></trkpt><trkpt lat="44.2777745" lon="11.7229334"><ele>105.0</ele><time>2026-04-23T07:56:50.874Z</time></trkpt><trkpt lat="44.2777011" lon="11.7229434"><ele>104.33333333333334</ele><time>2026-04-23T07:56:52.874Z</time></trkpt><trkpt lat="44.2776183" lon="11.7229619"><ele>103.66666666666667</ele><time>2026-04-23T07:56:54.874Z</time></trkpt><trkpt lat="44.2775302" lon="11.7230004"><ele>103.0</ele><time>2026-04-23T07:56:56.873Z</time></trkpt><trkpt lat="44.277467" lon="11.7230251"><ele>103.0</ele><time>2026-04-23T07:56:58.873Z</time></trkpt><trkpt lat="44.2773802" lon="11.7230392"><ele>103.0</ele><time>2026-04-23T07:57:01.874Z</time></trkpt><trkpt lat="44.2773051" lon="11.7230389"><ele>103.0</ele><time>2026-04-23T07:57:03.874Z</time></trkpt><trkpt lat="44.2772112" lon="11.7230637"><ele>103.0</ele><time>2026-04-23T07:57:05.873Z</time></trkpt><trkpt lat="44.2771095" lon="11.7230858"><ele>103.0</ele><time>2026-04-23T07:57:07.874Z</time></trkpt><trkpt lat="44.27701" lon="11.7230856"><ele>102.66666666666667</ele><time>2026-04-23T07:57:09.874Z</time></trkpt><trkpt lat="44.2769244" lon="11.7230923"><ele>102.33333333333334</ele><time>2026-04-23T07:57:11.874Z</time></trkpt><trkpt lat="44.2768326" lon="11.7231071"><ele>102.0</ele><time>2026-04-23T07:57:13.873Z</time></trkpt><trkpt lat="44.2767476" lon="11.723106"><ele>101.66666666666666</ele><time>2026-04-23T07:57:15.873Z</time></trkpt><trkpt lat="44.2766684" lon="11.7231076"><ele>101.33333333333333</ele><time>2026-04-23T07:57:17.874Z</time></trkpt><trkpt lat="44.2765812" lon="11.723094"><ele>101.0</ele><time>2026-04-23T07:57:19.874Z</time></trkpt><trkpt lat="44.2764767" lon="11.7230848"><ele>100.8</ele><time>2026-04-23T07:57:21.874Z</time></trkpt><trkpt lat="44.2763711" lon="11.7230698"><ele>100.6</ele><time>2026-04-23T07:57:23.873Z</time></trkpt><trkpt lat="44.2762759" lon="11.7230512"><ele>100.4</ele><time>2026-04-23T07:57:25.873Z</time></trkpt><trkpt lat="44.2761864" lon="11.7230422"><ele>100.2</ele><time>2026-04-23T07:57:27.874Z</time></trkpt><trkpt lat="44.2761071" lon="11.7230274"><ele>100.0</ele><time>2026-04-23T07:57:29.873Z</time></trkpt><trkpt lat="44.2760178" lon="11.7230059"><ele>100.00000000000001</ele><time>2026-04-23T07:57:31.874Z</time></trkpt><trkpt lat="44.2759324" lon="11.7229964"><ele>100.0</ele><time>2026-04-23T07:57:33.874Z</time></trkpt><trkpt lat="44.2758458" lon="11.7229983"><ele>100.0</ele><time>2026-04-23T07:57:35.874Z</time></trkpt><trkpt lat="44.2757747" lon="11.72298"><ele>100.0</ele><time>2026-04-23T07:57:37.874Z</time></trkpt><trkpt lat="44.2757" lon="11.7229551"><ele>100.00000000000001</ele><time>2026-04-23T07:57:39.873Z</time></trkpt><trkpt lat="44.2756291" lon="11.7229536"><ele>100.0</ele><time>2026-04-23T07:57:41.874Z</time></trkpt><trkpt lat="44.2755578" lon="11.7229828"><ele>98.83333333333334</ele><time>2026-04-23T07:57:43.874Z</time></trkpt><trkpt lat="44.2754782" lon="11.7230073"><ele>97.66666666666667</ele><time>2026-04-23T07:57:46.873Z</time></trkpt><trkpt lat="44.2754227" lon="11.7229634"><ele>96.5</ele><time>2026-04-23T07:57:50.873Z</time></trkpt><trkpt lat="44.2753921" lon="11.7228736"><ele>95.33333333333334</ele><time>2026-04-23T07:57:53.872Z</time></trkpt><trkpt lat="44.2753704" lon="11.7227655"><ele>94.16666666666667</ele><time>2026-04-23T07:57:56.872Z</time></trkpt><trkpt lat="44.2752818" lon="11.7227509"><ele>93.0</ele><time>2026-04-23T07:58:00.873Z</time></trkpt><trkpt lat="44.2752013" lon="11.7227507"><ele>93.66666666666667</ele><time>2026-04-23T07:58:03.873Z</time></trkpt><trkpt lat="44.2751275" lon="11.7227298"><ele>94.33333333333334</ele><time>2026-04-23T07:58:05.873Z</time></trkpt><trkpt lat="44.2750475" lon="11.722668"><ele>95.0</ele><time>2026-04-23T07:58:07.872Z</time></trkpt><trkpt lat="44.2749778" lon="11.722645"><ele>95.66666666666667</ele><time>2026-04-23T07:58:09.872Z</time></trkpt><trkpt lat="44.2748818" lon="11.7226642"><ele>96.33333333333334</ele><time>2026-04-23T07:58:11.873Z</time></trkpt><trkpt lat="44.2747975" lon="11.72268"><ele>97.0</ele><time>2026-04-23T07:58:13.873Z</time></trkpt><trkpt lat="44.2747107" lon="11.72271"><ele>94.16666666666667</ele><time>2026-04-23T07:58:15.872Z</time></trkpt><trkpt lat="44.2746245" lon="11.7227467"><ele>91.33333333333334</ele><time>2026-04-23T07:58:17.873Z</time></trkpt><trkpt lat="44.274558" lon="11.7227729"><ele>88.5</ele><time>2026-04-23T07:58:19.873Z</time></trkpt><trkpt lat="44.2744692" lon="11.7227406"><ele>85.66666666666667</ele><time>2026-04-23T07:58:22.872Z</time></trkpt><trkpt lat="44.2744247" lon="11.7226058"><ele>82.83333333333334</ele><time>2026-04-23T07:58:24.873Z</time></trkpt><trkpt lat="44.2743812" lon="11.7225192"><ele>80.0</ele><time>2026-04-23T07:58:25.872Z</time></trkpt><trkpt lat="44.274337" lon="11.722366"><ele>80.0</ele><time>2026-04-23T07:58:27.873Z</time></trkpt><trkpt lat="44.2742953" lon="11.7222547"><ele>80.0</ele><time>2026-04-23T07:58:29.872Z</time></trkpt><trkpt lat="44.2742619" lon="11.7221565"><ele>80.0</ele><time>2026-04-23T07:58:31.873Z</time></trkpt><trkpt lat="44.2742243" lon="11.7220811"><ele>80.0</ele><time>2026-04-23T07:58:33.872Z</time></trkpt><trkpt lat="44.2741777" lon="11.7220102"><ele>80.0</ele><time>2026-04-23T07:58:36.872Z</time></trkpt><trkpt lat="44.2741058" lon="11.7219768"><ele>80.0</ele><time>2026-04-23T07:58:39.872Z</time></trkpt><trkpt lat="44.2740354" lon="11.7220041"><ele>80.0</ele><time>2026-04-23T07:58:41.873Z</time></trkpt><trkpt lat="44.2739838" lon="11.722069"><ele>80.0</ele><time>2026-04-23T07:58:43.873Z</time></trkpt><trkpt lat="44.2739135" lon="11.7221148"><ele>80.0</ele><time>2026-04-23T07:58:45.873Z</time></trkpt><trkpt lat="44.273834" lon="11.7221493"><ele>80.0</ele><time>2026-04-23T07:58:47.873Z</time></trkpt><trkpt lat="44.2737545" lon="11.722178"><ele>80.0</ele><time>2026-04-23T07:58:49.872Z</time></trkpt><trkpt lat="44.2736716" lon="11.7221767"><ele>80.0</ele><time>2026-04-23T07:58:51.872Z</time></trkpt><trkpt lat="44.2735824" lon="11.7221443"><ele>78.0</ele><time>2026-04-23T07:58:53.873Z</time></trkpt><trkpt lat="44.2734864" lon="11.7220789"><ele>76.0</ele><time>2026-04-23T07:58:55.873Z</time></trkpt><trkpt lat="44.2733897" lon="11.7220073"><ele>74.0</ele><time>2026-04-23T07:58:57.872Z</time></trkpt><trkpt lat="44.2732981" lon="11.7219436"><ele>72.0</ele><time>2026-04-23T07:58:59.872Z</time></trkpt><trkpt lat="44.2732073" lon="11.721869"><ele>70.0</ele><time>2026-04-23T07:59:01.872Z</time></trkpt><trkpt lat="44.2731193" lon="11.721804"><ele>70.4</ele><time>2026-04-23T07:59:03.872Z</time></trkpt><trkpt lat="44.2730271" lon="11.7217408"><ele>70.8</ele><time>2026-04-23T07:59:05.873Z</time></trkpt><trkpt lat="44.2729337" lon="11.7216575"><ele>71.2</ele><time>2026-04-23T07:59:07.873Z</time></trkpt><trkpt lat="44.2728458" lon="11.7215619"><ele>71.6</ele><time>2026-04-23T07:59:09.872Z</time></trkpt><trkpt lat="44.2727507" lon="11.7214606"><ele>72.0</ele><time>2026-04-23T07:59:11.872Z</time></trkpt><trkpt lat="44.2726496" lon="11.7213712"><ele>72.0</ele><time>2026-04-23T07:59:13.873Z</time></trkpt><trkpt lat="44.2725548" lon="11.7212919"><ele>72.0</ele><time>2026-04-23T07:59:15.873Z</time></trkpt><trkpt lat="44.2724662" lon="11.7212035"><ele>72.0</ele><time>2026-04-23T07:59:17.872Z</time></trkpt><trkpt lat="44.2723716" lon="11.7211408"><ele>72.0</ele><time>2026-04-23T07:59:19.873Z</time></trkpt><trkpt lat="44.2722536" lon="11.7211377"><ele>72.0</ele><time>2026-04-23T07:59:21.872Z</time></trkpt><trkpt lat="44.2721551" lon="11.721229"><ele>72.0</ele><time>2026-04-23T07:59:23.872Z</time></trkpt><trkpt lat="44.2720767" lon="11.7213589"><ele>72.0</ele><time>2026-04-23T07:59:25.873Z</time></trkpt><trkpt lat="44.2720368" lon="11.7214316"><ele>72.0</ele><time>2026-04-23T07:59:26.872Z</time></trkpt><trkpt lat="44.2719651" lon="11.721563"><ele>72.0</ele><time>2026-04-23T07:59:28.872Z</time></trkpt><trkpt lat="44.2718881" lon="11.7216774"><ele>72.0</ele><time>2026-04-23T07:59:30.873Z</time></trkpt><trkpt lat="44.2718161" lon="11.7217845"><ele>72.0</ele><time>2026-04-23T07:59:32.872Z</time></trkpt><trkpt lat="44.2717378" lon="11.721898"><ele>72.0</ele><time>2026-04-23T07:59:34.872Z</time></trkpt><trkpt lat="44.2716652" lon="11.7220104"><ele>72.0</ele><time>2026-04-23T07:59:36.872Z</time></trkpt><trkpt lat="44.2715984" lon="11.7221137"><ele>72.0</ele><time>2026-04-23T07:59:38.873Z</time></trkpt><trkpt lat="44.2715384" lon="11.7222235"><ele>72.0</ele><time>2026-04-23T07:59:40.873Z</time></trkpt><trkpt lat="44.2714736" lon="11.7223336"><ele>71.5</ele><time>2026-04-23T07:59:42.873Z</time></trkpt><trkpt lat="44.2714114" lon="11.7224466"><ele>71.0</ele><time>2026-04-23T07:59:44.872Z</time></trkpt><trkpt lat="44.2713505" lon="11.7225822"><ele>70.5</ele><time>2026-04-23T07:59:46.872Z</time></trkpt><trkpt lat="44.2712885" lon="11.7227192"><ele>70.0</ele><time>2026-04-23T07:59:48.873Z</time></trkpt><trkpt lat="44.2712244" lon="11.7228586"><ele>70.0</ele><time>2026-04-23T07:59:50.873Z</time></trkpt><trkpt lat="44.2711694" lon="11.7230101"><ele>70.0</ele><time>2026-04-23T07:59:52.873Z</time></trkpt><trkpt lat="44.2711225" lon="11.7231578"><ele>70.0</ele><time>2026-04-23T07:59:54.872Z</time></trkpt><trkpt lat="44.2710708" lon="11.7232923"><ele>70.0</ele><time>2026-04-23T07:59:56.873Z</time></trkpt><trkpt lat="44.2710193" lon="11.7234301"><ele>69.5</ele><time>2026-04-23T07:59:58.872Z</time></trkpt><trkpt lat="44.2709665" lon="11.7235749"><ele>69.0</ele><time>2026-04-23T08:00:00.872Z</time></trkpt><trkpt lat="44.270911" lon="11.7237264"><ele>68.5</ele><time>2026-04-23T08:00:02.872Z</time></trkpt><trkpt lat="44.2708599" lon="11.7238754"><ele>68.0</ele><time>2026-04-23T08:00:04.872Z</time></trkpt><trkpt lat="44.2708084" lon="11.7240178"><ele>68.0</ele><time>2026-04-23T08:00:06.872Z</time></trkpt><trkpt lat="44.2707603" lon="11.7241732"><ele>68.0</ele><time>2026-04-23T08:00:08.872Z</time></trkpt><trkpt lat="44.2707051" lon="11.7243195"><ele>68.0</ele><time>2026-04-23T08:00:10.873Z</time></trkpt><trkpt lat="44.2706515" lon="11.7244687"><ele>68.0</ele><time>2026-04-23T08:00:12.872Z</time></trkpt><trkpt lat="44.270625" lon="11.7245489"><ele>68.0</ele><time>2026-04-23T08:00:13.873Z</time></trkpt><trkpt lat="44.2705836" lon="11.7246927"><ele>68.5</ele><time>2026-04-23T08:00:15.872Z</time></trkpt><trkpt lat="44.2705375" lon="11.7248393"><ele>69.0</ele><time>2026-04-23T08:00:17.873Z</time></trkpt><trkpt lat="44.270486" lon="11.7249785"><ele>69.5</ele><time>2026-04-23T08:00:19.873Z</time></trkpt><trkpt lat="44.2704339" lon="11.7251163"><ele>70.0</ele><time>2026-04-23T08:00:21.873Z</time></trkpt><trkpt lat="44.2703814" lon="11.7252532"><ele>70.0</ele><time>2026-04-23T08:00:23.872Z</time></trkpt><trkpt lat="44.2703232" lon="11.7253874"><ele>70.0</ele><time>2026-04-23T08:00:25.872Z</time></trkpt><trkpt lat="44.2702797" lon="11.7255363"><ele>70.0</ele><time>2026-04-23T08:00:27.873Z</time></trkpt><trkpt lat="44.2702295" lon="11.7256705"><ele>70.0</ele><time>2026-04-23T08:00:29.873Z</time></trkpt><trkpt lat="44.2701766" lon="11.7258224"><ele>70.0</ele><time>2026-04-23T08:00:31.873Z</time></trkpt><trkpt lat="44.2701309" lon="11.7259771"><ele>70.0</ele><time>2026-04-23T08:00:33.872Z</time></trkpt><trkpt lat="44.2700805" lon="11.7261262"><ele>70.0</ele><time>2026-04-23T08:00:35.873Z</time></trkpt><trkpt lat="44.2700261" lon="11.7262772"><ele>70.0</ele><time>2026-04-23T08:00:37.873Z</time></trkpt><trkpt lat="44.2699759" lon="11.7264166"><ele>69.75</ele><time>2026-04-23T08:00:39.872Z</time></trkpt><trkpt lat="44.2699171" lon="11.726557"><ele>69.5</ele><time>2026-04-23T08:00:41.872Z</time></trkpt><trkpt lat="44.2698637" lon="11.7267027"><ele>69.25</ele><time>2026-04-23T08:00:43.873Z</time></trkpt><trkpt lat="44.2698187" lon="11.7268526"><ele>69.0</ele><time>2026-04-23T08:00:45.872Z</time></trkpt><trkpt lat="44.269772" lon="11.7269986"><ele>68.75</ele><time>2026-04-23T08:00:47.873Z</time></trkpt><trkpt lat="44.2697199" lon="11.7271558"><ele>68.5</ele><time>2026-04-23T08:00:49.873Z</time></trkpt><trkpt lat="44.2696637" lon="11.7273054"><ele>68.25</ele><time>2026-04-23T08:00:51.872Z</time></trkpt><trkpt lat="44.2696085" lon="11.7274517"><ele>68.0</ele><time>2026-04-23T08:00:53.872Z</time></trkpt><trkpt lat="44.2695522" lon="11.7275939"><ele>67.4</ele><time>2026-04-23T08:00:55.873Z</time></trkpt><trkpt lat="44.2695046" lon="11.7277432"><ele>66.8</ele><time>2026-04-23T08:00:57.872Z</time></trkpt><trkpt lat="44.2694549" lon="11.727891"><ele>66.2</ele><time>2026-04-23T08:00:59.873Z</time></trkpt><trkpt lat="44.2694055" lon="11.7280466"><ele>65.6</ele><time>2026-04-23T08:01:01.873Z</time></trkpt><trkpt lat="44.2693764" lon="11.728127"><ele>65.0</ele><time>2026-04-23T08:01:02.872Z</time></trkpt><trkpt lat="44.2693208" lon="11.7282807"><ele>65.0</ele><time>2026-04-23T08:01:04.872Z</time></trkpt><trkpt lat="44.2692727" lon="11.7284288"><ele>65.0</ele><time>2026-04-23T08:01:06.872Z</time></trkpt><trkpt lat="44.269224" lon="11.7285713"><ele>65.0</ele><time>2026-04-23T08:01:08.872Z</time></trkpt><trkpt lat="44.2691807" lon="11.7287071"><ele>65.0</ele><time>2026-04-23T08:01:10.873Z</time></trkpt><trkpt lat="44.2691406" lon="11.7288292"><ele>65.0</ele><time>2026-04-23T08:01:12.872Z</time></trkpt><trkpt lat="44.2691014" lon="11.7289491"><ele>66.0</ele><time>2026-04-23T08:01:14.873Z</time></trkpt><trkpt lat="44.2690658" lon="11.7290733"><ele>67.0</ele><time>2026-04-23T08:01:16.873Z</time></trkpt><trkpt lat="44.2690312" lon="11.7292048"><ele>68.0</ele><time>2026-04-23T08:01:18.872Z</time></trkpt><trkpt lat="44.269008" lon="11.7293291"><ele>69.0</ele><time>2026-04-23T08:01:20.872Z</time></trkpt><trkpt lat="44.2689903" lon="11.7294587"><ele>70.0</ele><time>2026-04-23T08:01:22.873Z</time></trkpt><trkpt lat="44.2689796" lon="11.7295852"><ele>70.83333333333333</ele><time>2026-04-23T08:01:24.872Z</time></trkpt><trkpt lat="44.2689751" lon="11.729707"><ele>71.66666666666666</ele><time>2026-04-23T08:01:26.872Z</time></trkpt><trkpt lat="44.2689723" lon="11.7298314"><ele>72.5</ele><time>2026-04-23T08:01:28.872Z</time></trkpt><trkpt lat="44.2689718" lon="11.7299455"><ele>73.33333333333333</ele><time>2026-04-23T08:01:30.873Z</time></trkpt><trkpt lat="44.2689745" lon="11.7300603"><ele>74.16666666666667</ele><time>2026-04-23T08:01:32.873Z</time></trkpt><trkpt lat="44.2689682" lon="11.7301629"><ele>75.0</ele><time>2026-04-23T08:01:34.872Z</time></trkpt><trkpt lat="44.2689403" lon="11.7302664"><ele>76.0</ele><time>2026-04-23T08:01:36.873Z</time></trkpt><trkpt lat="44.2688856" lon="11.730347"><ele>77.0</ele><time>2026-04-23T08:01:38.873Z</time></trkpt><trkpt lat="44.2688053" lon="11.7303651"><ele>78.0</ele><time>2026-04-23T08:01:40.872Z</time></trkpt><trkpt lat="44.2687293" lon="11.7303307"><ele>79.0</ele><time>2026-04-23T08:01:42.872Z</time></trkpt><trkpt lat="44.2686675" lon="11.7302424"><ele>80.0</ele><time>2026-04-23T08:01:44.873Z</time></trkpt><trkpt lat="44.2686399" lon="11.7301424"><ele>81.0</ele><time>2026-04-23T08:01:46.873Z</time></trkpt><trkpt lat="44.2686183" lon="11.7300412"><ele>81.14285714285714</ele><time>2026-04-23T08:01:48.873Z</time></trkpt><trkpt lat="44.2685953" lon="11.7299362"><ele>81.28571428571428</ele><time>2026-04-23T08:01:50.872Z</time></trkpt><trkpt lat="44.2685648" lon="11.7298402"><ele>81.42857142857142</ele><time>2026-04-23T08:01:52.872Z</time></trkpt><trkpt lat="44.2685381" lon="11.7297465"><ele>81.57142857142857</ele><time>2026-04-23T08:01:54.873Z</time></trkpt><trkpt lat="44.2685148" lon="11.7296494"><ele>81.71428571428571</ele><time>2026-04-23T08:01:56.872Z</time></trkpt><trkpt lat="44.268488" lon="11.7295526"><ele>81.85714285714285</ele><time>2026-04-23T08:01:58.872Z</time></trkpt><trkpt lat="44.2684625" lon="11.7294691"><ele>82.0</ele><time>2026-04-23T08:02:00.873Z</time></trkpt><trkpt lat="44.2684355" lon="11.7293803"><ele>81.99999999999999</ele><time>2026-04-23T08:02:02.872Z</time></trkpt><trkpt lat="44.2684153" lon="11.7292796"><ele>82.0</ele><time>2026-04-23T08:02:04.872Z</time></trkpt><trkpt lat="44.2683919" lon="11.729184"><ele>82.0</ele><time>2026-04-23T08:02:06.872Z</time></trkpt><trkpt lat="44.2683631" lon="11.729095"><ele>82.0</ele><time>2026-04-23T08:02:08.873Z</time></trkpt><trkpt lat="44.2683257" lon="11.7290114"><ele>82.0</ele><time>2026-04-23T08:02:10.872Z</time></trkpt><trkpt lat="44.2682756" lon="11.7289371"><ele>81.99999999999999</ele><time>2026-04-23T08:02:12.872Z</time></trkpt><trkpt lat="44.2682129" lon="11.7288802"><ele>82.0</ele><time>2026-04-23T08:02:14.872Z</time></trkpt><trkpt lat="44.2681446" lon="11.7288215"><ele>83.66666666666666</ele><time>2026-04-23T08:02:16.872Z</time></trkpt><trkpt lat="44.2680705" lon="11.7287762"><ele>85.33333333333333</ele><time>2026-04-23T08:02:18.872Z</time></trkpt><trkpt lat="44.2680055" lon="11.7287291"><ele>87.0</ele><time>2026-04-23T08:02:20.872Z</time></trkpt><trkpt lat="44.2679374" lon="11.7286873"><ele>88.66666666666667</ele><time>2026-04-23T08:02:22.873Z</time></trkpt><trkpt lat="44.2678707" lon="11.7286465"><ele>90.33333333333334</ele><time>2026-04-23T08:02:24.872Z</time></trkpt><trkpt lat="44.2678045" lon="11.7286043"><ele>92.0</ele><time>2026-04-23T08:02:26.872Z</time></trkpt><trkpt lat="44.267727" lon="11.7285769"><ele>92.0</ele><time>2026-04-23T08:02:28.872Z</time></trkpt><trkpt lat="44.2676563" lon="11.7285726"><ele>92.0</ele><time>2026-04-23T08:02:30.872Z</time></trkpt><trkpt lat="44.267579" lon="11.7285735"><ele>92.0</ele><time>2026-04-23T08:02:32.873Z</time></trkpt><trkpt lat="44.2674966" lon="11.7285959"><ele>92.0</ele><time>2026-04-23T08:02:34.872Z</time></trkpt><trkpt lat="44.267422" lon="11.7286147"><ele>92.0</ele><time>2026-04-23T08:02:36.873Z</time></trkpt><trkpt lat="44.2673471" lon="11.7286485"><ele>92.0</ele><time>2026-04-23T08:02:38.873Z</time></trkpt><trkpt lat="44.2672759" lon="11.7286774"><ele>93.16666666666667</ele><time>2026-04-23T08:02:40.873Z</time></trkpt><trkpt lat="44.2672045" lon="11.7287024"><ele>94.33333333333334</ele><time>2026-04-23T08:02:42.873Z</time></trkpt><trkpt lat="44.2671262" lon="11.7287279"><ele>95.5</ele><time>2026-04-23T08:02:44.873Z</time></trkpt><trkpt lat="44.2670518" lon="11.728761"><ele>96.66666666666667</ele><time>2026-04-23T08:02:46.872Z</time></trkpt><trkpt lat="44.2669763" lon="11.7287954"><ele>97.83333333333333</ele><time>2026-04-23T08:02:48.801Z</time></trkpt><trkpt lat="44.2668954" lon="11.7288186"><ele>99.0</ele><time>2026-04-23T08:02:50.873Z</time></trkpt><trkpt lat="44.2668209" lon="11.7288255"><ele>99.0</ele><time>2026-04-23T08:02:52.873Z</time></trkpt><trkpt lat="44.2667446" lon="11.728826"><ele>99.0</ele><time>2026-04-23T08:02:54.872Z</time></trkpt><trkpt lat="44.2666665" lon="11.7288083"><ele>99.0</ele><time>2026-04-23T08:02:56.884Z</time></trkpt><trkpt lat="44.2666036" lon="11.7287756"><ele>99.0</ele><time>2026-04-23T08:02:58.788Z</time></trkpt><trkpt lat="44.2665378" lon="11.7287449"><ele>99.0</ele><time>2026-04-23T08:03:00.749Z</time></trkpt><trkpt lat="44.2664633" lon="11.7287147"><ele>99.0</ele><time>2026-04-23T08:03:02.905Z</time></trkpt><trkpt lat="44.2663901" lon="11.7286761"><ele>99.0</ele><time>2026-04-23T08:03:04.872Z</time></trkpt><trkpt lat="44.2663181" lon="11.7286388"><ele>99.83333333333333</ele><time>2026-04-23T08:03:06.866Z</time></trkpt><trkpt lat="44.2662447" lon="11.7286158"><ele>100.66666666666666</ele><time>2026-04-23T08:03:08.872Z</time></trkpt><trkpt lat="44.2661737" lon="11.7285975"><ele>101.5</ele><time>2026-04-23T08:03:10.873Z</time></trkpt><trkpt lat="44.2661009" lon="11.7285754"><ele>102.33333333333333</ele><time>2026-04-23T08:03:12.873Z</time></trkpt><trkpt lat="44.2660274" lon="11.7285624"><ele>103.16666666666666</ele><time>2026-04-23T08:03:14.873Z</time></trkpt><trkpt lat="44.2659469" lon="11.7285621"><ele>104.0</ele><time>2026-04-23T08:03:16.873Z</time></trkpt><trkpt lat="44.265874" lon="11.728573"><ele>103.99999999999999</ele><time>2026-04-23T08:03:18.873Z</time></trkpt><trkpt lat="44.2657939" lon="11.7286017"><ele>104.0</ele><time>2026-04-23T08:03:20.872Z</time></trkpt><trkpt lat="44.2657247" lon="11.7286373"><ele>104.0</ele><time>2026-04-23T08:03:22.873Z</time></trkpt><trkpt lat="44.2656525" lon="11.7286846"><ele>104.0</ele><time>2026-04-23T08:03:24.873Z</time></trkpt><trkpt lat="44.2655825" lon="11.7287553"><ele>103.99999999999999</ele><time>2026-04-23T08:03:26.872Z</time></trkpt><trkpt lat="44.2655267" lon="11.7288409"><ele>104.0</ele><time>2026-04-23T08:03:28.873Z</time></trkpt><trkpt lat="44.2654693" lon="11.7289487"><ele>104.0</ele><time>2026-04-23T08:03:30.872Z</time></trkpt><trkpt lat="44.2654124" lon="11.7290694"><ele>104.0</ele><time>2026-04-23T08:03:32.872Z</time></trkpt><trkpt lat="44.2653596" lon="11.7291992"><ele>104.0</ele><time>2026-04-23T08:03:34.873Z</time></trkpt><trkpt lat="44.2653107" lon="11.7293267"><ele>104.0</ele><time>2026-04-23T08:03:36.873Z</time></trkpt><trkpt lat="44.2652702" lon="11.7294496"><ele>104.0</ele><time>2026-04-23T08:03:38.873Z</time></trkpt><trkpt lat="44.2652332" lon="11.7295782"><ele>103.80000000000001</ele><time>2026-04-23T08:03:40.872Z</time></trkpt><trkpt lat="44.265196" lon="11.7297239"><ele>103.60000000000001</ele><time>2026-04-23T08:03:42.873Z</time></trkpt><trkpt lat="44.2651632" lon="11.7298767"><ele>103.4</ele><time>2026-04-23T08:03:44.873Z</time></trkpt><trkpt lat="44.2651401" lon="11.730024"><ele>103.2</ele><time>2026-04-23T08:03:46.873Z</time></trkpt><trkpt lat="44.2651168" lon="11.7301606"><ele>103.0</ele><time>2026-04-23T08:03:48.873Z</time></trkpt><trkpt lat="44.265099" lon="11.7302929"><ele>102.80000000000001</ele><time>2026-04-23T08:03:50.872Z</time></trkpt><trkpt lat="44.2650836" lon="11.7304289"><ele>102.6</ele><time>2026-04-23T08:03:52.873Z</time></trkpt><trkpt lat="44.2650777" lon="11.7305783"><ele>102.4</ele><time>2026-04-23T08:03:54.873Z</time></trkpt><trkpt lat="44.2650653" lon="11.7307273"><ele>102.19999999999999</ele><time>2026-04-23T08:03:56.873Z</time></trkpt><trkpt lat="44.265066" lon="11.7308754"><ele>102.0</ele><time>2026-04-23T08:03:58.873Z</time></trkpt><trkpt lat="44.2650774" lon="11.7310048"><ele>102.19999999999999</ele><time>2026-04-23T08:04:00.872Z</time></trkpt><trkpt lat="44.2650922" lon="11.7311518"><ele>102.4</ele><time>2026-04-23T08:04:02.873Z</time></trkpt><trkpt lat="44.2651102" lon="11.7313061"><ele>102.6</ele><time>2026-04-23T08:04:04.873Z</time></trkpt><trkpt lat="44.2651244" lon="11.7314488"><ele>102.80000000000001</ele><time>2026-04-23T08:04:06.873Z</time></trkpt><trkpt lat="44.2651443" lon="11.7315936"><ele>103.0</ele><time>2026-04-23T08:04:08.873Z</time></trkpt><trkpt lat="44.2651622" lon="11.7317261"><ele>103.0</ele><time>2026-04-23T08:04:10.872Z</time></trkpt><trkpt lat="44.2651808" lon="11.7318656"><ele>103.0</ele><time>2026-04-23T08:04:12.872Z</time></trkpt><trkpt lat="44.2651935" lon="11.7320051"><ele>103.0</ele><time>2026-04-23T08:04:14.872Z</time></trkpt><trkpt lat="44.2652103" lon="11.7321507"><ele>103.0</ele><time>2026-04-23T08:04:16.873Z</time></trkpt><trkpt lat="44.2652276" lon="11.7322986"><ele>103.0</ele><time>2026-04-23T08:04:18.872Z</time></trkpt><trkpt lat="44.2652356" lon="11.7324569"><ele>102.5</ele><time>2026-04-23T08:04:20.873Z</time></trkpt><trkpt lat="44.2652408" lon="11.7326144"><ele>102.0</ele><time>2026-04-23T08:04:22.873Z</time></trkpt><trkpt lat="44.2652386" lon="11.7327765"><ele>101.5</ele><time>2026-04-23T08:04:24.873Z</time></trkpt><trkpt lat="44.2652188" lon="11.7329342"><ele>101.0</ele><time>2026-04-23T08:04:26.872Z</time></trkpt><trkpt lat="44.2651968" lon="11.7331022"><ele>100.8</ele><time>2026-04-23T08:04:28.873Z</time></trkpt><trkpt lat="44.265185" lon="11.7331918"><ele>100.6</ele><time>2026-04-23T08:04:29.872Z</time></trkpt><trkpt lat="44.2651588" lon="11.7333519"><ele>100.4</ele><time>2026-04-23T08:04:31.872Z</time></trkpt><trkpt lat="44.2651415" lon="11.7335133"><ele>100.2</ele><time>2026-04-23T08:04:33.873Z</time></trkpt><trkpt lat="44.2651228" lon="11.7336702"><ele>100.0</ele><time>2026-04-23T08:04:35.872Z</time></trkpt><trkpt lat="44.265104" lon="11.7338274"><ele>100.0</ele><time>2026-04-23T08:04:37.872Z</time></trkpt><trkpt lat="44.2650812" lon="11.7339925"><ele>100.0</ele><time>2026-04-23T08:04:39.872Z</time></trkpt><trkpt lat="44.2650633" lon="11.73416"><ele>100.0</ele><time>2026-04-23T08:04:41.872Z</time></trkpt><trkpt lat="44.2650461" lon="11.7343296"><ele>100.0</ele><time>2026-04-23T08:04:43.872Z</time></trkpt><trkpt lat="44.2650344" lon="11.7344191"><ele>100.0</ele><time>2026-04-23T08:04:44.872Z</time></trkpt><trkpt lat="44.2650217" lon="11.734509"><ele>99.83333333333334</ele><time>2026-04-23T08:04:45.873Z</time></trkpt><trkpt lat="44.2650111" lon="11.7345975"><ele>99.66666666666667</ele><time>2026-04-23T08:04:46.873Z</time></trkpt><trkpt lat="44.2649993" lon="11.7346894"><ele>99.5</ele><time>2026-04-23T08:04:47.872Z</time></trkpt><trkpt lat="44.2649875" lon="11.7347792"><ele>99.33333333333334</ele><time>2026-04-23T08:04:48.873Z</time></trkpt><trkpt lat="44.2649731" lon="11.7348696"><ele>99.16666666666667</ele><time>2026-04-23T08:04:49.872Z</time></trkpt><trkpt lat="44.2649535" lon="11.7350428"><ele>99.0</ele><time>2026-04-23T08:04:51.872Z</time></trkpt><trkpt lat="44.264949" lon="11.7351363"><ele>98.5</ele><time>2026-04-23T08:04:52.873Z</time></trkpt><trkpt lat="44.2649415" lon="11.7352275"><ele>98.0</ele><time>2026-04-23T08:04:53.872Z</time></trkpt><trkpt lat="44.2649274" lon="11.7353172"><ele>97.5</ele><time>2026-04-23T08:04:54.873Z</time></trkpt><trkpt lat="44.2648887" lon="11.7354776"><ele>97.0</ele><time>2026-04-23T08:04:56.873Z</time></trkpt><trkpt lat="44.2648617" lon="11.7355595"><ele>96.5</ele><time>2026-04-23T08:04:57.872Z</time></trkpt><trkpt lat="44.2648314" lon="11.7356405"><ele>96.0</ele><time>2026-04-23T08:04:58.873Z</time></trkpt><trkpt lat="44.2647598" lon="11.7357836"><ele>96.0</ele><time>2026-04-23T08:05:00.872Z</time></trkpt><trkpt lat="44.264725" lon="11.735857"><ele>96.0</ele><time>2026-04-23T08:05:01.873Z</time></trkpt><trkpt lat="44.2646849" lon="11.7359331"><ele>96.0</ele><time>2026-04-23T08:05:02.872Z</time></trkpt><trkpt lat="44.2646397" lon="11.7360034"><ele>96.0</ele><time>2026-04-23T08:05:03.873Z</time></trkpt><trkpt lat="44.2645957" lon="11.736072"><ele>96.0</ele><time>2026-04-23T08:05:04.872Z</time></trkpt><trkpt lat="44.2645538" lon="11.7361403"><ele>96.0</ele><time>2026-04-23T08:05:05.873Z</time></trkpt><trkpt lat="44.2644709" lon="11.7362783"><ele>95.6</ele><time>2026-04-23T08:05:07.872Z</time></trkpt><trkpt lat="44.2644312" lon="11.7363523"><ele>95.19999999999999</ele><time>2026-04-23T08:05:08.873Z</time></trkpt><trkpt lat="44.2643518" lon="11.7364868"><ele>94.80000000000001</ele><time>2026-04-23T08:05:10.873Z</time></trkpt><trkpt lat="44.2642752" lon="11.7366199"><ele>94.4</ele><time>2026-04-23T08:05:12.872Z</time></trkpt><trkpt lat="44.2642066" lon="11.7367592"><ele>94.0</ele><time>2026-04-23T08:05:14.872Z</time></trkpt><trkpt lat="44.2641319" lon="11.7369031"><ele>93.6</ele><time>2026-04-23T08:05:16.873Z</time></trkpt><trkpt lat="44.2640535" lon="11.737038"><ele>93.2</ele><time>2026-04-23T08:05:18.872Z</time></trkpt><trkpt lat="44.2640151" lon="11.7371093"><ele>92.8</ele><time>2026-04-23T08:05:19.872Z</time></trkpt><trkpt lat="44.2639433" lon="11.7372442"><ele>92.39999999999999</ele><time>2026-04-23T08:05:21.873Z</time></trkpt><trkpt lat="44.2638712" lon="11.7373754"><ele>92.0</ele><time>2026-04-23T08:05:23.872Z</time></trkpt><trkpt lat="44.2637974" lon="11.7375092"><ele>93.0</ele><time>2026-04-23T08:05:25.873Z</time></trkpt><trkpt lat="44.2637351" lon="11.7376438"><ele>94.0</ele><time>2026-04-23T08:05:27.873Z</time></trkpt><trkpt lat="44.2636693" lon="11.7377738"><ele>95.0</ele><time>2026-04-23T08:05:29.872Z</time></trkpt><trkpt lat="44.2636112" lon="11.7379167"><ele>96.0</ele><time>2026-04-23T08:05:31.872Z</time></trkpt><trkpt lat="44.2635525" lon="11.738056"><ele>97.0</ele><time>2026-04-23T08:05:33.873Z</time></trkpt><trkpt lat="44.2634941" lon="11.7382014"><ele>98.0</ele><time>2026-04-23T08:05:35.872Z</time></trkpt><trkpt lat="44.2634367" lon="11.7383505"><ele>99.0</ele><time>2026-04-23T08:05:37.872Z</time></trkpt><trkpt lat="44.2633774" lon="11.7384972"><ele>100.0</ele><time>2026-04-23T08:05:39.873Z</time></trkpt><trkpt lat="44.2633235" lon="11.7386457"><ele>100.25</ele><time>2026-04-23T08:05:41.872Z</time></trkpt><trkpt lat="44.2632677" lon="11.7387872"><ele>100.5</ele><time>2026-04-23T08:05:43.873Z</time></trkpt><trkpt lat="44.2632061" lon="11.7389277"><ele>100.75</ele><time>2026-04-23T08:05:45.873Z</time></trkpt><trkpt lat="44.2631538" lon="11.7390706"><ele>101.0</ele><time>2026-04-23T08:05:47.873Z</time></trkpt><trkpt lat="44.2630916" lon="11.7392079"><ele>100.6</ele><time>2026-04-23T08:05:49.873Z</time></trkpt><trkpt lat="44.2630318" lon="11.73936"><ele>100.19999999999999</ele><time>2026-04-23T08:05:51.872Z</time></trkpt><trkpt lat="44.2629728" lon="11.7395132"><ele>99.80000000000001</ele><time>2026-04-23T08:05:53.872Z</time></trkpt><trkpt lat="44.2629448" lon="11.7395968"><ele>99.4</ele><time>2026-04-23T08:05:54.873Z</time></trkpt><trkpt lat="44.2629169" lon="11.739682"><ele>99.0</ele><time>2026-04-23T08:05:55.872Z</time></trkpt><trkpt lat="44.2628928" lon="11.7397704"><ele>98.80000000000001</ele><time>2026-04-23T08:05:56.872Z</time></trkpt><trkpt lat="44.2628758" lon="11.7398566"><ele>98.60000000000001</ele><time>2026-04-23T08:05:57.872Z</time></trkpt><trkpt lat="44.2628616" lon="11.7400183"><ele>98.4</ele><time>2026-04-23T08:05:59.873Z</time></trkpt><trkpt lat="44.2628463" lon="11.7401853"><ele>98.2</ele><time>2026-04-23T08:06:01.873Z</time></trkpt><trkpt lat="44.2628416" lon="11.7403428"><ele>98.0</ele><time>2026-04-23T08:06:03.873Z</time></trkpt><trkpt lat="44.2628301" lon="11.7405033"><ele>97.83333333333333</ele><time>2026-04-23T08:06:05.872Z</time></trkpt><trkpt lat="44.2628143" lon="11.7406713"><ele>97.66666666666666</ele><time>2026-04-23T08:06:07.873Z</time></trkpt><trkpt lat="44.2628102" lon="11.7407603"><ele>97.5</ele><time>2026-04-23T08:06:08.872Z</time></trkpt><trkpt lat="44.26279" lon="11.7409258"><ele>97.33333333333334</ele><time>2026-04-23T08:06:10.872Z</time></trkpt><trkpt lat="44.2627818" lon="11.7410152"><ele>97.16666666666667</ele><time>2026-04-23T08:06:11.872Z</time></trkpt><trkpt lat="44.2627702" lon="11.7411027"><ele>97.0</ele><time>2026-04-23T08:06:12.873Z</time></trkpt><trkpt lat="44.2627448" lon="11.7412672"><ele>97.0</ele><time>2026-04-23T08:06:14.873Z</time></trkpt><trkpt lat="44.2627154" lon="11.7414197"><ele>97.0</ele><time>2026-04-23T08:06:16.873Z</time></trkpt><trkpt lat="44.2626716" lon="11.7415785"><ele>97.0</ele><time>2026-04-23T08:06:18.872Z</time></trkpt><trkpt lat="44.262625" lon="11.7417348"><ele>97.0</ele><time>2026-04-23T08:06:20.872Z</time></trkpt><trkpt lat="44.2625738" lon="11.7418923"><ele>96.39999999999999</ele><time>2026-04-23T08:06:22.872Z</time></trkpt><trkpt lat="44.2625146" lon="11.7420441"><ele>95.8</ele><time>2026-04-23T08:06:24.872Z</time></trkpt><trkpt lat="44.262483" lon="11.7421228"><ele>95.2</ele><time>2026-04-23T08:06:25.873Z</time></trkpt><trkpt lat="44.2624277" lon="11.7422764"><ele>94.6</ele><time>2026-04-23T08:06:27.873Z</time></trkpt><trkpt lat="44.2623697" lon="11.7424216"><ele>94.0</ele><time>2026-04-23T08:06:29.873Z</time></trkpt><trkpt lat="44.262308" lon="11.7425655"><ele>94.2</ele><time>2026-04-23T08:06:31.873Z</time></trkpt><trkpt lat="44.2622562" lon="11.7427118"><ele>94.4</ele><time>2026-04-23T08:06:33.873Z</time></trkpt><trkpt lat="44.2621981" lon="11.7428629"><ele>94.6</ele><time>2026-04-23T08:06:35.873Z</time></trkpt><trkpt lat="44.2621673" lon="11.7429407"><ele>94.8</ele><time>2026-04-23T08:06:36.873Z</time></trkpt><trkpt lat="44.2621375" lon="11.7430196"><ele>95.0</ele><time>2026-04-23T08:06:37.872Z</time></trkpt><trkpt lat="44.2620767" lon="11.7431703"><ele>95.0</ele><time>2026-04-23T08:06:39.872Z</time></trkpt><trkpt lat="44.2620207" lon="11.7433198"><ele>95.0</ele><time>2026-04-23T08:06:41.872Z</time></trkpt><trkpt lat="44.2619639" lon="11.7434699"><ele>95.0</ele><time>2026-04-23T08:06:43.872Z</time></trkpt><trkpt lat="44.2619337" lon="11.7435505"><ele>95.0</ele><time>2026-04-23T08:06:44.873Z</time></trkpt><trkpt lat="44.2618783" lon="11.7437057"><ele>95.0</ele><time>2026-04-23T08:06:46.872Z</time></trkpt><trkpt lat="44.261818" lon="11.7438574"><ele>95.0</ele><time>2026-04-23T08:06:48.872Z</time></trkpt><trkpt lat="44.2617681" lon="11.7439968"><ele>95.0</ele><time>2026-04-23T08:06:50.872Z</time></trkpt><trkpt lat="44.2617183" lon="11.7441298"><ele>95.0</ele><time>2026-04-23T08:06:52.873Z</time></trkpt><trkpt lat="44.2616666" lon="11.7442622"><ele>95.0</ele><time>2026-04-23T08:06:54.872Z</time></trkpt><trkpt lat="44.2616112" lon="11.7444013"><ele>95.0</ele><time>2026-04-23T08:06:56.872Z</time></trkpt><trkpt lat="44.2615582" lon="11.7445478"><ele>95.0</ele><time>2026-04-23T08:06:58.873Z</time></trkpt><trkpt lat="44.2615073" lon="11.7446864"><ele>95.0</ele><time>2026-04-23T08:07:00.873Z</time></trkpt><trkpt lat="44.261457" lon="11.7448306"><ele>95.0</ele><time>2026-04-23T08:07:02.873Z</time></trkpt><trkpt lat="44.2614117" lon="11.7449782"><ele>95.0</ele><time>2026-04-23T08:07:04.873Z</time></trkpt><trkpt lat="44.2613477" lon="11.7451017"><ele>95.16666666666667</ele><time>2026-04-23T08:07:06.872Z</time></trkpt><trkpt lat="44.2612764" lon="11.7451998"><ele>95.33333333333334</ele><time>2026-04-23T08:07:08.872Z</time></trkpt><trkpt lat="44.2612079" lon="11.7452607"><ele>95.5</ele><time>2026-04-23T08:07:10.872Z</time></trkpt><trkpt lat="44.261173" lon="11.7453478"><ele>95.66666666666667</ele><time>2026-04-23T08:07:12.873Z</time></trkpt><trkpt lat="44.2612085" lon="11.7454534"><ele>95.83333333333333</ele><time>2026-04-23T08:07:14.873Z</time></trkpt><trkpt lat="44.261285" lon="11.7455076"><ele>96.0</ele><time>2026-04-23T08:07:16.873Z</time></trkpt><trkpt lat="44.2613567" lon="11.7455626"><ele>95.6</ele><time>2026-04-23T08:07:18.873Z</time></trkpt><trkpt lat="44.2614313" lon="11.7456416"><ele>95.19999999999999</ele><time>2026-04-23T08:07:20.873Z</time></trkpt><trkpt lat="44.2615104" lon="11.7457063"><ele>94.80000000000001</ele><time>2026-04-23T08:07:22.872Z</time></trkpt><trkpt lat="44.261587" lon="11.7457778"><ele>94.4</ele><time>2026-04-23T08:07:24.872Z</time></trkpt><trkpt lat="44.2616678" lon="11.7458376"><ele>94.0</ele><time>2026-04-23T08:07:26.873Z</time></trkpt><trkpt lat="44.2617415" lon="11.7459115"><ele>94.0</ele><time>2026-04-23T08:07:28.873Z</time></trkpt><trkpt lat="44.2618284" lon="11.7459938"><ele>94.0</ele><time>2026-04-23T08:07:30.873Z</time></trkpt><trkpt lat="44.2619245" lon="11.7460764"><ele>94.0</ele><time>2026-04-23T08:07:32.872Z</time></trkpt><trkpt lat="44.2620297" lon="11.7461575"><ele>94.0</ele><time>2026-04-23T08:07:34.873Z</time></trkpt><trkpt lat="44.2621285" lon="11.7462429"><ele>94.0</ele><time>2026-04-23T08:07:36.872Z</time></trkpt><trkpt lat="44.2622356" lon="11.7463358"><ele>94.0</ele><time>2026-04-23T08:07:38.872Z</time></trkpt><trkpt lat="44.2622918" lon="11.7463797"><ele>94.0</ele><time>2026-04-23T08:07:39.873Z</time></trkpt><trkpt lat="44.2623486" lon="11.7464241"><ele>94.0</ele><time>2026-04-23T08:07:40.873Z</time></trkpt><trkpt lat="44.2624036" lon="11.7464697"><ele>94.0</ele><time>2026-04-23T08:07:41.873Z</time></trkpt><trkpt lat="44.2625061" lon="11.7465597"><ele>94.0</ele><time>2026-04-23T08:07:43.873Z</time></trkpt><trkpt lat="44.2626112" lon="11.7466428"><ele>93.6</ele><time>2026-04-23T08:07:45.873Z</time></trkpt><trkpt lat="44.262711" lon="11.7467325"><ele>93.2</ele><time>2026-04-23T08:07:47.873Z</time></trkpt><trkpt lat="44.2628095" lon="11.7468221"><ele>92.8</ele><time>2026-04-23T08:07:49.873Z</time></trkpt><trkpt lat="44.2629001" lon="11.7468987"><ele>92.39999999999999</ele><time>2026-04-23T08:07:51.873Z</time></trkpt><trkpt lat="44.262992" lon="11.7469731"><ele>92.0</ele><time>2026-04-23T08:07:53.873Z</time></trkpt><trkpt lat="44.2630907" lon="11.7470501"><ele>91.6</ele><time>2026-04-23T08:07:55.873Z</time></trkpt><trkpt lat="44.2631877" lon="11.7471353"><ele>91.19999999999999</ele><time>2026-04-23T08:07:57.873Z</time></trkpt><trkpt lat="44.2632788" lon="11.7472142"><ele>90.8</ele><time>2026-04-23T08:07:59.873Z</time></trkpt><trkpt lat="44.2633601" lon="11.747287"><ele>90.4</ele><time>2026-04-23T08:08:01.873Z</time></trkpt><trkpt lat="44.2634445" lon="11.7473496"><ele>90.0</ele><time>2026-04-23T08:08:03.872Z</time></trkpt><trkpt lat="44.263526" lon="11.7474101"><ele>90.0</ele><time>2026-04-23T08:08:05.872Z</time></trkpt><trkpt lat="44.2636029" lon="11.7474898"><ele>90.0</ele><time>2026-04-23T08:08:07.873Z</time></trkpt><trkpt lat="44.2636903" lon="11.747567"><ele>90.0</ele><time>2026-04-23T08:08:09.873Z</time></trkpt><trkpt lat="44.2637845" lon="11.7476433"><ele>90.0</ele><time>2026-04-23T08:08:11.873Z</time></trkpt><trkpt lat="44.2638844" lon="11.7477187"><ele>90.0</ele><time>2026-04-23T08:08:13.872Z</time></trkpt><trkpt lat="44.2639817" lon="11.7477752"><ele>90.0</ele><time>2026-04-23T08:08:15.872Z</time></trkpt><trkpt lat="44.2640777" lon="11.7478241"><ele>90.0</ele><time>2026-04-23T08:08:17.872Z</time></trkpt><trkpt lat="44.2641678" lon="11.7478657"><ele>90.0</ele><time>2026-04-23T08:08:19.872Z</time></trkpt><trkpt lat="44.264258" lon="11.7479112"><ele>90.0</ele><time>2026-04-23T08:08:21.872Z</time></trkpt><trkpt lat="44.2643433" lon="11.7479489"><ele>90.0</ele><time>2026-04-23T08:08:23.872Z</time></trkpt><trkpt lat="44.2644171" lon="11.7480032"><ele>90.0</ele><time>2026-04-23T08:08:25.873Z</time></trkpt><trkpt lat="44.2645003" lon="11.7480657"><ele>90.0</ele><time>2026-04-23T08:08:27.873Z</time></trkpt><trkpt lat="44.2645893" lon="11.7481375"><ele>90.0</ele><time>2026-04-23T08:08:29.872Z</time></trkpt><trkpt lat="44.2646783" lon="11.7482093"><ele>90.0</ele><time>2026-04-23T08:08:31.872Z</time></trkpt><trkpt lat="44.2647695" lon="11.7482802"><ele>90.0</ele><time>2026-04-23T08:08:33.872Z</time></trkpt><trkpt lat="44.2648568" lon="11.7483728"><ele>89.75</ele><time>2026-04-23T08:08:35.873Z</time></trkpt><trkpt lat="44.2649561" lon="11.7484571"><ele>89.5</ele><time>2026-04-23T08:08:37.872Z</time></trkpt><trkpt lat="44.2650583" lon="11.7485412"><ele>89.25</ele><time>2026-04-23T08:08:39.873Z</time></trkpt><trkpt lat="44.2651521" lon="11.7486368"><ele>89.0</ele><time>2026-04-23T08:08:41.873Z</time></trkpt><trkpt lat="44.2652481" lon="11.7487392"><ele>88.85714285714285</ele><time>2026-04-23T08:08:43.873Z</time></trkpt><trkpt lat="44.2653038" lon="11.7487873"><ele>88.71428571428571</ele><time>2026-04-23T08:08:44.872Z</time></trkpt><trkpt lat="44.2653568" lon="11.7488405"><ele>88.57142857142857</ele><time>2026-04-23T08:08:45.872Z</time></trkpt><trkpt lat="44.2654117" lon="11.7488988"><ele>88.42857142857142</ele><time>2026-04-23T08:08:46.872Z</time></trkpt><trkpt lat="44.2654593" lon="11.7489589"><ele>88.28571428571428</ele><time>2026-04-23T08:08:47.873Z</time></trkpt><trkpt lat="44.2655026" lon="11.7490279"><ele>88.14285714285714</ele><time>2026-04-23T08:08:48.873Z</time></trkpt><trkpt lat="44.2655448" lon="11.7490956"><ele>88.0</ele><time>2026-04-23T08:08:49.873Z</time></trkpt><trkpt lat="44.2656355" lon="11.7492109"><ele>88.0</ele><time>2026-04-23T08:08:51.873Z</time></trkpt><trkpt lat="44.2657197" lon="11.7493095"><ele>88.0</ele><time>2026-04-23T08:08:53.873Z</time></trkpt><trkpt lat="44.265813" lon="11.7493979"><ele>88.0</ele><time>2026-04-23T08:08:55.872Z</time></trkpt><trkpt lat="44.265907" lon="11.7494748"><ele>88.0</ele><time>2026-04-23T08:08:57.872Z</time></trkpt><trkpt lat="44.265998" lon="11.7495514"><ele>88.0</ele><time>2026-04-23T08:08:59.873Z</time></trkpt><trkpt lat="44.266084" lon="11.7496402"><ele>88.0</ele><time>2026-04-23T08:09:01.872Z</time></trkpt><trkpt lat="44.2661823" lon="11.7497378"><ele>88.0</ele><time>2026-04-23T08:09:03.872Z</time></trkpt><trkpt lat="44.2662863" lon="11.7498309"><ele>88.0</ele><time>2026-04-23T08:09:05.872Z</time></trkpt><trkpt lat="44.2663945" lon="11.7499244"><ele>88.0</ele><time>2026-04-23T08:09:07.872Z</time></trkpt><trkpt lat="44.2664921" lon="11.7499992"><ele>88.0</ele><time>2026-04-23T08:09:09.873Z</time></trkpt><trkpt lat="44.2665909" lon="11.7500197"><ele>88.0</ele><time>2026-04-23T08:09:11.872Z</time></trkpt><trkpt lat="44.2666793" lon="11.7499872"><ele>88.0</ele><time>2026-04-23T08:09:13.873Z</time></trkpt><trkpt lat="44.2667649" lon="11.7499203"><ele>88.0</ele><time>2026-04-23T08:09:15.873Z</time></trkpt><trkpt lat="44.2668544" lon="11.7498467"><ele>88.0</ele><time>2026-04-23T08:09:17.873Z</time></trkpt><trkpt lat="44.2669505" lon="11.7497694"><ele>88.0</ele><time>2026-04-23T08:09:19.872Z</time></trkpt><trkpt lat="44.2670796" lon="11.749722"><ele>88.0</ele><time>2026-04-23T08:09:21.873Z</time></trkpt><trkpt lat="44.267199" lon="11.749725"><ele>88.0</ele><time>2026-04-23T08:09:23.872Z</time></trkpt><trkpt lat="44.2673172" lon="11.7497381"><ele>88.0</ele><time>2026-04-23T08:09:25.872Z</time></trkpt><trkpt lat="44.2673858" lon="11.749764"><ele>88.0</ele><time>2026-04-23T08:09:26.872Z</time></trkpt><trkpt lat="44.2674456" lon="11.7498007"><ele>87.4</ele><time>2026-04-23T08:09:27.872Z</time></trkpt><trkpt lat="44.267504" lon="11.7498417"><ele>86.80000000000001</ele><time>2026-04-23T08:09:28.872Z</time></trkpt><trkpt lat="44.2676136" lon="11.7499262"><ele>86.2</ele><time>2026-04-23T08:09:30.872Z</time></trkpt><trkpt lat="44.2677181" lon="11.750004"><ele>85.6</ele><time>2026-04-23T08:09:32.872Z</time></trkpt><trkpt lat="44.2678221" lon="11.7500803"><ele>85.0</ele><time>2026-04-23T08:09:34.873Z</time></trkpt><trkpt lat="44.2679218" lon="11.7501555"><ele>85.0</ele><time>2026-04-23T08:09:36.873Z</time></trkpt><trkpt lat="44.2680214" lon="11.7502175"><ele>85.0</ele><time>2026-04-23T08:09:38.872Z</time></trkpt><trkpt lat="44.2681287" lon="11.7502805"><ele>85.0</ele><time>2026-04-23T08:09:40.873Z</time></trkpt><trkpt lat="44.268232" lon="11.7503304"><ele>85.0</ele><time>2026-04-23T08:09:42.873Z</time></trkpt><trkpt lat="44.2683365" lon="11.7503464"><ele>85.0</ele><time>2026-04-23T08:09:44.873Z</time></trkpt><trkpt lat="44.2684389" lon="11.7503765"><ele>85.0</ele><time>2026-04-23T08:09:46.873Z</time></trkpt><trkpt lat="44.2685395" lon="11.7504023"><ele>85.0</ele><time>2026-04-23T08:09:48.872Z</time></trkpt><trkpt lat="44.2686376" lon="11.7504345"><ele>85.0</ele><time>2026-04-23T08:09:50.873Z</time></trkpt><trkpt lat="44.2687286" lon="11.7504724"><ele>85.0</ele><time>2026-04-23T08:09:52.873Z</time></trkpt><trkpt lat="44.2688097" lon="11.7505413"><ele>85.0</ele><time>2026-04-23T08:09:54.872Z</time></trkpt><trkpt lat="44.2688283" lon="11.7506777"><ele>85.0</ele><time>2026-04-23T08:09:56.872Z</time></trkpt><trkpt lat="44.2687799" lon="11.7508104"><ele>85.0</ele><time>2026-04-23T08:09:58.872Z</time></trkpt><trkpt lat="44.2687184" lon="11.7509529"><ele>85.0</ele><time>2026-04-23T08:10:00.873Z</time></trkpt><trkpt lat="44.2686643" lon="11.7510932"><ele>85.0</ele><time>2026-04-23T08:10:02.873Z</time></trkpt><trkpt lat="44.2686097" lon="11.7512275"><ele>84.8</ele><time>2026-04-23T08:10:04.872Z</time></trkpt><trkpt lat="44.2685504" lon="11.7513709"><ele>84.6</ele><time>2026-04-23T08:10:06.873Z</time></trkpt><trkpt lat="44.2684798" lon="11.7515092"><ele>84.4</ele><time>2026-04-23T08:10:08.872Z</time></trkpt><trkpt lat="44.2684415" lon="11.7515844"><ele>84.2</ele><time>2026-04-23T08:10:09.873Z</time></trkpt><trkpt lat="44.2683747" lon="11.751723"><ele>84.0</ele><time>2026-04-23T08:10:11.873Z</time></trkpt><trkpt lat="44.268315" lon="11.7518554"><ele>83.80000000000001</ele><time>2026-04-23T08:10:13.873Z</time></trkpt><trkpt lat="44.2682604" lon="11.751984"><ele>83.60000000000001</ele><time>2026-04-23T08:10:15.873Z</time></trkpt><trkpt lat="44.268208" lon="11.7521097"><ele>83.4</ele><time>2026-04-23T08:10:17.872Z</time></trkpt><trkpt lat="44.2681457" lon="11.752245"><ele>83.2</ele><time>2026-04-23T08:10:19.873Z</time></trkpt><trkpt lat="44.2680953" lon="11.7523861"><ele>83.0</ele><time>2026-04-23T08:10:21.872Z</time></trkpt><trkpt lat="44.2680534" lon="11.7525414"><ele>82.75</ele><time>2026-04-23T08:10:23.872Z</time></trkpt><trkpt lat="44.2680234" lon="11.7527005"><ele>82.5</ele><time>2026-04-23T08:10:25.873Z</time></trkpt><trkpt lat="44.2679993" lon="11.7528651"><ele>82.25</ele><time>2026-04-23T08:10:27.873Z</time></trkpt><trkpt lat="44.2679845" lon="11.7530247"><ele>82.0</ele><time>2026-04-23T08:10:29.872Z</time></trkpt><trkpt lat="44.2679659" lon="11.7531896"><ele>81.8</ele><time>2026-04-23T08:10:31.872Z</time></trkpt><trkpt lat="44.2679552" lon="11.7532769"><ele>81.6</ele><time>2026-04-23T08:10:32.873Z</time></trkpt><trkpt lat="44.2679348" lon="11.7534445"><ele>81.39999999999999</ele><time>2026-04-23T08:10:34.872Z</time></trkpt><trkpt lat="44.2679272" lon="11.7536081"><ele>81.19999999999999</ele><time>2026-04-23T08:10:36.873Z</time></trkpt><trkpt lat="44.2679087" lon="11.7537741"><ele>81.0</ele><time>2026-04-23T08:10:38.872Z</time></trkpt><trkpt lat="44.2678949" lon="11.7539378"><ele>80.8</ele><time>2026-04-23T08:10:40.872Z</time></trkpt><trkpt lat="44.2678755" lon="11.7540919"><ele>80.6</ele><time>2026-04-23T08:10:42.872Z</time></trkpt><trkpt lat="44.2678564" lon="11.7542419"><ele>80.4</ele><time>2026-04-23T08:10:44.873Z</time></trkpt><trkpt lat="44.2678403" lon="11.7544"><ele>80.2</ele><time>2026-04-23T08:10:46.873Z</time></trkpt><trkpt lat="44.267821" lon="11.7545542"><ele>80.0</ele><time>2026-04-23T08:10:48.872Z</time></trkpt><trkpt lat="44.2678028" lon="11.7547107"><ele>80.0</ele><time>2026-04-23T08:10:50.872Z</time></trkpt><trkpt lat="44.2677862" lon="11.7548673"><ele>80.0</ele><time>2026-04-23T08:10:52.873Z</time></trkpt><trkpt lat="44.2677782" lon="11.7550268"><ele>80.0</ele><time>2026-04-23T08:10:54.873Z</time></trkpt><trkpt lat="44.2677821" lon="11.7551858"><ele>80.0</ele><time>2026-04-23T08:10:56.872Z</time></trkpt><trkpt lat="44.2678054" lon="11.7553376"><ele>79.8</ele><time>2026-04-23T08:10:58.872Z</time></trkpt><trkpt lat="44.2678322" lon="11.7554962"><ele>79.6</ele><time>2026-04-23T08:11:00.873Z</time></trkpt><trkpt lat="44.267848" lon="11.7556497"><ele>79.4</ele><time>2026-04-23T08:11:02.872Z</time></trkpt><trkpt lat="44.2678649" lon="11.7557943"><ele>79.2</ele><time>2026-04-23T08:11:04.873Z</time></trkpt><trkpt lat="44.2678619" lon="11.7559409"><ele>79.0</ele><time>2026-04-23T08:11:06.872Z</time></trkpt><trkpt lat="44.2678606" lon="11.7560797"><ele>77.4</ele><time>2026-04-23T08:11:08.873Z</time></trkpt><trkpt lat="44.2678539" lon="11.7562373"><ele>75.80000000000001</ele><time>2026-04-23T08:11:10.872Z</time></trkpt><trkpt lat="44.2678528" lon="11.7563976"><ele>74.19999999999999</ele><time>2026-04-23T08:11:12.873Z</time></trkpt><trkpt lat="44.267861" lon="11.7565688"><ele>72.6</ele><time>2026-04-23T08:11:14.872Z</time></trkpt><trkpt lat="44.2678663" lon="11.7566622"><ele>71.0</ele><time>2026-04-23T08:11:15.873Z</time></trkpt><trkpt lat="44.2678737" lon="11.7567617"><ele>69.66666666666667</ele><time>2026-04-23T08:11:16.872Z</time></trkpt><trkpt lat="44.2678834" lon="11.75687"><ele>68.33333333333334</ele><time>2026-04-23T08:11:17.873Z</time></trkpt><trkpt lat="44.267888" lon="11.7569849"><ele>67.0</ele><time>2026-04-23T08:11:18.873Z</time></trkpt><trkpt lat="44.2678907" lon="11.7571026"><ele>65.66666666666667</ele><time>2026-04-23T08:11:19.873Z</time></trkpt><trkpt lat="44.2678896" lon="11.7572315"><ele>64.33333333333333</ele><time>2026-04-23T08:11:20.873Z</time></trkpt><trkpt lat="44.2678902" lon="11.7573674"><ele>63.0</ele><time>2026-04-23T08:11:21.873Z</time></trkpt><trkpt lat="44.2678964" lon="11.7575045"><ele>63.0</ele><time>2026-04-23T08:11:22.873Z</time></trkpt><trkpt lat="44.267903" lon="11.7576457"><ele>63.0</ele><time>2026-04-23T08:11:23.873Z</time></trkpt><trkpt lat="44.2679005" lon="11.7577851"><ele>63.0</ele><time>2026-04-23T08:11:24.873Z</time></trkpt><trkpt lat="44.2678944" lon="11.7579248"><ele>63.0</ele><time>2026-04-23T08:11:25.873Z</time></trkpt><trkpt lat="44.2678873" lon="11.7580645"><ele>63.0</ele><time>2026-04-23T08:11:26.872Z</time></trkpt><trkpt lat="44.267877" lon="11.7582058"><ele>62.599999999999994</ele><time>2026-04-23T08:11:27.872Z</time></trkpt><trkpt lat="44.2678611" lon="11.7583438"><ele>62.199999999999996</ele><time>2026-04-23T08:11:28.873Z</time></trkpt><trkpt lat="44.2678351" lon="11.7584794"><ele>61.8</ele><time>2026-04-23T08:11:29.872Z</time></trkpt><trkpt lat="44.2677995" lon="11.7586133"><ele>61.4</ele><time>2026-04-23T08:11:30.873Z</time></trkpt><trkpt lat="44.2677418" lon="11.7587345"><ele>61.0</ele><time>2026-04-23T08:11:31.872Z</time></trkpt><trkpt lat="44.2676772" lon="11.7588477"><ele>60.8</ele><time>2026-04-23T08:11:32.872Z</time></trkpt><trkpt lat="44.2676196" lon="11.7589652"><ele>60.599999999999994</ele><time>2026-04-23T08:11:33.873Z</time></trkpt><trkpt lat="44.2675707" lon="11.7590799"><ele>60.4</ele><time>2026-04-23T08:11:34.873Z</time></trkpt><trkpt lat="44.2675387" lon="11.7592083"><ele>60.2</ele><time>2026-04-23T08:11:35.873Z</time></trkpt><trkpt lat="44.2675391" lon="11.7593451"><ele>60.0</ele><time>2026-04-23T08:11:36.872Z</time></trkpt><trkpt lat="44.2675673" lon="11.7594853"><ele>59.4</ele><time>2026-04-23T08:11:37.872Z</time></trkpt><trkpt lat="44.2676017" lon="11.7596189"><ele>58.8</ele><time>2026-04-23T08:11:38.873Z</time></trkpt><trkpt lat="44.2676287" lon="11.7597634"><ele>58.2</ele><time>2026-04-23T08:11:39.873Z</time></trkpt><trkpt lat="44.2676621" lon="11.7599075"><ele>57.6</ele><time>2026-04-23T08:11:40.872Z</time></trkpt><trkpt lat="44.2676961" lon="11.7600434"><ele>57.0</ele><time>2026-04-23T08:11:41.873Z</time></trkpt><trkpt lat="44.2677251" lon="11.7601742"><ele>57.0</ele><time>2026-04-23T08:11:42.873Z</time></trkpt><trkpt lat="44.2677484" lon="11.7603037"><ele>57.0</ele><time>2026-04-23T08:11:43.872Z</time></trkpt><trkpt lat="44.2677723" lon="11.7604304"><ele>57.0</ele><time>2026-04-23T08:11:44.872Z</time></trkpt><trkpt lat="44.2677993" lon="11.7605468"><ele>57.0</ele><time>2026-04-23T08:11:45.873Z</time></trkpt><trkpt lat="44.2678213" lon="11.7606564"><ele>57.0</ele><time>2026-04-23T08:11:46.872Z</time></trkpt><trkpt lat="44.2678419" lon="11.7607655"><ele>57.0</ele><time>2026-04-23T08:11:47.872Z</time></trkpt><trkpt lat="44.2678622" lon="11.7608664"><ele>57.0</ele><time>2026-04-23T08:11:48.872Z</time></trkpt><trkpt lat="44.2678804" lon="11.7609665"><ele>57.0</ele><time>2026-04-23T08:11:49.873Z</time></trkpt><trkpt lat="44.2679007" lon="11.761058"><ele>57.0</ele><time>2026-04-23T08:11:50.873Z</time></trkpt><trkpt lat="44.2679242" lon="11.7611419"><ele>57.0</ele><time>2026-04-23T08:11:51.873Z</time></trkpt><trkpt lat="44.2679475" lon="11.7612269"><ele>57.0</ele><time>2026-04-23T08:11:52.872Z</time></trkpt><trkpt lat="44.2679876" lon="11.7613818"><ele>57.0</ele><time>2026-04-23T08:11:54.873Z</time></trkpt><trkpt lat="44.268042" lon="11.7615269"><ele>57.8</ele><time>2026-04-23T08:11:56.873Z</time></trkpt><trkpt lat="44.2681095" lon="11.7616421"><ele>58.6</ele><time>2026-04-23T08:11:58.873Z</time></trkpt><trkpt lat="44.2681821" lon="11.7617568"><ele>59.39999999999999</ele><time>2026-04-23T08:12:00.872Z</time></trkpt><trkpt lat="44.268263" lon="11.7618657"><ele>60.199999999999996</ele><time>2026-04-23T08:12:02.872Z</time></trkpt><trkpt lat="44.2683496" lon="11.7619605"><ele>61.0</ele><time>2026-04-23T08:12:04.872Z</time></trkpt><trkpt lat="44.2684484" lon="11.7620565"><ele>65.0</ele><time>2026-04-23T08:12:06.872Z</time></trkpt><trkpt lat="44.2685497" lon="11.7621409"><ele>69.0</ele><time>2026-04-23T08:12:08.873Z</time></trkpt><trkpt lat="44.268653" lon="11.7622195"><ele>73.0</ele><time>2026-04-23T08:12:10.873Z</time></trkpt><trkpt lat="44.2687579" lon="11.7622965"><ele>77.0</ele><time>2026-04-23T08:12:12.873Z</time></trkpt><trkpt lat="44.2688588" lon="11.7623552"><ele>74.5</ele><time>2026-04-23T08:12:14.872Z</time></trkpt><trkpt lat="44.2689641" lon="11.7624253"><ele>72.0</ele><time>2026-04-23T08:12:16.872Z</time></trkpt><trkpt lat="44.2690663" lon="11.7624839"><ele>69.5</ele><time>2026-04-23T08:12:18.872Z</time></trkpt><trkpt lat="44.2691731" lon="11.7625481"><ele>67.0</ele><time>2026-04-23T08:12:20.872Z</time></trkpt><trkpt lat="44.2692766" lon="11.7626029"><ele>67.0</ele><time>2026-04-23T08:12:22.872Z</time></trkpt><trkpt lat="44.269385" lon="11.7626802"><ele>67.0</ele><time>2026-04-23T08:12:24.873Z</time></trkpt><trkpt lat="44.2694399" lon="11.7627286"><ele>67.0</ele><time>2026-04-23T08:12:25.873Z</time></trkpt><trkpt lat="44.2695411" lon="11.7628385"><ele>67.0</ele><time>2026-04-23T08:12:27.873Z</time></trkpt><trkpt lat="44.2695934" lon="11.7628959"><ele>67.0</ele><time>2026-04-23T08:12:28.872Z</time></trkpt><trkpt lat="44.2696452" lon="11.7629488"><ele>67.0</ele><time>2026-04-23T08:12:29.872Z</time></trkpt><trkpt lat="44.2697009" lon="11.762999"><ele>67.33333333333333</ele><time>2026-04-23T08:12:30.873Z</time></trkpt><trkpt lat="44.2698137" lon="11.7630704"><ele>67.66666666666666</ele><time>2026-04-23T08:12:32.873Z</time></trkpt><trkpt lat="44.2698716" lon="11.7631084"><ele>68.0</ele><time>2026-04-23T08:12:33.872Z</time></trkpt><trkpt lat="44.2699274" lon="11.7631514"><ele>68.33333333333333</ele><time>2026-04-23T08:12:34.873Z</time></trkpt><trkpt lat="44.269984" lon="11.7631957"><ele>68.66666666666667</ele><time>2026-04-23T08:12:35.872Z</time></trkpt><trkpt lat="44.2700435" lon="11.7632398"><ele>69.0</ele><time>2026-04-23T08:12:36.872Z</time></trkpt><trkpt lat="44.2701057" lon="11.7632969"><ele>69.0</ele><time>2026-04-23T08:12:37.872Z</time></trkpt><trkpt lat="44.2701679" lon="11.763356"><ele>69.0</ele><time>2026-04-23T08:12:38.873Z</time></trkpt><trkpt lat="44.2702328" lon="11.7634189"><ele>69.0</ele><time>2026-04-23T08:12:39.873Z</time></trkpt><trkpt lat="44.2703013" lon="11.7634755"><ele>69.0</ele><time>2026-04-23T08:12:40.873Z</time></trkpt><trkpt lat="44.2703667" lon="11.7635357"><ele>69.0</ele><time>2026-04-23T08:12:41.872Z</time></trkpt><trkpt lat="44.2704326" lon="11.7635976"><ele>69.0</ele><time>2026-04-23T08:12:42.872Z</time></trkpt><trkpt lat="44.2704997" lon="11.7636551"><ele>68.33333333333333</ele><time>2026-04-23T08:12:43.872Z</time></trkpt><trkpt lat="44.2705664" lon="11.763703"><ele>67.66666666666667</ele><time>2026-04-23T08:12:44.873Z</time></trkpt><trkpt lat="44.2706371" lon="11.7637488"><ele>67.0</ele><time>2026-04-23T08:12:45.873Z</time></trkpt><trkpt lat="44.2707104" lon="11.7637926"><ele>66.33333333333334</ele><time>2026-04-23T08:12:46.873Z</time></trkpt><trkpt lat="44.2707868" lon="11.7638342"><ele>65.66666666666667</ele><time>2026-04-23T08:12:47.872Z</time></trkpt><trkpt lat="44.270864" lon="11.7638727"><ele>65.0</ele><time>2026-04-23T08:12:48.873Z</time></trkpt><trkpt lat="44.2709398" lon="11.7639096"><ele>65.0</ele><time>2026-04-23T08:12:49.872Z</time></trkpt><trkpt lat="44.2710152" lon="11.7639436"><ele>65.0</ele><time>2026-04-23T08:12:50.873Z</time></trkpt><trkpt lat="44.2710889" lon="11.7639716"><ele>65.0</ele><time>2026-04-23T08:12:51.873Z</time></trkpt><trkpt lat="44.2711644" lon="11.7639988"><ele>65.0</ele><time>2026-04-23T08:12:52.873Z</time></trkpt><trkpt lat="44.2712411" lon="11.764014"><ele>65.0</ele><time>2026-04-23T08:12:53.872Z</time></trkpt><trkpt lat="44.2713149" lon="11.7640265"><ele>65.0</ele><time>2026-04-23T08:12:54.872Z</time></trkpt><trkpt lat="44.2713837" lon="11.7640483"><ele>64.00000000000001</ele><time>2026-04-23T08:12:55.872Z</time></trkpt><trkpt lat="44.2714467" lon="11.7640746"><ele>63.0</ele><time>2026-04-23T08:12:56.873Z</time></trkpt><trkpt lat="44.2715108" lon="11.7640942"><ele>62.00000000000001</ele><time>2026-04-23T08:12:57.873Z</time></trkpt><trkpt lat="44.2715802" lon="11.7641091"><ele>61.00000000000001</ele><time>2026-04-23T08:12:58.872Z</time></trkpt><trkpt lat="44.2716469" lon="11.7641228"><ele>60.0</ele><time>2026-04-23T08:12:59.873Z</time></trkpt><trkpt lat="44.2717126" lon="11.7641349"><ele>59.00000000000001</ele><time>2026-04-23T08:13:00.872Z</time></trkpt><trkpt lat="44.2717791" lon="11.7641498"><ele>58.00000000000001</ele><time>2026-04-23T08:13:01.872Z</time></trkpt><trkpt lat="44.2718438" lon="11.7641601"><ele>57.99999999999999</ele><time>2026-04-23T08:13:02.873Z</time></trkpt><trkpt lat="44.2719115" lon="11.7641666"><ele>58.0</ele><time>2026-04-23T08:13:03.872Z</time></trkpt><trkpt lat="44.2719777" lon="11.7641856"><ele>58.0</ele><time>2026-04-23T08:13:04.872Z</time></trkpt><trkpt lat="44.272096" lon="11.7642363"><ele>58.0</ele><time>2026-04-23T08:13:06.872Z</time></trkpt><trkpt lat="44.2721564" lon="11.7642653"><ele>57.99999999999999</ele><time>2026-04-23T08:13:07.873Z</time></trkpt><trkpt lat="44.2722153" lon="11.7643021"><ele>58.0</ele><time>2026-04-23T08:13:08.873Z</time></trkpt><trkpt lat="44.2723211" lon="11.7643921"><ele>57.25</ele><time>2026-04-23T08:13:10.873Z</time></trkpt><trkpt lat="44.2724196" lon="11.7644942"><ele>56.5</ele><time>2026-04-23T08:13:12.872Z</time></trkpt><trkpt lat="44.2725163" lon="11.7645944"><ele>55.75</ele><time>2026-04-23T08:13:14.872Z</time></trkpt><trkpt lat="44.2726102" lon="11.764708"><ele>55.0</ele><time>2026-04-23T08:13:16.872Z</time></trkpt><trkpt lat="44.2727089" lon="11.7648149"><ele>54.99999999999999</ele><time>2026-04-23T08:13:18.872Z</time></trkpt><trkpt lat="44.2727589" lon="11.7648761"><ele>55.0</ele><time>2026-04-23T08:13:19.873Z</time></trkpt><trkpt lat="44.2728096" lon="11.7649343"><ele>55.0</ele><time>2026-04-23T08:13:20.872Z</time></trkpt><trkpt lat="44.2728629" lon="11.7649917"><ele>55.0</ele><time>2026-04-23T08:13:21.873Z</time></trkpt><trkpt lat="44.2729135" lon="11.7650487"><ele>54.99999999999999</ele><time>2026-04-23T08:13:22.872Z</time></trkpt><trkpt lat="44.2730063" lon="11.7651624"><ele>55.0</ele><time>2026-04-23T08:13:24.873Z</time></trkpt><trkpt lat="44.2731042" lon="11.7652716"><ele>54.99999999999999</ele><time>2026-04-23T08:13:26.873Z</time></trkpt><trkpt lat="44.2731549" lon="11.765325"><ele>55.0</ele><time>2026-04-23T08:13:27.872Z</time></trkpt><trkpt lat="44.2732063" lon="11.7653777"><ele>55.0</ele><time>2026-04-23T08:13:28.873Z</time></trkpt><trkpt lat="44.273304" lon="11.7654882"><ele>55.0</ele><time>2026-04-23T08:13:30.872Z</time></trkpt><trkpt lat="44.27335" lon="11.7655489"><ele>54.99999999999999</ele><time>2026-04-23T08:13:31.873Z</time></trkpt><trkpt lat="44.2734301" lon="11.7656859"><ele>55.0</ele><time>2026-04-23T08:13:33.873Z</time></trkpt><trkpt lat="44.2734592" lon="11.7657676"><ele>55.0</ele><time>2026-04-23T08:13:34.873Z</time></trkpt><trkpt lat="44.2734852" lon="11.7659326"><ele>55.0</ele><time>2026-04-23T08:13:36.872Z</time></trkpt><trkpt lat="44.2734702" lon="11.766106"><ele>55.0</ele><time>2026-04-23T08:13:38.873Z</time></trkpt><trkpt lat="44.2734548" lon="11.7662714"><ele>55.0</ele><time>2026-04-23T08:13:40.872Z</time></trkpt><trkpt lat="44.2734367" lon="11.7664367"><ele>55.4</ele><time>2026-04-23T08:13:42.872Z</time></trkpt><trkpt lat="44.2734358" lon="11.7666105"><ele>55.8</ele><time>2026-04-23T08:13:44.872Z</time></trkpt><trkpt lat="44.2734548" lon="11.7666953"><ele>56.2</ele><time>2026-04-23T08:13:45.873Z</time></trkpt><trkpt lat="44.2734864" lon="11.7667724"><ele>56.6</ele><time>2026-04-23T08:13:46.872Z</time></trkpt><trkpt lat="44.2735654" lon="11.7668976"><ele>57.0</ele><time>2026-04-23T08:13:48.872Z</time></trkpt><trkpt lat="44.2736537" lon="11.7670196"><ele>57.25</ele><time>2026-04-23T08:13:50.873Z</time></trkpt><trkpt lat="44.2737453" lon="11.7671422"><ele>57.5</ele><time>2026-04-23T08:13:52.873Z</time></trkpt><trkpt lat="44.2738355" lon="11.7672631"><ele>57.75</ele><time>2026-04-23T08:13:54.872Z</time></trkpt><trkpt lat="44.2739221" lon="11.7673838"><ele>58.0</ele><time>2026-04-23T08:13:56.873Z</time></trkpt><trkpt lat="44.2740129" lon="11.7674986"><ele>58.0</ele><time>2026-04-23T08:13:58.873Z</time></trkpt><trkpt lat="44.2740601" lon="11.7675585"><ele>58.0</ele><time>2026-04-23T08:13:59.872Z</time></trkpt><trkpt lat="44.2741536" lon="11.7676646"><ele>58.0</ele><time>2026-04-23T08:14:01.873Z</time></trkpt><trkpt lat="44.2742476" lon="11.7677713"><ele>58.0</ele><time>2026-04-23T08:14:03.872Z</time></trkpt><trkpt lat="44.2743417" lon="11.7678793"><ele>58.0</ele><time>2026-04-23T08:14:05.872Z</time></trkpt><trkpt lat="44.2744339" lon="11.7679783"><ele>59.0</ele><time>2026-04-23T08:14:07.873Z</time></trkpt><trkpt lat="44.2745301" lon="11.7680744"><ele>60.0</ele><time>2026-04-23T08:14:09.872Z</time></trkpt><trkpt lat="44.2745799" lon="11.7681301"><ele>61.0</ele><time>2026-04-23T08:14:10.873Z</time></trkpt><trkpt lat="44.2746762" lon="11.7682293"><ele>62.0</ele><time>2026-04-23T08:14:12.872Z</time></trkpt><trkpt lat="44.2747674" lon="11.7683219"><ele>63.0</ele><time>2026-04-23T08:14:14.872Z</time></trkpt><trkpt lat="44.2748584" lon="11.7684041"><ele>63.0</ele><time>2026-04-23T08:14:16.872Z</time></trkpt><trkpt lat="44.2749599" lon="11.7684772"><ele>63.0</ele><time>2026-04-23T08:14:18.873Z</time></trkpt><trkpt lat="44.2750725" lon="11.7685432"><ele>63.0</ele><time>2026-04-23T08:14:20.872Z</time></trkpt><trkpt lat="44.2751347" lon="11.7685703"><ele>63.0</ele><time>2026-04-23T08:14:21.873Z</time></trkpt><trkpt lat="44.2752011" lon="11.7685962"><ele>63.0</ele><time>2026-04-23T08:14:22.872Z</time></trkpt><trkpt lat="44.2752666" lon="11.768617"><ele>63.0</ele><time>2026-04-23T08:14:23.872Z</time></trkpt><trkpt lat="44.275331" lon="11.7686329"><ele>63.8</ele><time>2026-04-23T08:14:24.873Z</time></trkpt><trkpt lat="44.2753932" lon="11.7686483"><ele>64.6</ele><time>2026-04-23T08:14:25.872Z</time></trkpt><trkpt lat="44.2754568" lon="11.7686629"><ele>65.4</ele><time>2026-04-23T08:14:26.873Z</time></trkpt><trkpt lat="44.2755766" lon="11.7686966"><ele>66.2</ele><time>2026-04-23T08:14:28.873Z</time></trkpt><trkpt lat="44.2756912" lon="11.7687503"><ele>67.0</ele><time>2026-04-23T08:14:30.873Z</time></trkpt><trkpt lat="44.2758033" lon="11.7688134"><ele>67.0</ele><time>2026-04-23T08:14:32.873Z</time></trkpt><trkpt lat="44.2759139" lon="11.7688921"><ele>67.0</ele><time>2026-04-23T08:14:34.872Z</time></trkpt><trkpt lat="44.2760146" lon="11.7689769"><ele>67.0</ele><time>2026-04-23T08:14:36.873Z</time></trkpt><trkpt lat="44.2761136" lon="11.7690693"><ele>67.0</ele><time>2026-04-23T08:14:38.872Z</time></trkpt><trkpt lat="44.2762108" lon="11.76916"><ele>67.0</ele><time>2026-04-23T08:14:40.872Z</time></trkpt><trkpt lat="44.2763088" lon="11.7692445"><ele>67.0</ele><time>2026-04-23T08:14:42.873Z</time></trkpt><trkpt lat="44.2764031" lon="11.7693192"><ele>67.0</ele><time>2026-04-23T08:14:44.873Z</time></trkpt><trkpt lat="44.276491" lon="11.7694067"><ele>67.0</ele><time>2026-04-23T08:14:46.872Z</time></trkpt><trkpt lat="44.276578" lon="11.7694886"><ele>67.0</ele><time>2026-04-23T08:14:48.872Z</time></trkpt><trkpt lat="44.2766683" lon="11.7695628"><ele>67.5</ele><time>2026-04-23T08:14:50.873Z</time></trkpt><trkpt lat="44.2767573" lon="11.7696501"><ele>68.0</ele><time>2026-04-23T08:14:52.872Z</time></trkpt><trkpt lat="44.276848" lon="11.7697428"><ele>68.5</ele><time>2026-04-23T08:14:54.873Z</time></trkpt><trkpt lat="44.276942" lon="11.7698293"><ele>69.0</ele><time>2026-04-23T08:14:56.873Z</time></trkpt><trkpt lat="44.277039" lon="11.7699258"><ele>69.0</ele><time>2026-04-23T08:14:58.872Z</time></trkpt><trkpt lat="44.277135" lon="11.7700246"><ele>69.0</ele><time>2026-04-23T08:15:00.873Z</time></trkpt><trkpt lat="44.2772328" lon="11.7701243"><ele>69.0</ele><time>2026-04-23T08:15:02.873Z</time></trkpt><trkpt lat="44.2772833" lon="11.7701774"><ele>69.0</ele><time>2026-04-23T08:15:03.872Z</time></trkpt><trkpt lat="44.2773347" lon="11.7702327"><ele>69.0</ele><time>2026-04-23T08:15:04.872Z</time></trkpt><trkpt lat="44.2774406" lon="11.7703386"><ele>68.8</ele><time>2026-04-23T08:15:06.873Z</time></trkpt><trkpt lat="44.2774961" lon="11.7703923"><ele>68.60000000000001</ele><time>2026-04-23T08:15:07.872Z</time></trkpt><trkpt lat="44.2775476" lon="11.770446"><ele>68.4</ele><time>2026-04-23T08:15:08.873Z</time></trkpt><trkpt lat="44.2776431" lon="11.7705473"><ele>68.2</ele><time>2026-04-23T08:15:10.873Z</time></trkpt><trkpt lat="44.2777451" lon="11.7706494"><ele>68.0</ele><time>2026-04-23T08:15:12.872Z</time></trkpt><trkpt lat="44.2778393" lon="11.7707489"><ele>68.0</ele><time>2026-04-23T08:15:14.872Z</time></trkpt><trkpt lat="44.2779413" lon="11.7708451"><ele>68.0</ele><time>2026-04-23T08:15:16.872Z</time></trkpt><trkpt lat="44.2780383" lon="11.7709486"><ele>68.0</ele><time>2026-04-23T08:15:18.873Z</time></trkpt><trkpt lat="44.278132" lon="11.7710547"><ele>68.0</ele><time>2026-04-23T08:15:20.872Z</time></trkpt><trkpt lat="44.2782287" lon="11.7711416"><ele>68.5</ele><time>2026-04-23T08:15:22.873Z</time></trkpt><trkpt lat="44.2783273" lon="11.7712281"><ele>69.0</ele><time>2026-04-23T08:15:24.873Z</time></trkpt><trkpt lat="44.2784291" lon="11.7713024"><ele>69.5</ele><time>2026-04-23T08:15:26.872Z</time></trkpt><trkpt lat="44.2785338" lon="11.7713772"><ele>70.0</ele><time>2026-04-23T08:15:28.873Z</time></trkpt><trkpt lat="44.2786455" lon="11.7714448"><ele>70.0</ele><time>2026-04-23T08:15:30.872Z</time></trkpt><trkpt lat="44.278758" lon="11.7715176"><ele>70.0</ele><time>2026-04-23T08:15:32.872Z</time></trkpt><trkpt lat="44.2788658" lon="11.7715831"><ele>70.0</ele><time>2026-04-23T08:15:34.873Z</time></trkpt><trkpt lat="44.2789695" lon="11.7716515"><ele>70.0</ele><time>2026-04-23T08:15:36.872Z</time></trkpt><trkpt lat="44.2790745" lon="11.7717301"><ele>69.8</ele><time>2026-04-23T08:15:38.872Z</time></trkpt><trkpt lat="44.2791866" lon="11.7718024"><ele>69.6</ele><time>2026-04-23T08:15:40.873Z</time></trkpt><trkpt lat="44.2792965" lon="11.7718753"><ele>69.4</ele><time>2026-04-23T08:15:42.872Z</time></trkpt><trkpt lat="44.279407" lon="11.7719455"><ele>69.2</ele><time>2026-04-23T08:15:44.872Z</time></trkpt><trkpt lat="44.2794669" lon="11.7719866"><ele>69.0</ele><time>2026-04-23T08:15:45.872Z</time></trkpt><trkpt lat="44.2795749" lon="11.7720475"><ele>69.75</ele><time>2026-04-23T08:15:47.872Z</time></trkpt><trkpt lat="44.2796824" lon="11.7721355"><ele>70.5</ele><time>2026-04-23T08:15:49.873Z</time></trkpt><trkpt lat="44.2797907" lon="11.7722186"><ele>71.25</ele><time>2026-04-23T08:15:51.872Z</time></trkpt><trkpt lat="44.2798985" lon="11.7723028"><ele>72.0</ele><time>2026-04-23T08:15:53.872Z</time></trkpt><trkpt lat="44.2799997" lon="11.7723962"><ele>72.0</ele><time>2026-04-23T08:15:55.872Z</time></trkpt><trkpt lat="44.2801093" lon="11.7724775"><ele>72.0</ele><time>2026-04-23T08:15:57.873Z</time></trkpt><trkpt lat="44.280165" lon="11.7725247"><ele>72.0</ele><time>2026-04-23T08:15:58.872Z</time></trkpt><trkpt lat="44.2802209" lon="11.7725678"><ele>72.0</ele><time>2026-04-23T08:15:59.872Z</time></trkpt><trkpt lat="44.2803275" lon="11.7726572"><ele>72.0</ele><time>2026-04-23T08:16:01.873Z</time></trkpt><trkpt lat="44.2804344" lon="11.7727455"><ele>72.0</ele><time>2026-04-23T08:16:03.873Z</time></trkpt><trkpt lat="44.2804895" lon="11.7727894"><ele>72.0</ele><time>2026-04-23T08:16:04.873Z</time></trkpt><trkpt lat="44.2805965" lon="11.7728803"><ele>72.0</ele><time>2026-04-23T08:16:06.873Z</time></trkpt><trkpt lat="44.2807079" lon="11.7729555"><ele>72.0</ele><time>2026-04-23T08:16:08.872Z</time></trkpt><trkpt lat="44.2807677" lon="11.7729952"><ele>72.0</ele><time>2026-04-23T08:16:09.873Z</time></trkpt><trkpt lat="44.280828" lon="11.7730332"><ele>72.0</ele><time>2026-04-23T08:16:10.873Z</time></trkpt><trkpt lat="44.2809379" lon="11.7731115"><ele>71.2</ele><time>2026-04-23T08:16:12.872Z</time></trkpt><trkpt lat="44.2810495" lon="11.7731956"><ele>70.4</ele><time>2026-04-23T08:16:14.872Z</time></trkpt><trkpt lat="44.2811566" lon="11.7732701"><ele>69.6</ele><time>2026-04-23T08:16:16.873Z</time></trkpt><trkpt lat="44.2812599" lon="11.773354"><ele>68.8</ele><time>2026-04-23T08:16:18.872Z</time></trkpt><trkpt lat="44.2813163" lon="11.7733933"><ele>68.0</ele><time>2026-04-23T08:16:19.873Z</time></trkpt><trkpt lat="44.281373" lon="11.7734329"><ele>68.0</ele><time>2026-04-23T08:16:20.872Z</time></trkpt><trkpt lat="44.2814298" lon="11.7734751"><ele>68.0</ele><time>2026-04-23T08:16:21.873Z</time></trkpt><trkpt lat="44.2814879" lon="11.7735129"><ele>68.0</ele><time>2026-04-23T08:16:22.872Z</time></trkpt><trkpt lat="44.2815454" lon="11.7735517"><ele>68.0</ele><time>2026-04-23T08:16:23.871Z</time></trkpt><trkpt lat="44.2816567" lon="11.7736222"><ele>68.0</ele><time>2026-04-23T08:16:25.871Z</time></trkpt><trkpt lat="44.2817692" lon="11.7736915"><ele>68.0</ele><time>2026-04-23T08:16:27.872Z</time></trkpt><trkpt lat="44.281887" lon="11.7737543"><ele>68.14285714285714</ele><time>2026-04-23T08:16:29.872Z</time></trkpt><trkpt lat="44.2820042" lon="11.7738051"><ele>68.28571428571428</ele><time>2026-04-23T08:16:31.871Z</time></trkpt><trkpt lat="44.2820653" lon="11.7738305"><ele>68.42857142857143</ele><time>2026-04-23T08:16:32.871Z</time></trkpt><trkpt lat="44.2821298" lon="11.7738535"><ele>68.57142857142857</ele><time>2026-04-23T08:16:33.871Z</time></trkpt><trkpt lat="44.282191" lon="11.7738816"><ele>68.71428571428572</ele><time>2026-04-23T08:16:34.871Z</time></trkpt><trkpt lat="44.2822505" lon="11.7739124"><ele>68.85714285714286</ele><time>2026-04-23T08:16:35.871Z</time></trkpt><trkpt lat="44.2823106" lon="11.7739403"><ele>69.0</ele><time>2026-04-23T08:16:36.872Z</time></trkpt><trkpt lat="44.282371" lon="11.7739704"><ele>69.0</ele><time>2026-04-23T08:16:37.872Z</time></trkpt><trkpt lat="44.282428" lon="11.7740109"><ele>69.0</ele><time>2026-04-23T08:16:38.871Z</time></trkpt><trkpt lat="44.2824818" lon="11.77406"><ele>69.0</ele><time>2026-04-23T08:16:39.872Z</time></trkpt><trkpt lat="44.2825335" lon="11.7741113"><ele>69.0</ele><time>2026-04-23T08:16:40.871Z</time></trkpt><trkpt lat="44.2825886" lon="11.7741619"><ele>69.0</ele><time>2026-04-23T08:16:41.871Z</time></trkpt><trkpt lat="44.282645" lon="11.7742109"><ele>69.0</ele><time>2026-04-23T08:16:42.871Z</time></trkpt><trkpt lat="44.2827015" lon="11.7742599"><ele>69.0</ele><time>2026-04-23T08:16:43.871Z</time></trkpt><trkpt lat="44.2827561" lon="11.7743098"><ele>69.16666666666667</ele><time>2026-04-23T08:16:44.872Z</time></trkpt><trkpt lat="44.2828632" lon="11.7744024"><ele>69.33333333333333</ele><time>2026-04-23T08:16:46.871Z</time></trkpt><trkpt lat="44.2829192" lon="11.7744462"><ele>69.5</ele><time>2026-04-23T08:16:47.871Z</time></trkpt><trkpt lat="44.2829738" lon="11.7744903"><ele>69.66666666666666</ele><time>2026-04-23T08:16:48.871Z</time></trkpt><trkpt lat="44.283029" lon="11.7745337"><ele>69.83333333333333</ele><time>2026-04-23T08:16:49.871Z</time></trkpt><trkpt lat="44.2831363" lon="11.7746297"><ele>70.0</ele><time>2026-04-23T08:16:51.871Z</time></trkpt><trkpt lat="44.2832422" lon="11.7747164"><ele>69.5</ele><time>2026-04-23T08:16:53.872Z</time></trkpt><trkpt lat="44.2833521" lon="11.774801"><ele>69.0</ele><time>2026-04-23T08:16:55.871Z</time></trkpt><trkpt lat="44.2834102" lon="11.7748458"><ele>68.5</ele><time>2026-04-23T08:16:56.871Z</time></trkpt><trkpt lat="44.2834643" lon="11.774894"><ele>68.0</ele><time>2026-04-23T08:16:57.872Z</time></trkpt><trkpt lat="44.2835227" lon="11.7749457"><ele>67.5</ele><time>2026-04-23T08:16:58.871Z</time></trkpt><trkpt lat="44.2835769" lon="11.7749911"><ele>67.0</ele><time>2026-04-23T08:16:59.871Z</time></trkpt><trkpt lat="44.2836322" lon="11.775035"><ele>67.0</ele><time>2026-04-23T08:17:00.872Z</time></trkpt><trkpt lat="44.2837381" lon="11.7751245"><ele>67.0</ele><time>2026-04-23T08:17:02.871Z</time></trkpt><trkpt lat="44.2838457" lon="11.775219"><ele>67.0</ele><time>2026-04-23T08:17:04.871Z</time></trkpt><trkpt lat="44.2839014" lon="11.7752631"><ele>67.0</ele><time>2026-04-23T08:17:05.872Z</time></trkpt><trkpt lat="44.2839581" lon="11.7753058"><ele>67.0</ele><time>2026-04-23T08:17:06.871Z</time></trkpt><trkpt lat="44.2840168" lon="11.7753509"><ele>67.0</ele><time>2026-04-23T08:17:07.871Z</time></trkpt><trkpt lat="44.2840737" lon="11.7754057"><ele>66.83333333333333</ele><time>2026-04-23T08:17:08.872Z</time></trkpt><trkpt lat="44.2841292" lon="11.7754544"><ele>66.66666666666666</ele><time>2026-04-23T08:17:09.871Z</time></trkpt><trkpt lat="44.2841863" lon="11.7755045"><ele>66.5</ele><time>2026-04-23T08:17:10.871Z</time></trkpt><trkpt lat="44.2842457" lon="11.77555"><ele>66.33333333333333</ele><time>2026-04-23T08:17:11.871Z</time></trkpt><trkpt lat="44.2843024" lon="11.7755976"><ele>66.16666666666667</ele><time>2026-04-23T08:17:12.872Z</time></trkpt><trkpt lat="44.2843571" lon="11.7756446"><ele>66.0</ele><time>2026-04-23T08:17:13.871Z</time></trkpt><trkpt lat="44.2844677" lon="11.775731"><ele>66.0</ele><time>2026-04-23T08:17:15.871Z</time></trkpt><trkpt lat="44.2845252" lon="11.7757721"><ele>66.0</ele><time>2026-04-23T08:17:16.871Z</time></trkpt><trkpt lat="44.2845811" lon="11.7758158"><ele>66.0</ele><time>2026-04-23T08:17:17.872Z</time></trkpt><trkpt lat="44.2846869" lon="11.7759087"><ele>66.0</ele><time>2026-04-23T08:17:19.871Z</time></trkpt><trkpt lat="44.2847952" lon="11.7759942"><ele>66.0</ele><time>2026-04-23T08:17:21.872Z</time></trkpt><trkpt lat="44.2848529" lon="11.7760353"><ele>66.0</ele><time>2026-04-23T08:17:22.872Z</time></trkpt><trkpt lat="44.2849096" lon="11.7760784"><ele>65.5</ele><time>2026-04-23T08:17:23.872Z</time></trkpt><trkpt lat="44.2850175" lon="11.7761664"><ele>65.0</ele><time>2026-04-23T08:17:25.871Z</time></trkpt><trkpt lat="44.2851253" lon="11.7762572"><ele>64.5</ele><time>2026-04-23T08:17:27.871Z</time></trkpt><trkpt lat="44.2852332" lon="11.7763401"><ele>64.0</ele><time>2026-04-23T08:17:29.872Z</time></trkpt><trkpt lat="44.285341" lon="11.7764263"><ele>63.99999999999999</ele><time>2026-04-23T08:17:31.872Z</time></trkpt><trkpt lat="44.2854514" lon="11.7765127"><ele>64.0</ele><time>2026-04-23T08:17:33.871Z</time></trkpt><trkpt lat="44.2855113" lon="11.7765526"><ele>64.0</ele><time>2026-04-23T08:17:34.871Z</time></trkpt><trkpt lat="44.2855688" lon="11.7765962"><ele>64.0</ele><time>2026-04-23T08:17:35.871Z</time></trkpt><trkpt lat="44.2856806" lon="11.7766772"><ele>63.99999999999999</ele><time>2026-04-23T08:17:37.871Z</time></trkpt><trkpt lat="44.2857368" lon="11.7767176"><ele>64.0</ele><time>2026-04-23T08:17:38.871Z</time></trkpt><trkpt lat="44.2857943" lon="11.7767581"><ele>63.99999999999999</ele><time>2026-04-23T08:17:39.872Z</time></trkpt><trkpt lat="44.2858503" lon="11.7768061"><ele>64.0</ele><time>2026-04-23T08:17:40.872Z</time></trkpt><trkpt lat="44.2859092" lon="11.7768481"><ele>64.0</ele><time>2026-04-23T08:17:41.871Z</time></trkpt><trkpt lat="44.2860213" lon="11.7769301"><ele>64.0</ele><time>2026-04-23T08:17:43.872Z</time></trkpt><trkpt lat="44.2860775" lon="11.7769716"><ele>63.99999999999999</ele><time>2026-04-23T08:17:44.871Z</time></trkpt><trkpt lat="44.2861787" lon="11.777058"><ele>64.0</ele><time>2026-04-23T08:17:46.871Z</time></trkpt><trkpt lat="44.2862867" lon="11.7771396"><ele>63.99999999999999</ele><time>2026-04-23T08:17:48.871Z</time></trkpt><trkpt lat="44.2863913" lon="11.7772243"><ele>64.0</ele><time>2026-04-23T08:17:50.871Z</time></trkpt><trkpt lat="44.2864447" lon="11.7772723"><ele>64.0</ele><time>2026-04-23T08:17:51.871Z</time></trkpt><trkpt lat="44.2865544" lon="11.7773572"><ele>64.0</ele><time>2026-04-23T08:17:53.872Z</time></trkpt><trkpt lat="44.2866116" lon="11.7774026"><ele>63.99999999999999</ele><time>2026-04-23T08:17:54.871Z</time></trkpt><trkpt lat="44.2866703" lon="11.7774445"><ele>64.0</ele><time>2026-04-23T08:17:55.871Z</time></trkpt><trkpt lat="44.2867272" lon="11.777486"><ele>63.71428571428571</ele><time>2026-04-23T08:17:56.872Z</time></trkpt><trkpt lat="44.286783" lon="11.7775293"><ele>63.42857142857142</ele><time>2026-04-23T08:17:57.872Z</time></trkpt><trkpt lat="44.2868382" lon="11.7775748"><ele>63.14285714285714</ele><time>2026-04-23T08:17:58.872Z</time></trkpt><trkpt lat="44.2868951" lon="11.7776174"><ele>62.85714285714286</ele><time>2026-04-23T08:17:59.872Z</time></trkpt><trkpt lat="44.286954" lon="11.7776635"><ele>62.57142857142858</ele><time>2026-04-23T08:18:00.872Z</time></trkpt><trkpt lat="44.2870112" lon="11.7777073"><ele>62.28571428571429</ele><time>2026-04-23T08:18:01.871Z</time></trkpt><trkpt lat="44.2870683" lon="11.7777517"><ele>62.0</ele><time>2026-04-23T08:18:02.872Z</time></trkpt><trkpt lat="44.287126" lon="11.7777977"><ele>62.00000000000001</ele><time>2026-04-23T08:18:03.871Z</time></trkpt><trkpt lat="44.2871831" lon="11.7778418"><ele>62.0</ele><time>2026-04-23T08:18:04.872Z</time></trkpt><trkpt lat="44.2872965" lon="11.777921"><ele>62.0</ele><time>2026-04-23T08:18:06.871Z</time></trkpt><trkpt lat="44.2873532" lon="11.7779601"><ele>62.0</ele><time>2026-04-23T08:18:07.872Z</time></trkpt><trkpt lat="44.2874633" lon="11.7780464"><ele>62.00000000000001</ele><time>2026-04-23T08:18:09.871Z</time></trkpt><trkpt lat="44.2875195" lon="11.778088"><ele>62.0</ele><time>2026-04-23T08:18:10.872Z</time></trkpt><trkpt lat="44.2875757" lon="11.7781327"><ele>61.57142857142858</ele><time>2026-04-23T08:18:11.871Z</time></trkpt><trkpt lat="44.2876319" lon="11.7781765"><ele>61.14285714285715</ele><time>2026-04-23T08:18:12.872Z</time></trkpt><trkpt lat="44.2877383" lon="11.778272"><ele>60.714285714285715</ele><time>2026-04-23T08:18:14.872Z</time></trkpt><trkpt lat="44.2877935" lon="11.7783156"><ele>60.28571428571429</ele><time>2026-04-23T08:18:15.872Z</time></trkpt><trkpt lat="44.2878486" lon="11.7783633"><ele>59.85714285714286</ele><time>2026-04-23T08:18:16.872Z</time></trkpt><trkpt lat="44.2879031" lon="11.7784117"><ele>59.42857142857143</ele><time>2026-04-23T08:18:17.871Z</time></trkpt><trkpt lat="44.287956" lon="11.7784631"><ele>59.0</ele><time>2026-04-23T08:18:18.871Z</time></trkpt><trkpt lat="44.2880105" lon="11.7785128"><ele>59.14285714285714</ele><time>2026-04-23T08:18:19.871Z</time></trkpt><trkpt lat="44.288062" lon="11.7785665"><ele>59.28571428571429</ele><time>2026-04-23T08:18:20.872Z</time></trkpt><trkpt lat="44.2881124" lon="11.7786207"><ele>59.42857142857143</ele><time>2026-04-23T08:18:21.872Z</time></trkpt><trkpt lat="44.2881686" lon="11.7786735"><ele>59.57142857142857</ele><time>2026-04-23T08:18:22.871Z</time></trkpt><trkpt lat="44.2882237" lon="11.7787301"><ele>59.71428571428571</ele><time>2026-04-23T08:18:23.871Z</time></trkpt><trkpt lat="44.2882756" lon="11.7787818"><ele>59.85714285714286</ele><time>2026-04-23T08:18:24.872Z</time></trkpt><trkpt lat="44.2883269" lon="11.778836"><ele>60.0</ele><time>2026-04-23T08:18:25.872Z</time></trkpt><trkpt lat="44.2883776" lon="11.7788894"><ele>59.666666666666664</ele><time>2026-04-23T08:18:26.871Z</time></trkpt><trkpt lat="44.288429" lon="11.7789447"><ele>59.33333333333333</ele><time>2026-04-23T08:18:27.871Z</time></trkpt><trkpt lat="44.2885317" lon="11.7790448"><ele>59.0</ele><time>2026-04-23T08:18:29.871Z</time></trkpt><trkpt lat="44.2885849" lon="11.779099"><ele>58.666666666666664</ele><time>2026-04-23T08:18:30.872Z</time></trkpt><trkpt lat="44.2886361" lon="11.7791556"><ele>58.33333333333333</ele><time>2026-04-23T08:18:31.871Z</time></trkpt><trkpt lat="44.2886881" lon="11.7792068"><ele>58.0</ele><time>2026-04-23T08:18:32.871Z</time></trkpt><trkpt lat="44.2887403" lon="11.7792606"><ele>58.0</ele><time>2026-04-23T08:18:33.871Z</time></trkpt><trkpt lat="44.2887943" lon="11.7793084"><ele>58.0</ele><time>2026-04-23T08:18:34.872Z</time></trkpt><trkpt lat="44.2888459" lon="11.7793608"><ele>58.0</ele><time>2026-04-23T08:18:35.871Z</time></trkpt><trkpt lat="44.2889461" lon="11.7794639"><ele>58.0</ele><time>2026-04-23T08:18:37.872Z</time></trkpt><trkpt lat="44.2890434" lon="11.7795701"><ele>58.0</ele><time>2026-04-23T08:18:39.871Z</time></trkpt><trkpt lat="44.2891451" lon="11.7796769"><ele>58.33333333333333</ele><time>2026-04-23T08:18:41.871Z</time></trkpt><trkpt lat="44.2891972" lon="11.7797326"><ele>58.666666666666664</ele><time>2026-04-23T08:18:42.871Z</time></trkpt><trkpt lat="44.289251" lon="11.7797857"><ele>59.0</ele><time>2026-04-23T08:18:43.872Z</time></trkpt><trkpt lat="44.2893042" lon="11.7798384"><ele>59.33333333333333</ele><time>2026-04-23T08:18:44.872Z</time></trkpt><trkpt lat="44.2893574" lon="11.7798861"><ele>59.666666666666664</ele><time>2026-04-23T08:18:45.872Z</time></trkpt><trkpt lat="44.2894606" lon="11.7799818"><ele>60.0</ele><time>2026-04-23T08:18:47.871Z</time></trkpt><trkpt lat="44.289558" lon="11.7800822"><ele>60.0</ele><time>2026-04-23T08:18:49.872Z</time></trkpt><trkpt lat="44.2896581" lon="11.7801734"><ele>60.0</ele><time>2026-04-23T08:18:51.872Z</time></trkpt><trkpt lat="44.289767" lon="11.7802566"><ele>60.0</ele><time>2026-04-23T08:18:53.871Z</time></trkpt><trkpt lat="44.289824" lon="11.7802968"><ele>60.0</ele><time>2026-04-23T08:18:54.871Z</time></trkpt><trkpt lat="44.28994" lon="11.780351"><ele>60.0</ele><time>2026-04-23T08:18:56.872Z</time></trkpt><trkpt lat="44.2900503" lon="11.7803954"><ele>59.4</ele><time>2026-04-23T08:18:58.872Z</time></trkpt><trkpt lat="44.2901696" lon="11.7804143"><ele>58.8</ele><time>2026-04-23T08:19:00.871Z</time></trkpt><trkpt lat="44.2902915" lon="11.7804185"><ele>58.2</ele><time>2026-04-23T08:19:02.871Z</time></trkpt><trkpt lat="44.2903554" lon="11.7804136"><ele>57.6</ele><time>2026-04-23T08:19:03.872Z</time></trkpt><trkpt lat="44.2904743" lon="11.7803979"><ele>57.0</ele><time>2026-04-23T08:19:05.871Z</time></trkpt><trkpt lat="44.2905865" lon="11.7803831"><ele>57.0</ele><time>2026-04-23T08:19:07.872Z</time></trkpt><trkpt lat="44.2907" lon="11.7803802"><ele>57.0</ele><time>2026-04-23T08:19:09.871Z</time></trkpt><trkpt lat="44.2908171" lon="11.7804035"><ele>57.0</ele><time>2026-04-23T08:19:11.871Z</time></trkpt><trkpt lat="44.2909276" lon="11.7804685"><ele>57.0</ele><time>2026-04-23T08:19:13.871Z</time></trkpt><trkpt lat="44.2910422" lon="11.7805333"><ele>57.0</ele><time>2026-04-23T08:19:15.872Z</time></trkpt><trkpt lat="44.2911006" lon="11.780571"><ele>56.99999999999999</ele><time>2026-04-23T08:19:16.872Z</time></trkpt><trkpt lat="44.2911607" lon="11.7806094"><ele>57.0</ele><time>2026-04-23T08:19:17.872Z</time></trkpt><trkpt lat="44.2912221" lon="11.7806484"><ele>57.0</ele><time>2026-04-23T08:19:18.872Z</time></trkpt><trkpt lat="44.2912797" lon="11.7806903"><ele>56.99999999999999</ele><time>2026-04-23T08:19:19.871Z</time></trkpt><trkpt lat="44.2913357" lon="11.7807369"><ele>57.0</ele><time>2026-04-23T08:19:20.871Z</time></trkpt><trkpt lat="44.2913885" lon="11.7807857"><ele>57.0</ele><time>2026-04-23T08:19:21.871Z</time></trkpt><trkpt lat="44.2914386" lon="11.7808414"><ele>56.57142857142857</ele><time>2026-04-23T08:19:22.871Z</time></trkpt><trkpt lat="44.2914848" lon="11.7809057"><ele>56.14285714285714</ele><time>2026-04-23T08:19:23.872Z</time></trkpt><trkpt lat="44.2915281" lon="11.7809706"><ele>55.71428571428571</ele><time>2026-04-23T08:19:24.871Z</time></trkpt><trkpt lat="44.291568" lon="11.7810438"><ele>55.285714285714285</ele><time>2026-04-23T08:19:25.872Z</time></trkpt><trkpt lat="44.2916054" lon="11.7811197"><ele>54.857142857142854</ele><time>2026-04-23T08:19:26.871Z</time></trkpt><trkpt lat="44.29164" lon="11.7811974"><ele>54.42857142857143</ele><time>2026-04-23T08:19:27.872Z</time></trkpt><trkpt lat="44.2916961" lon="11.7813507"><ele>54.0</ele><time>2026-04-23T08:19:29.871Z</time></trkpt><trkpt lat="44.291762" lon="11.7815038"><ele>54.0</ele><time>2026-04-23T08:19:31.872Z</time></trkpt><trkpt lat="44.291795" lon="11.7815834"><ele>54.00000000000001</ele><time>2026-04-23T08:19:32.872Z</time></trkpt><trkpt lat="44.2918573" lon="11.7817361"><ele>54.00000000000001</ele><time>2026-04-23T08:19:34.872Z</time></trkpt><trkpt lat="44.291889" lon="11.7818128"><ele>54.0</ele><time>2026-04-23T08:19:35.872Z</time></trkpt><trkpt lat="44.2919484" lon="11.7819626"><ele>54.0</ele><time>2026-04-23T08:19:37.872Z</time></trkpt><trkpt lat="44.2920119" lon="11.7821077"><ele>54.2</ele><time>2026-04-23T08:19:39.872Z</time></trkpt><trkpt lat="44.2920718" lon="11.7822542"><ele>54.400000000000006</ele><time>2026-04-23T08:19:41.871Z</time></trkpt><trkpt lat="44.2921448" lon="11.7823787"><ele>54.6</ele><time>2026-04-23T08:19:43.871Z</time></trkpt><trkpt lat="44.2922188" lon="11.7824871"><ele>54.8</ele><time>2026-04-23T08:19:45.872Z</time></trkpt><trkpt lat="44.2922882" lon="11.7825912"><ele>55.0</ele><time>2026-04-23T08:19:47.871Z</time></trkpt><trkpt lat="44.2923645" lon="11.7826759"><ele>55.2</ele><time>2026-04-23T08:19:49.872Z</time></trkpt><trkpt lat="44.2924265" lon="11.7827613"><ele>55.4</ele><time>2026-04-23T08:19:51.872Z</time></trkpt><trkpt lat="44.292474" lon="11.7828305"><ele>55.599999999999994</ele><time>2026-04-23T08:19:53.871Z</time></trkpt><trkpt lat="44.2925554" lon="11.7829041"><ele>55.8</ele><time>2026-04-23T08:19:56.871Z</time></trkpt><trkpt lat="44.2926401" lon="11.78297"><ele>56.0</ele><time>2026-04-23T08:19:58.872Z</time></trkpt><trkpt lat="44.2927362" lon="11.7830451"><ele>56.00000000000001</ele><time>2026-04-23T08:20:00.872Z</time></trkpt><trkpt lat="44.2928478" lon="11.7831328"><ele>56.0</ele><time>2026-04-23T08:20:02.872Z</time></trkpt><trkpt lat="44.2929061" lon="11.783178"><ele>56.0</ele><time>2026-04-23T08:20:03.872Z</time></trkpt><trkpt lat="44.2929684" lon="11.7832185"><ele>56.0</ele><time>2026-04-23T08:20:04.871Z</time></trkpt><trkpt lat="44.2930364" lon="11.7832523"><ele>56.00000000000001</ele><time>2026-04-23T08:20:05.871Z</time></trkpt><trkpt lat="44.2931082" lon="11.7832842"><ele>56.0</ele><time>2026-04-23T08:20:06.872Z</time></trkpt><trkpt lat="44.2931772" lon="11.7833099"><ele>55.00000000000001</ele><time>2026-04-23T08:20:07.871Z</time></trkpt><trkpt lat="44.2932476" lon="11.7833309"><ele>54.0</ele><time>2026-04-23T08:20:08.871Z</time></trkpt><trkpt lat="44.2933164" lon="11.783339"><ele>53.0</ele><time>2026-04-23T08:20:09.871Z</time></trkpt><trkpt lat="44.2933858" lon="11.7833446"><ele>52.0</ele><time>2026-04-23T08:20:10.872Z</time></trkpt><trkpt lat="44.2934521" lon="11.7833466"><ele>51.00000000000001</ele><time>2026-04-23T08:20:11.871Z</time></trkpt><trkpt lat="44.2935773" lon="11.783342"><ele>50.0</ele><time>2026-04-23T08:20:13.871Z</time></trkpt><trkpt lat="44.2936934" lon="11.7833096"><ele>50.0</ele><time>2026-04-23T08:20:15.871Z</time></trkpt><trkpt lat="44.2937978" lon="11.7832582"><ele>50.0</ele><time>2026-04-23T08:20:17.871Z</time></trkpt><trkpt lat="44.2938961" lon="11.7832029"><ele>50.0</ele><time>2026-04-23T08:20:19.871Z</time></trkpt><trkpt lat="44.2939879" lon="11.7831469"><ele>50.0</ele><time>2026-04-23T08:20:21.872Z</time></trkpt><trkpt lat="44.2940772" lon="11.7830914"><ele>50.0</ele><time>2026-04-23T08:20:23.872Z</time></trkpt><trkpt lat="44.2941551" lon="11.7830468"><ele>49.333333333333336</ele><time>2026-04-23T08:20:25.871Z</time></trkpt><trkpt lat="44.2942367" lon="11.7830122"><ele>48.66666666666667</ele><time>2026-04-23T08:20:27.871Z</time></trkpt><trkpt lat="44.2943077" lon="11.7829748"><ele>48.0</ele><time>2026-04-23T08:20:29.872Z</time></trkpt><trkpt lat="44.2943734" lon="11.782925"><ele>47.333333333333336</ele><time>2026-04-23T08:20:31.872Z</time></trkpt><trkpt lat="44.294435" lon="11.7830022"><ele>46.66666666666667</ele><time>2026-04-23T08:20:35.872Z</time></trkpt><trkpt lat="44.2944283" lon="11.783142"><ele>46.0</ele><time>2026-04-23T08:20:37.871Z</time></trkpt><trkpt lat="44.2944344" lon="11.7832977"><ele>46.0</ele><time>2026-04-23T08:20:39.872Z</time></trkpt><trkpt lat="44.2944487" lon="11.783462"><ele>46.0</ele><time>2026-04-23T08:20:41.872Z</time></trkpt><trkpt lat="44.2944703" lon="11.7836331"><ele>46.0</ele><time>2026-04-23T08:20:43.871Z</time></trkpt><trkpt lat="44.2945025" lon="11.7837933"><ele>46.0</ele><time>2026-04-23T08:20:45.872Z</time></trkpt><trkpt lat="44.2945422" lon="11.7839431"><ele>46.0</ele><time>2026-04-23T08:20:47.871Z</time></trkpt><trkpt lat="44.2945873" lon="11.784091"><ele>46.0</ele><time>2026-04-23T08:20:49.872Z</time></trkpt><trkpt lat="44.2946429" lon="11.784239"><ele>46.0</ele><time>2026-04-23T08:20:51.871Z</time></trkpt><trkpt lat="44.2946981" lon="11.7843817"><ele>46.0</ele><time>2026-04-23T08:20:53.872Z</time></trkpt><trkpt lat="44.2947547" lon="11.7845334"><ele>46.0</ele><time>2026-04-23T08:20:55.872Z</time></trkpt><trkpt lat="44.2948126" lon="11.7846741"><ele>46.0</ele><time>2026-04-23T08:20:57.871Z</time></trkpt><trkpt lat="44.2948696" lon="11.7848223"><ele>46.0</ele><time>2026-04-23T08:20:59.872Z</time></trkpt><trkpt lat="44.2949274" lon="11.7849706"><ele>46.0</ele><time>2026-04-23T08:21:01.872Z</time></trkpt><trkpt lat="44.2949878" lon="11.7851088"><ele>46.75</ele><time>2026-04-23T08:21:03.871Z</time></trkpt><trkpt lat="44.2950562" lon="11.7852407"><ele>47.5</ele><time>2026-04-23T08:21:05.872Z</time></trkpt><trkpt lat="44.2951416" lon="11.7853564"><ele>48.25</ele><time>2026-04-23T08:21:07.872Z</time></trkpt><trkpt lat="44.2952286" lon="11.7854664"><ele>49.0</ele><time>2026-04-23T08:21:09.872Z</time></trkpt><trkpt lat="44.2953116" lon="11.7855835"><ele>49.0</ele><time>2026-04-23T08:21:11.871Z</time></trkpt><trkpt lat="44.2953876" lon="11.7856873"><ele>49.0</ele><time>2026-04-23T08:21:13.871Z</time></trkpt><trkpt lat="44.2954671" lon="11.7857987"><ele>49.0</ele><time>2026-04-23T08:21:15.871Z</time></trkpt><trkpt lat="44.2955491" lon="11.7859151"><ele>49.0</ele><time>2026-04-23T08:21:17.872Z</time></trkpt><trkpt lat="44.2956337" lon="11.7860279"><ele>48.6</ele><time>2026-04-23T08:21:19.871Z</time></trkpt><trkpt lat="44.2957121" lon="11.7861366"><ele>48.2</ele><time>2026-04-23T08:21:21.872Z</time></trkpt><trkpt lat="44.2957922" lon="11.7862278"><ele>47.800000000000004</ele><time>2026-04-23T08:21:23.871Z</time></trkpt><trkpt lat="44.2958742" lon="11.7863221"><ele>47.400000000000006</ele><time>2026-04-23T08:21:25.871Z</time></trkpt><trkpt lat="44.2959646" lon="11.786414"><ele>47.0</ele><time>2026-04-23T08:21:27.872Z</time></trkpt><trkpt lat="44.2960561" lon="11.7864972"><ele>47.0</ele><time>2026-04-23T08:21:29.871Z</time></trkpt><trkpt lat="44.2961414" lon="11.7865855"><ele>47.0</ele><time>2026-04-23T08:21:31.871Z</time></trkpt><trkpt lat="44.2962352" lon="11.7866736"><ele>47.0</ele><time>2026-04-23T08:21:33.872Z</time></trkpt><trkpt lat="44.2963279" lon="11.7867593"><ele>47.0</ele><time>2026-04-23T08:21:35.872Z</time></trkpt><trkpt lat="44.2964101" lon="11.7868449"><ele>47.0</ele><time>2026-04-23T08:21:37.871Z</time></trkpt><trkpt lat="44.2964959" lon="11.7869082"><ele>47.0</ele><time>2026-04-23T08:21:39.872Z</time></trkpt><trkpt lat="44.2965787" lon="11.7869435"><ele>47.0</ele><time>2026-04-23T08:21:41.871Z</time></trkpt><trkpt lat="44.2966591" lon="11.7869344"><ele>47.0</ele><time>2026-04-23T08:21:43.872Z</time></trkpt><trkpt lat="44.2967366" lon="11.7868844"><ele>47.0</ele><time>2026-04-23T08:21:45.872Z</time></trkpt><trkpt lat="44.296813" lon="11.7868102"><ele>47.0</ele><time>2026-04-23T08:21:47.872Z</time></trkpt><trkpt lat="44.29687" lon="11.7866953"><ele>47.0</ele><time>2026-04-23T08:21:49.871Z</time></trkpt><trkpt lat="44.2969058" lon="11.7865681"><ele>46.5</ele><time>2026-04-23T08:21:51.871Z</time></trkpt><trkpt lat="44.2969426" lon="11.7864228"><ele>46.0</ele><time>2026-04-23T08:21:53.872Z</time></trkpt><trkpt lat="44.2969819" lon="11.7862721"><ele>45.5</ele><time>2026-04-23T08:21:55.871Z</time></trkpt><trkpt lat="44.297018" lon="11.786126"><ele>45.0</ele><time>2026-04-23T08:21:57.871Z</time></trkpt><trkpt lat="44.2970565" lon="11.7859713"><ele>45.0</ele><time>2026-04-23T08:21:59.871Z</time></trkpt><trkpt lat="44.2970951" lon="11.7858089"><ele>45.0</ele><time>2026-04-23T08:22:01.871Z</time></trkpt><trkpt lat="44.2971401" lon="11.7856571"><ele>45.0</ele><time>2026-04-23T08:22:03.872Z</time></trkpt><trkpt lat="44.2971764" lon="11.7855008"><ele>45.0</ele><time>2026-04-23T08:22:05.872Z</time></trkpt><trkpt lat="44.2972114" lon="11.7853421"><ele>45.0</ele><time>2026-04-23T08:22:07.872Z</time></trkpt><trkpt lat="44.2972488" lon="11.7851806"><ele>45.0</ele><time>2026-04-23T08:22:09.871Z</time></trkpt><trkpt lat="44.2972883" lon="11.7850224"><ele>45.0</ele><time>2026-04-23T08:22:11.871Z</time></trkpt><trkpt lat="44.2973221" lon="11.7848702"><ele>45.0</ele><time>2026-04-23T08:22:13.871Z</time></trkpt><trkpt lat="44.2973589" lon="11.7847242"><ele>45.166666666666664</ele><time>2026-04-23T08:22:15.871Z</time></trkpt><trkpt lat="44.2973935" lon="11.7845699"><ele>45.333333333333336</ele><time>2026-04-23T08:22:17.872Z</time></trkpt><trkpt lat="44.2974399" lon="11.7844098"><ele>45.5</ele><time>2026-04-23T08:22:19.871Z</time></trkpt><trkpt lat="44.297467" lon="11.7843297"><ele>45.66666666666667</ele><time>2026-04-23T08:22:20.872Z</time></trkpt><trkpt lat="44.2974986" lon="11.7842494"><ele>45.833333333333336</ele><time>2026-04-23T08:22:21.871Z</time></trkpt><trkpt lat="44.2975284" lon="11.78417"><ele>46.0</ele><time>2026-04-23T08:22:22.871Z</time></trkpt><trkpt lat="44.2975756" lon="11.7840111"><ele>46.0</ele><time>2026-04-23T08:22:24.872Z</time></trkpt><trkpt lat="44.2976278" lon="11.783866"><ele>46.0</ele><time>2026-04-23T08:22:26.872Z</time></trkpt><trkpt lat="44.2976985" lon="11.7837304"><ele>46.0</ele><time>2026-04-23T08:22:28.871Z</time></trkpt><trkpt lat="44.2977922" lon="11.7836243"><ele>46.0</ele><time>2026-04-23T08:22:30.871Z</time></trkpt><trkpt lat="44.2978915" lon="11.783526"><ele>46.199999999999996</ele><time>2026-04-23T08:22:32.871Z</time></trkpt><trkpt lat="44.2979441" lon="11.7834771"><ele>46.4</ele><time>2026-04-23T08:22:33.871Z</time></trkpt><trkpt lat="44.298037" lon="11.7833824"><ele>46.6</ele><time>2026-04-23T08:22:35.872Z</time></trkpt><trkpt lat="44.2981263" lon="11.7833014"><ele>46.8</ele><time>2026-04-23T08:22:37.872Z</time></trkpt><trkpt lat="44.2982201" lon="11.7832336"><ele>47.0</ele><time>2026-04-23T08:22:39.872Z</time></trkpt><trkpt lat="44.2983121" lon="11.7831684"><ele>46.6</ele><time>2026-04-23T08:22:41.871Z</time></trkpt><trkpt lat="44.2984105" lon="11.7831254"><ele>46.2</ele><time>2026-04-23T08:22:43.872Z</time></trkpt><trkpt lat="44.2985178" lon="11.7831113"><ele>45.8</ele><time>2026-04-23T08:22:45.871Z</time></trkpt><trkpt lat="44.2986323" lon="11.7831003"><ele>45.4</ele><time>2026-04-23T08:22:47.872Z</time></trkpt><trkpt lat="44.2987435" lon="11.7831099"><ele>45.0</ele><time>2026-04-23T08:22:49.871Z</time></trkpt><trkpt lat="44.2988597" lon="11.7831252"><ele>45.2</ele><time>2026-04-23T08:22:51.872Z</time></trkpt><trkpt lat="44.2989595" lon="11.7831501"><ele>45.4</ele><time>2026-04-23T08:22:53.872Z</time></trkpt><trkpt lat="44.2990506" lon="11.7831961"><ele>45.599999999999994</ele><time>2026-04-23T08:22:55.872Z</time></trkpt><trkpt lat="44.2991457" lon="11.7832536"><ele>45.8</ele><time>2026-04-23T08:22:57.872Z</time></trkpt><trkpt lat="44.2992384" lon="11.7833284"><ele>46.0</ele><time>2026-04-23T08:22:59.871Z</time></trkpt><trkpt lat="44.2993418" lon="11.7834045"><ele>46.0</ele><time>2026-04-23T08:23:01.872Z</time></trkpt><trkpt lat="44.2994441" lon="11.7834907"><ele>46.0</ele><time>2026-04-23T08:23:03.872Z</time></trkpt><trkpt lat="44.2995457" lon="11.7835621"><ele>46.0</ele><time>2026-04-23T08:23:05.872Z</time></trkpt><trkpt lat="44.2996542" lon="11.7836309"><ele>46.0</ele><time>2026-04-23T08:23:07.871Z</time></trkpt><trkpt lat="44.2997592" lon="11.7837041"><ele>46.199999999999996</ele><time>2026-04-23T08:23:09.872Z</time></trkpt><trkpt lat="44.2998643" lon="11.7837773"><ele>46.4</ele><time>2026-04-23T08:23:11.872Z</time></trkpt><trkpt lat="44.2999486" lon="11.7838551"><ele>46.6</ele><time>2026-04-23T08:23:13.871Z</time></trkpt><trkpt lat="44.3000329" lon="11.783928"><ele>46.8</ele><time>2026-04-23T08:23:15.871Z</time></trkpt><trkpt lat="44.3001244" lon="11.7839886"><ele>47.0</ele><time>2026-04-23T08:23:17.871Z</time></trkpt><trkpt lat="44.300219" lon="11.7840488"><ele>47.0</ele><time>2026-04-23T08:23:19.871Z</time></trkpt><trkpt lat="44.3003195" lon="11.7841225"><ele>47.0</ele><time>2026-04-23T08:23:21.872Z</time></trkpt><trkpt lat="44.3004117" lon="11.7842328"><ele>47.0</ele><time>2026-04-23T08:23:23.871Z</time></trkpt><trkpt lat="44.3004947" lon="11.7843355"><ele>47.0</ele><time>2026-04-23T08:23:25.872Z</time></trkpt><trkpt lat="44.3005802" lon="11.7844403"><ele>46.75</ele><time>2026-04-23T08:23:27.872Z</time></trkpt><trkpt lat="44.3006555" lon="11.7845694"><ele>46.5</ele><time>2026-04-23T08:23:29.871Z</time></trkpt><trkpt lat="44.3007203" lon="11.784705"><ele>46.25</ele><time>2026-04-23T08:23:31.871Z</time></trkpt><trkpt lat="44.3007809" lon="11.7848411"><ele>46.0</ele><time>2026-04-23T08:23:33.872Z</time></trkpt><trkpt lat="44.3008403" lon="11.7849646"><ele>46.0</ele><time>2026-04-23T08:23:35.872Z</time></trkpt><trkpt lat="44.3008928" lon="11.7850827"><ele>46.0</ele><time>2026-04-23T08:23:37.872Z</time></trkpt><trkpt lat="44.3009496" lon="11.7851955"><ele>46.0</ele><time>2026-04-23T08:23:39.871Z</time></trkpt><trkpt lat="44.3010075" lon="11.7853117"><ele>46.0</ele><time>2026-04-23T08:23:41.871Z</time></trkpt><trkpt lat="44.3010532" lon="11.7854134"><ele>46.0</ele><time>2026-04-23T08:23:43.872Z</time></trkpt><trkpt lat="44.3010906" lon="11.7855097"><ele>46.0</ele><time>2026-04-23T08:23:45.872Z</time></trkpt><trkpt lat="44.3011661" lon="11.7855754"><ele>46.0</ele><time>2026-04-23T08:23:48.872Z</time></trkpt><trkpt lat="44.3012297" lon="11.7855866"><ele>46.0</ele><time>2026-04-23T08:23:50.871Z</time></trkpt><trkpt lat="44.3013023" lon="11.7856578"><ele>46.0</ele><time>2026-04-23T08:23:52.872Z</time></trkpt><trkpt lat="44.301361" lon="11.7857846"><ele>46.0</ele><time>2026-04-23T08:23:54.872Z</time></trkpt><trkpt lat="44.3014321" lon="11.7859204"><ele>46.0</ele><time>2026-04-23T08:23:56.872Z</time></trkpt><trkpt lat="44.3014727" lon="11.7859892"><ele>46.0</ele><time>2026-04-23T08:23:57.872Z</time></trkpt><trkpt lat="44.3015147" lon="11.7860648"><ele>46.0</ele><time>2026-04-23T08:23:58.872Z</time></trkpt><trkpt lat="44.3015578" lon="11.7861368"><ele>46.0</ele><time>2026-04-23T08:23:59.871Z</time></trkpt><trkpt lat="44.3016008" lon="11.7862098"><ele>46.0</ele><time>2026-04-23T08:24:00.871Z</time></trkpt><trkpt lat="44.3016395" lon="11.7862797"><ele>46.0</ele><time>2026-04-23T08:24:01.872Z</time></trkpt><trkpt lat="44.3017112" lon="11.7864167"><ele>45.75</ele><time>2026-04-23T08:24:03.871Z</time></trkpt><trkpt lat="44.3017804" lon="11.7865502"><ele>45.5</ele><time>2026-04-23T08:24:05.871Z</time></trkpt><trkpt lat="44.3018484" lon="11.7866819"><ele>45.25</ele><time>2026-04-23T08:24:07.871Z</time></trkpt><trkpt lat="44.3019231" lon="11.7868214"><ele>45.0</ele><time>2026-04-23T08:24:09.872Z</time></trkpt><trkpt lat="44.3019943" lon="11.7869634"><ele>45.0</ele><time>2026-04-23T08:24:11.872Z</time></trkpt><trkpt lat="44.3020677" lon="11.7871045"><ele>45.0</ele><time>2026-04-23T08:24:13.871Z</time></trkpt><trkpt lat="44.3021347" lon="11.7872472"><ele>45.0</ele><time>2026-04-23T08:24:15.871Z</time></trkpt><trkpt lat="44.3022021" lon="11.7873908"><ele>45.0</ele><time>2026-04-23T08:24:17.871Z</time></trkpt><trkpt lat="44.3022761" lon="11.7875269"><ele>45.0</ele><time>2026-04-23T08:24:19.872Z</time></trkpt><trkpt lat="44.3023145" lon="11.7875972"><ele>45.0</ele><time>2026-04-23T08:24:20.872Z</time></trkpt><trkpt lat="44.3023897" lon="11.787735"><ele>45.0</ele><time>2026-04-23T08:24:22.872Z</time></trkpt><trkpt lat="44.3024679" lon="11.7878659"><ele>45.0</ele><time>2026-04-23T08:24:24.871Z</time></trkpt><trkpt lat="44.3025146" lon="11.7879285"><ele>45.0</ele><time>2026-04-23T08:24:25.871Z</time></trkpt><trkpt lat="44.3026006" lon="11.7880508"><ele>45.0</ele><time>2026-04-23T08:24:27.872Z</time></trkpt><trkpt lat="44.3026823" lon="11.7881774"><ele>45.0</ele><time>2026-04-23T08:24:29.872Z</time></trkpt><trkpt lat="44.302766" lon="11.7883011"><ele>45.0</ele><time>2026-04-23T08:24:31.871Z</time></trkpt><trkpt lat="44.3028517" lon="11.7884248"><ele>45.0</ele><time>2026-04-23T08:24:33.872Z</time></trkpt><trkpt lat="44.3029423" lon="11.7885396"><ele>44.75</ele><time>2026-04-23T08:24:35.872Z</time></trkpt><trkpt lat="44.3030233" lon="11.788662"><ele>44.5</ele><time>2026-04-23T08:24:37.872Z</time></trkpt><trkpt lat="44.3031101" lon="11.7887856"><ele>44.25</ele><time>2026-04-23T08:24:39.871Z</time></trkpt><trkpt lat="44.3032019" lon="11.7888971"><ele>44.0</ele><time>2026-04-23T08:24:41.872Z</time></trkpt><trkpt lat="44.3033036" lon="11.7890028"><ele>44.0</ele><time>2026-04-23T08:24:43.871Z</time></trkpt><trkpt lat="44.3033597" lon="11.7890453"><ele>44.0</ele><time>2026-04-23T08:24:44.872Z</time></trkpt><trkpt lat="44.3034209" lon="11.7890731"><ele>44.0</ele><time>2026-04-23T08:24:45.872Z</time></trkpt><trkpt lat="44.3034814" lon="11.7890985"><ele>44.0</ele><time>2026-04-23T08:24:46.872Z</time></trkpt><trkpt lat="44.3036027" lon="11.7891094"><ele>44.0</ele><time>2026-04-23T08:24:48.872Z</time></trkpt><trkpt lat="44.3037211" lon="11.7890713"><ele>44.0</ele><time>2026-04-23T08:24:50.871Z</time></trkpt><trkpt lat="44.3037836" lon="11.7890415"><ele>44.0</ele><time>2026-04-23T08:24:51.871Z</time></trkpt><trkpt lat="44.3038456" lon="11.7890151"><ele>44.0</ele><time>2026-04-23T08:24:52.872Z</time></trkpt><trkpt lat="44.3039094" lon="11.7889903"><ele>44.0</ele><time>2026-04-23T08:24:53.871Z</time></trkpt><trkpt lat="44.3039719" lon="11.7889612"><ele>44.0</ele><time>2026-04-23T08:24:54.872Z</time></trkpt><trkpt lat="44.3040343" lon="11.7889405"><ele>44.0</ele><time>2026-04-23T08:24:55.871Z</time></trkpt><trkpt lat="44.3041551" lon="11.7889287"><ele>44.0</ele><time>2026-04-23T08:24:57.871Z</time></trkpt><trkpt lat="44.3042716" lon="11.7889361"><ele>43.800000000000004</ele><time>2026-04-23T08:24:59.872Z</time></trkpt><trkpt lat="44.30437" lon="11.7890152"><ele>43.6</ele><time>2026-04-23T08:25:01.872Z</time></trkpt><trkpt lat="44.3044696" lon="11.789104"><ele>43.4</ele><time>2026-04-23T08:25:03.871Z</time></trkpt><trkpt lat="44.3045597" lon="11.7891578"><ele>43.2</ele><time>2026-04-23T08:25:05.872Z</time></trkpt><trkpt lat="44.3046262" lon="11.789209"><ele>43.0</ele><time>2026-04-23T08:25:07.871Z</time></trkpt><trkpt lat="44.3047088" lon="11.7892804"><ele>43.25</ele><time>2026-04-23T08:25:09.871Z</time></trkpt><trkpt lat="44.3047817" lon="11.7893866"><ele>43.5</ele><time>2026-04-23T08:25:11.871Z</time></trkpt><trkpt lat="44.3048475" lon="11.7895135"><ele>43.75</ele><time>2026-04-23T08:25:13.872Z</time></trkpt><trkpt lat="44.3049016" lon="11.7896611"><ele>44.0</ele><time>2026-04-23T08:25:15.872Z</time></trkpt><trkpt lat="44.3049367" lon="11.789825"><ele>44.0</ele><time>2026-04-23T08:25:17.871Z</time></trkpt><trkpt lat="44.3049619" lon="11.7899886"><ele>44.0</ele><time>2026-04-23T08:25:19.871Z</time></trkpt><trkpt lat="44.3049671" lon="11.7901554"><ele>44.0</ele><time>2026-04-23T08:25:21.872Z</time></trkpt><trkpt lat="44.3049639" lon="11.7903242"><ele>44.0</ele><time>2026-04-23T08:25:23.872Z</time></trkpt><trkpt lat="44.3049668" lon="11.7904803"><ele>44.0</ele><time>2026-04-23T08:25:25.871Z</time></trkpt><trkpt lat="44.3049672" lon="11.7906437"><ele>44.0</ele><time>2026-04-23T08:25:27.871Z</time></trkpt><trkpt lat="44.3049627" lon="11.790801"><ele>44.0</ele><time>2026-04-23T08:25:29.871Z</time></trkpt><trkpt lat="44.3049423" lon="11.7909661"><ele>44.0</ele><time>2026-04-23T08:25:31.872Z</time></trkpt><trkpt lat="44.304924" lon="11.7911307"><ele>44.0</ele><time>2026-04-23T08:25:33.871Z</time></trkpt><trkpt lat="44.3049063" lon="11.7912996"><ele>44.0</ele><time>2026-04-23T08:25:35.871Z</time></trkpt><trkpt lat="44.3048817" lon="11.7914596"><ele>44.0</ele><time>2026-04-23T08:25:37.871Z</time></trkpt><trkpt lat="44.3048585" lon="11.7916233"><ele>44.0</ele><time>2026-04-23T08:25:39.871Z</time></trkpt><trkpt lat="44.3048472" lon="11.7917106"><ele>44.0</ele><time>2026-04-23T08:25:40.872Z</time></trkpt><trkpt lat="44.3048233" lon="11.7918743"><ele>44.0</ele><time>2026-04-23T08:25:42.872Z</time></trkpt><trkpt lat="44.304801" lon="11.7920266"><ele>44.0</ele><time>2026-04-23T08:25:44.871Z</time></trkpt><trkpt lat="44.3047796" lon="11.7921817"><ele>44.0</ele><time>2026-04-23T08:25:46.872Z</time></trkpt><trkpt lat="44.3047544" lon="11.7923382"><ele>44.0</ele><time>2026-04-23T08:25:48.871Z</time></trkpt><trkpt lat="44.3047277" lon="11.7924975"><ele>43.75</ele><time>2026-04-23T08:25:50.872Z</time></trkpt><trkpt lat="44.3047053" lon="11.7926544"><ele>43.5</ele><time>2026-04-23T08:25:52.872Z</time></trkpt><trkpt lat="44.3046807" lon="11.79282"><ele>43.25</ele><time>2026-04-23T08:25:54.872Z</time></trkpt><trkpt lat="44.3046634" lon="11.7929824"><ele>43.0</ele><time>2026-04-23T08:25:56.871Z</time></trkpt><trkpt lat="44.304642" lon="11.7931537"><ele>42.8</ele><time>2026-04-23T08:25:58.871Z</time></trkpt><trkpt lat="44.3046291" lon="11.7933126"><ele>42.599999999999994</ele><time>2026-04-23T08:26:00.872Z</time></trkpt><trkpt lat="44.3046211" lon="11.7934659"><ele>42.400000000000006</ele><time>2026-04-23T08:26:02.872Z</time></trkpt><trkpt lat="44.3046031" lon="11.7936147"><ele>42.2</ele><time>2026-04-23T08:26:04.872Z</time></trkpt><trkpt lat="44.304573" lon="11.7937596"><ele>42.0</ele><time>2026-04-23T08:26:06.871Z</time></trkpt><trkpt lat="44.3045277" lon="11.7939119"><ele>42.0</ele><time>2026-04-23T08:26:08.872Z</time></trkpt><trkpt lat="44.3044642" lon="11.7940569"><ele>42.0</ele><time>2026-04-23T08:26:10.871Z</time></trkpt><trkpt lat="44.3043888" lon="11.79419"><ele>42.0</ele><time>2026-04-23T08:26:12.872Z</time></trkpt><trkpt lat="44.3043021" lon="11.7943097"><ele>42.0</ele><time>2026-04-23T08:26:14.871Z</time></trkpt><trkpt lat="44.3042047" lon="11.7944103"><ele>42.0</ele><time>2026-04-23T08:26:16.872Z</time></trkpt><trkpt lat="44.3041066" lon="11.7945073"><ele>42.0</ele><time>2026-04-23T08:26:18.871Z</time></trkpt><trkpt lat="44.3040062" lon="11.7945982"><ele>42.0</ele><time>2026-04-23T08:26:20.871Z</time></trkpt><trkpt lat="44.3039015" lon="11.7946955"><ele>42.0</ele><time>2026-04-23T08:26:22.871Z</time></trkpt><trkpt lat="44.3037987" lon="11.7947903"><ele>41.75</ele><time>2026-04-23T08:26:24.871Z</time></trkpt><trkpt lat="44.3036911" lon="11.794869"><ele>41.5</ele><time>2026-04-23T08:26:26.872Z</time></trkpt><trkpt lat="44.3035873" lon="11.7949511"><ele>41.25</ele><time>2026-04-23T08:26:28.871Z</time></trkpt><trkpt lat="44.3034836" lon="11.7950389"><ele>41.0</ele><time>2026-04-23T08:26:30.872Z</time></trkpt><trkpt lat="44.3033823" lon="11.7951376"><ele>41.0</ele><time>2026-04-23T08:26:32.871Z</time></trkpt><trkpt lat="44.3033291" lon="11.795186"><ele>41.0</ele><time>2026-04-23T08:26:33.872Z</time></trkpt><trkpt lat="44.3032319" lon="11.7952848"><ele>41.0</ele><time>2026-04-23T08:26:35.872Z</time></trkpt><trkpt lat="44.3031285" lon="11.795378"><ele>41.0</ele><time>2026-04-23T08:26:37.871Z</time></trkpt><trkpt lat="44.3030295" lon="11.7954754"><ele>41.0</ele><time>2026-04-23T08:26:39.871Z</time></trkpt><trkpt lat="44.3029366" lon="11.7955826"><ele>41.0</ele><time>2026-04-23T08:26:41.871Z</time></trkpt><trkpt lat="44.3028305" lon="11.7956794"><ele>41.0</ele><time>2026-04-23T08:26:43.872Z</time></trkpt><trkpt lat="44.3027247" lon="11.7957794"><ele>41.0</ele><time>2026-04-23T08:26:45.872Z</time></trkpt><trkpt lat="44.3026729" lon="11.7958367"><ele>41.0</ele><time>2026-04-23T08:26:46.871Z</time></trkpt><trkpt lat="44.3026211" lon="11.7958912"><ele>41.0</ele><time>2026-04-23T08:26:47.871Z</time></trkpt><trkpt lat="44.3025684" lon="11.7959434"><ele>41.0</ele><time>2026-04-23T08:26:48.871Z</time></trkpt><trkpt lat="44.3024679" lon="11.796046"><ele>41.0</ele><time>2026-04-23T08:26:50.871Z</time></trkpt><trkpt lat="44.3023707" lon="11.7961546"><ele>41.0</ele><time>2026-04-23T08:26:52.872Z</time></trkpt><trkpt lat="44.3022736" lon="11.7962604"><ele>41.0</ele><time>2026-04-23T08:26:54.871Z</time></trkpt><trkpt lat="44.3021795" lon="11.7963753"><ele>41.0</ele><time>2026-04-23T08:26:56.871Z</time></trkpt><trkpt lat="44.3020829" lon="11.7964831"><ele>41.0</ele><time>2026-04-23T08:26:58.872Z</time></trkpt><trkpt lat="44.3019901" lon="11.7965928"><ele>41.0</ele><time>2026-04-23T08:27:00.871Z</time></trkpt><trkpt lat="44.3019045" lon="11.7967067"><ele>41.0</ele><time>2026-04-23T08:27:02.871Z</time></trkpt><trkpt lat="44.3018291" lon="11.7968176"><ele>40.75</ele><time>2026-04-23T08:27:04.872Z</time></trkpt><trkpt lat="44.3017533" lon="11.7969338"><ele>40.5</ele><time>2026-04-23T08:27:06.871Z</time></trkpt><trkpt lat="44.301672" lon="11.7970614"><ele>40.25</ele><time>2026-04-23T08:27:08.872Z</time></trkpt><trkpt lat="44.3015976" lon="11.7971806"><ele>40.0</ele><time>2026-04-23T08:27:10.872Z</time></trkpt><trkpt lat="44.3015165" lon="11.7973072"><ele>40.0</ele><time>2026-04-23T08:27:12.871Z</time></trkpt><trkpt lat="44.301443" lon="11.7974444"><ele>40.0</ele><time>2026-04-23T08:27:14.871Z</time></trkpt><trkpt lat="44.3014025" lon="11.7975134"><ele>40.0</ele><time>2026-04-23T08:27:15.872Z</time></trkpt><trkpt lat="44.3013266" lon="11.7976548"><ele>40.0</ele><time>2026-04-23T08:27:17.872Z</time></trkpt><trkpt lat="44.301258" lon="11.7977962"><ele>40.0</ele><time>2026-04-23T08:27:19.871Z</time></trkpt><trkpt lat="44.3012011" lon="11.7979515"><ele>40.6</ele><time>2026-04-23T08:27:21.871Z</time></trkpt><trkpt lat="44.3011779" lon="11.7980333"><ele>41.2</ele><time>2026-04-23T08:27:22.871Z</time></trkpt><trkpt lat="44.3011483" lon="11.798202"><ele>41.8</ele><time>2026-04-23T08:27:24.872Z</time></trkpt><trkpt lat="44.3011459" lon="11.7983606"><ele>42.4</ele><time>2026-04-23T08:27:26.871Z</time></trkpt><trkpt lat="44.3011728" lon="11.7985043"><ele>43.0</ele><time>2026-04-23T08:27:28.872Z</time></trkpt><trkpt lat="44.3012189" lon="11.7986468"><ele>42.4</ele><time>2026-04-23T08:27:30.872Z</time></trkpt><trkpt lat="44.3012853" lon="11.7987804"><ele>41.8</ele><time>2026-04-23T08:27:32.872Z</time></trkpt><trkpt lat="44.3013563" lon="11.7989123"><ele>41.2</ele><time>2026-04-23T08:27:34.871Z</time></trkpt><trkpt lat="44.3013961" lon="11.7989837"><ele>40.6</ele><time>2026-04-23T08:27:35.872Z</time></trkpt><trkpt lat="44.3014351" lon="11.7990539"><ele>40.0</ele><time>2026-04-23T08:27:36.871Z</time></trkpt><trkpt lat="44.3015175" lon="11.7991763"><ele>40.0</ele><time>2026-04-23T08:27:38.871Z</time></trkpt><trkpt lat="44.3015576" lon="11.7992452"><ele>40.0</ele><time>2026-04-23T08:27:39.872Z</time></trkpt><trkpt lat="44.3016298" lon="11.7993769"><ele>40.0</ele><time>2026-04-23T08:27:41.871Z</time></trkpt><trkpt lat="44.3017102" lon="11.7995108"><ele>40.0</ele><time>2026-04-23T08:27:43.872Z</time></trkpt><trkpt lat="44.3017531" lon="11.799579"><ele>40.0</ele><time>2026-04-23T08:27:44.871Z</time></trkpt><trkpt lat="44.3017932" lon="11.7996497"><ele>40.0</ele><time>2026-04-23T08:27:45.871Z</time></trkpt><trkpt lat="44.3018328" lon="11.7997227"><ele>40.285714285714285</ele><time>2026-04-23T08:27:46.872Z</time></trkpt><trkpt lat="44.3018729" lon="11.7997974"><ele>40.57142857142857</ele><time>2026-04-23T08:27:47.872Z</time></trkpt><trkpt lat="44.3019138" lon="11.7998649"><ele>40.85714285714286</ele><time>2026-04-23T08:27:48.872Z</time></trkpt><trkpt lat="44.3019563" lon="11.7999311"><ele>41.14285714285714</ele><time>2026-04-23T08:27:49.871Z</time></trkpt><trkpt lat="44.3019967" lon="11.8000003"><ele>41.42857142857143</ele><time>2026-04-23T08:27:50.871Z</time></trkpt><trkpt lat="44.3020806" lon="11.80013"><ele>41.714285714285715</ele><time>2026-04-23T08:27:52.871Z</time></trkpt><trkpt lat="44.3021237" lon="11.8001949"><ele>42.0</ele><time>2026-04-23T08:27:53.872Z</time></trkpt><trkpt lat="44.3021658" lon="11.8002621"><ele>41.833333333333336</ele><time>2026-04-23T08:27:54.871Z</time></trkpt><trkpt lat="44.3022116" lon="11.8003277"><ele>41.666666666666664</ele><time>2026-04-23T08:27:55.871Z</time></trkpt><trkpt lat="44.3023097" lon="11.8004451"><ele>41.5</ele><time>2026-04-23T08:27:57.871Z</time></trkpt><trkpt lat="44.302403" lon="11.8005596"><ele>41.33333333333333</ele><time>2026-04-23T08:27:59.872Z</time></trkpt><trkpt lat="44.3024517" lon="11.800618"><ele>41.166666666666664</ele><time>2026-04-23T08:28:00.872Z</time></trkpt><trkpt lat="44.302502" lon="11.8006719"><ele>41.0</ele><time>2026-04-23T08:28:01.872Z</time></trkpt><trkpt lat="44.3025504" lon="11.8007294"><ele>41.0</ele><time>2026-04-23T08:28:02.871Z</time></trkpt><trkpt lat="44.3025974" lon="11.800791"><ele>41.0</ele><time>2026-04-23T08:28:03.871Z</time></trkpt><trkpt lat="44.3026426" lon="11.8008576"><ele>41.0</ele><time>2026-04-23T08:28:04.872Z</time></trkpt><trkpt lat="44.3026897" lon="11.8009186"><ele>41.0</ele><time>2026-04-23T08:28:05.872Z</time></trkpt><trkpt lat="44.302783" lon="11.8010286"><ele>41.0</ele><time>2026-04-23T08:28:07.871Z</time></trkpt><trkpt lat="44.3028845" lon="11.8011297"><ele>41.0</ele><time>2026-04-23T08:28:09.872Z</time></trkpt><trkpt lat="44.3029997" lon="11.8011879"><ele>42.199999999999996</ele><time>2026-04-23T08:28:11.872Z</time></trkpt><trkpt lat="44.3030633" lon="11.801204"><ele>43.4</ele><time>2026-04-23T08:28:12.872Z</time></trkpt><trkpt lat="44.3031746" lon="11.8012379"><ele>44.6</ele><time>2026-04-23T08:28:14.872Z</time></trkpt><trkpt lat="44.3032737" lon="11.8012741"><ele>45.8</ele><time>2026-04-23T08:28:16.872Z</time></trkpt><trkpt lat="44.3033636" lon="11.801292"><ele>47.0</ele><time>2026-04-23T08:28:18.872Z</time></trkpt><trkpt lat="44.3034644" lon="11.8013134"><ele>47.0</ele><time>2026-04-23T08:28:20.871Z</time></trkpt><trkpt lat="44.3035803" lon="11.801348"><ele>47.0</ele><time>2026-04-23T08:28:22.871Z</time></trkpt><trkpt lat="44.3036984" lon="11.8013851"><ele>47.0</ele><time>2026-04-23T08:28:24.871Z</time></trkpt><trkpt lat="44.3038171" lon="11.8014219"><ele>47.0</ele><time>2026-04-23T08:28:26.872Z</time></trkpt><trkpt lat="44.3038791" lon="11.8014445"><ele>47.0</ele><time>2026-04-23T08:28:27.872Z</time></trkpt><trkpt lat="44.3040002" lon="11.801483"><ele>46.400000000000006</ele><time>2026-04-23T08:28:29.872Z</time></trkpt><trkpt lat="44.3040664" lon="11.8015007"><ele>45.800000000000004</ele><time>2026-04-23T08:28:30.872Z</time></trkpt><trkpt lat="44.3041329" lon="11.801523"><ele>45.2</ele><time>2026-04-23T08:28:31.872Z</time></trkpt><trkpt lat="44.3042512" lon="11.8015712"><ele>44.6</ele><time>2026-04-23T08:28:33.872Z</time></trkpt><trkpt lat="44.3043144" lon="11.8015907"><ele>44.0</ele><time>2026-04-23T08:28:34.871Z</time></trkpt><trkpt lat="44.3044389" lon="11.8016173"><ele>44.0</ele><time>2026-04-23T08:28:36.872Z</time></trkpt><trkpt lat="44.3045037" lon="11.801638"><ele>44.0</ele><time>2026-04-23T08:28:37.872Z</time></trkpt><trkpt lat="44.3045681" lon="11.8016536"><ele>44.0</ele><time>2026-04-23T08:28:38.872Z</time></trkpt><trkpt lat="44.30469" lon="11.8016867"><ele>44.0</ele><time>2026-04-23T08:28:40.872Z</time></trkpt><trkpt lat="44.3047521" lon="11.8017026"><ele>44.0</ele><time>2026-04-23T08:28:41.871Z</time></trkpt><trkpt lat="44.3048145" lon="11.8017192"><ele>44.0</ele><time>2026-04-23T08:28:42.872Z</time></trkpt><trkpt lat="44.3048765" lon="11.8017351"><ele>44.0</ele><time>2026-04-23T08:28:43.872Z</time></trkpt><trkpt lat="44.3049966" lon="11.8017799"><ele>43.666666666666664</ele><time>2026-04-23T08:28:45.872Z</time></trkpt><trkpt lat="44.305057" lon="11.8018067"><ele>43.33333333333333</ele><time>2026-04-23T08:28:46.871Z</time></trkpt><trkpt lat="44.3051748" lon="11.8018609"><ele>43.0</ele><time>2026-04-23T08:28:48.872Z</time></trkpt><trkpt lat="44.3052353" lon="11.8018896"><ele>42.666666666666664</ele><time>2026-04-23T08:28:49.872Z</time></trkpt><trkpt lat="44.3052974" lon="11.8019191"><ele>42.333333333333336</ele><time>2026-04-23T08:28:50.872Z</time></trkpt><trkpt lat="44.3054225" lon="11.8019713"><ele>42.0</ele><time>2026-04-23T08:28:52.872Z</time></trkpt><trkpt lat="44.3054857" lon="11.8019953"><ele>42.0</ele><time>2026-04-23T08:28:53.872Z</time></trkpt><trkpt lat="44.3055479" lon="11.8020184"><ele>42.0</ele><time>2026-04-23T08:28:54.872Z</time></trkpt><trkpt lat="44.3056086" lon="11.802044"><ele>42.0</ele><time>2026-04-23T08:28:55.872Z</time></trkpt><trkpt lat="44.3057289" lon="11.8020802"><ele>42.0</ele><time>2026-04-23T08:28:57.872Z</time></trkpt><trkpt lat="44.3058522" lon="11.8021124"><ele>42.0</ele><time>2026-04-23T08:28:59.871Z</time></trkpt><trkpt lat="44.3059137" lon="11.8021325"><ele>42.0</ele><time>2026-04-23T08:29:00.871Z</time></trkpt><trkpt lat="44.306036" lon="11.8021552"><ele>42.0</ele><time>2026-04-23T08:29:02.871Z</time></trkpt><trkpt lat="44.3060993" lon="11.8021623"><ele>42.0</ele><time>2026-04-23T08:29:03.871Z</time></trkpt><trkpt lat="44.3062201" lon="11.8021726"><ele>42.0</ele><time>2026-04-23T08:29:05.871Z</time></trkpt><trkpt lat="44.3063383" lon="11.8021725"><ele>42.0</ele><time>2026-04-23T08:29:07.872Z</time></trkpt><trkpt lat="44.3064644" lon="11.8021658"><ele>42.0</ele><time>2026-04-23T08:29:09.872Z</time></trkpt><trkpt lat="44.3065898" lon="11.8021557"><ele>41.5</ele><time>2026-04-23T08:29:11.872Z</time></trkpt><trkpt lat="44.306709" lon="11.8021373"><ele>41.0</ele><time>2026-04-23T08:29:13.872Z</time></trkpt><trkpt lat="44.3068202" lon="11.8021182"><ele>40.5</ele><time>2026-04-23T08:29:15.871Z</time></trkpt><trkpt lat="44.3069214" lon="11.8020786"><ele>40.0</ele><time>2026-04-23T08:29:17.871Z</time></trkpt><trkpt lat="44.3070248" lon="11.8020153"><ele>40.0</ele><time>2026-04-23T08:29:19.872Z</time></trkpt><trkpt lat="44.3071298" lon="11.8019487"><ele>40.0</ele><time>2026-04-23T08:29:21.871Z</time></trkpt><trkpt lat="44.3072294" lon="11.8018807"><ele>40.0</ele><time>2026-04-23T08:29:23.871Z</time></trkpt><trkpt lat="44.3073319" lon="11.8017943"><ele>40.0</ele><time>2026-04-23T08:29:25.871Z</time></trkpt><trkpt lat="44.307387" lon="11.8017485"><ele>40.0</ele><time>2026-04-23T08:29:26.872Z</time></trkpt><trkpt lat="44.3074404" lon="11.8016961"><ele>39.8</ele><time>2026-04-23T08:29:27.872Z</time></trkpt><trkpt lat="44.3074938" lon="11.8016443"><ele>39.6</ele><time>2026-04-23T08:29:28.871Z</time></trkpt><trkpt lat="44.3075899" lon="11.8015478"><ele>39.4</ele><time>2026-04-23T08:29:30.871Z</time></trkpt><trkpt lat="44.3076683" lon="11.801442"><ele>39.2</ele><time>2026-04-23T08:29:32.871Z</time></trkpt><trkpt lat="44.3077289" lon="11.8013274"><ele>39.0</ele><time>2026-04-23T08:29:34.871Z</time></trkpt><trkpt lat="44.3077813" lon="11.8012169"><ele>39.0</ele><time>2026-04-23T08:29:36.872Z</time></trkpt><trkpt lat="44.3078233" lon="11.8011014"><ele>39.0</ele><time>2026-04-23T08:29:38.872Z</time></trkpt><trkpt lat="44.3078622" lon="11.8009535"><ele>39.0</ele><time>2026-04-23T08:29:40.871Z</time></trkpt><trkpt lat="44.3079053" lon="11.8008019"><ele>39.0</ele><time>2026-04-23T08:29:42.871Z</time></trkpt><trkpt lat="44.3079498" lon="11.8006546"><ele>39.0</ele><time>2026-04-23T08:29:44.872Z</time></trkpt><trkpt lat="44.3079893" lon="11.8005029"><ele>39.0</ele><time>2026-04-23T08:29:46.871Z</time></trkpt><trkpt lat="44.3080282" lon="11.8003621"><ele>39.0</ele><time>2026-04-23T08:29:48.872Z</time></trkpt><trkpt lat="44.3080618" lon="11.8002371"><ele>39.0</ele><time>2026-04-23T08:29:50.871Z</time></trkpt><trkpt lat="44.3080897" lon="11.800115"><ele>39.0</ele><time>2026-04-23T08:29:52.871Z</time></trkpt><trkpt lat="44.3081252" lon="11.8000112"><ele>39.0</ele><time>2026-04-23T08:29:54.872Z</time></trkpt><trkpt lat="44.3081562" lon="11.7999104"><ele>39.0</ele><time>2026-04-23T08:29:56.872Z</time></trkpt><trkpt lat="44.3081845" lon="11.7998052"><ele>39.0</ele><time>2026-04-23T08:29:58.871Z</time></trkpt><trkpt lat="44.3082403" lon="11.7997054"><ele>39.0</ele><time>2026-04-23T08:30:00.871Z</time></trkpt><trkpt lat="44.3083037" lon="11.799586"><ele>39.0</ele><time>2026-04-23T08:30:02.871Z</time></trkpt><trkpt lat="44.3083662" lon="11.7994562"><ele>39.0</ele><time>2026-04-23T08:30:04.871Z</time></trkpt><trkpt lat="44.3084251" lon="11.7993259"><ele>39.5</ele><time>2026-04-23T08:30:06.872Z</time></trkpt><trkpt lat="44.3084944" lon="11.7991907"><ele>40.0</ele><time>2026-04-23T08:30:08.871Z</time></trkpt><trkpt lat="44.3085666" lon="11.7990569"><ele>40.5</ele><time>2026-04-23T08:30:10.872Z</time></trkpt><trkpt lat="44.3086462" lon="11.7989395"><ele>41.0</ele><time>2026-04-23T08:30:12.872Z</time></trkpt><trkpt lat="44.3087357" lon="11.798821"><ele>41.0</ele><time>2026-04-23T08:30:14.871Z</time></trkpt><trkpt lat="44.3088277" lon="11.7987169"><ele>41.0</ele><time>2026-04-23T08:30:16.872Z</time></trkpt><trkpt lat="44.3089229" lon="11.7986304"><ele>41.0</ele><time>2026-04-23T08:30:18.872Z</time></trkpt><trkpt lat="44.3090139" lon="11.7985512"><ele>41.0</ele><time>2026-04-23T08:30:20.871Z</time></trkpt><trkpt lat="44.3091129" lon="11.7984823"><ele>41.0</ele><time>2026-04-23T08:30:22.872Z</time></trkpt><trkpt lat="44.3092233" lon="11.7984254"><ele>41.0</ele><time>2026-04-23T08:30:24.872Z</time></trkpt><trkpt lat="44.3093378" lon="11.7983872"><ele>41.0</ele><time>2026-04-23T08:30:26.871Z</time></trkpt><trkpt lat="44.3094437" lon="11.7983614"><ele>41.0</ele><time>2026-04-23T08:30:28.872Z</time></trkpt><trkpt lat="44.3095421" lon="11.7983367"><ele>41.0</ele><time>2026-04-23T08:30:30.871Z</time></trkpt><trkpt lat="44.3096281" lon="11.7983303"><ele>41.0</ele><time>2026-04-23T08:30:32.871Z</time></trkpt><trkpt lat="44.309705" lon="11.7983268"><ele>41.0</ele><time>2026-04-23T08:30:34.872Z</time></trkpt><trkpt lat="44.3097737" lon="11.7983247"><ele>41.0</ele><time>2026-04-23T08:30:36.872Z</time></trkpt><trkpt lat="44.3098405" lon="11.7983392"><ele>41.0</ele><time>2026-04-23T08:30:39.885Z</time></trkpt><trkpt lat="44.3099041" lon="11.7983491"><ele>41.0</ele><time>2026-04-23T08:30:40.895Z</time></trkpt><trkpt lat="44.3099689" lon="11.7983506"><ele>41.0</ele><time>2026-04-23T08:30:41.871Z</time></trkpt><trkpt lat="44.3100813" lon="11.7983676"><ele>41.0</ele><time>2026-04-23T08:30:43.871Z</time></trkpt><trkpt lat="44.3101868" lon="11.7983873"><ele>41.0</ele><time>2026-04-23T08:30:45.871Z</time></trkpt><trkpt lat="44.3102881" lon="11.7984454"><ele>41.0</ele><time>2026-04-23T08:30:47.871Z</time></trkpt><trkpt lat="44.310393" lon="11.7984991"><ele>41.0</ele><time>2026-04-23T08:30:49.872Z</time></trkpt><trkpt lat="44.3104984" lon="11.7985453"><ele>41.0</ele><time>2026-04-23T08:30:51.872Z</time></trkpt><trkpt lat="44.3106094" lon="11.798583"><ele>40.8</ele><time>2026-04-23T08:30:53.871Z</time></trkpt><trkpt lat="44.3107282" lon="11.7985809"><ele>40.599999999999994</ele><time>2026-04-23T08:30:55.872Z</time></trkpt><trkpt lat="44.3108312" lon="11.7985729"><ele>40.4</ele><time>2026-04-23T08:30:57.871Z</time></trkpt><trkpt lat="44.3109304" lon="11.7985679"><ele>40.2</ele><time>2026-04-23T08:30:59.872Z</time></trkpt><trkpt lat="44.3110286" lon="11.7985595"><ele>40.0</ele><time>2026-04-23T08:31:01.872Z</time></trkpt><trkpt lat="44.3111205" lon="11.7985439"><ele>40.0</ele><time>2026-04-23T08:31:03.871Z</time></trkpt><trkpt lat="44.3112127" lon="11.7985349"><ele>40.0</ele><time>2026-04-23T08:31:05.871Z</time></trkpt><trkpt lat="44.3113184" lon="11.7985209"><ele>40.0</ele><time>2026-04-23T08:31:07.872Z</time></trkpt><trkpt lat="44.3114302" lon="11.7985107"><ele>40.0</ele><time>2026-04-23T08:31:09.872Z</time></trkpt><trkpt lat="44.3115436" lon="11.7985014"><ele>40.0</ele><time>2026-04-23T08:31:11.871Z</time></trkpt><trkpt lat="44.3116649" lon="11.7984887"><ele>40.14285714285714</ele><time>2026-04-23T08:31:13.872Z</time></trkpt><trkpt lat="44.3117293" lon="11.7984803"><ele>40.285714285714285</ele><time>2026-04-23T08:31:14.872Z</time></trkpt><trkpt lat="44.3117922" lon="11.7984685"><ele>40.42857142857143</ele><time>2026-04-23T08:31:15.872Z</time></trkpt><trkpt lat="44.3118573" lon="11.7984573"><ele>40.57142857142857</ele><time>2026-04-23T08:31:16.871Z</time></trkpt><trkpt lat="44.3119796" lon="11.7984416"><ele>40.714285714285715</ele><time>2026-04-23T08:31:18.871Z</time></trkpt><trkpt lat="44.3120443" lon="11.7984357"><ele>40.857142857142854</ele><time>2026-04-23T08:31:19.872Z</time></trkpt><trkpt lat="44.3121082" lon="11.7984266"><ele>41.0</ele><time>2026-04-23T08:31:20.871Z</time></trkpt><trkpt lat="44.3122336" lon="11.7984146"><ele>41.166666666666664</ele><time>2026-04-23T08:31:22.871Z</time></trkpt><trkpt lat="44.3123562" lon="11.7984054"><ele>41.33333333333333</ele><time>2026-04-23T08:31:24.872Z</time></trkpt><trkpt lat="44.3124802" lon="11.7983928"><ele>41.5</ele><time>2026-04-23T08:31:26.871Z</time></trkpt><trkpt lat="44.3125435" lon="11.7983858"><ele>41.666666666666664</ele><time>2026-04-23T08:31:27.872Z</time></trkpt><trkpt lat="44.3126079" lon="11.7983814"><ele>41.833333333333336</ele><time>2026-04-23T08:31:28.872Z</time></trkpt><trkpt lat="44.3126758" lon="11.7983793"><ele>42.0</ele><time>2026-04-23T08:31:29.872Z</time></trkpt><trkpt lat="44.3127415" lon="11.7983791"><ele>42.0</ele><time>2026-04-23T08:31:30.872Z</time></trkpt><trkpt lat="44.312864" lon="11.798376"><ele>42.0</ele><time>2026-04-23T08:31:32.871Z</time></trkpt><trkpt lat="44.3129833" lon="11.7983603"><ele>42.0</ele><time>2026-04-23T08:31:34.872Z</time></trkpt><trkpt lat="44.3130932" lon="11.7983415"><ele>42.0</ele><time>2026-04-23T08:31:36.872Z</time></trkpt><trkpt lat="44.3132012" lon="11.7983326"><ele>42.0</ele><time>2026-04-23T08:31:38.871Z</time></trkpt><trkpt lat="44.3133044" lon="11.798329"><ele>42.0</ele><time>2026-04-23T08:31:40.872Z</time></trkpt><trkpt lat="44.3134017" lon="11.7983187"><ele>42.0</ele><time>2026-04-23T08:31:42.871Z</time></trkpt><trkpt lat="44.3134885" lon="11.7982968"><ele>42.0</ele><time>2026-04-23T08:31:44.871Z</time></trkpt><trkpt lat="44.3135629" lon="11.798288"><ele>42.0</ele><time>2026-04-23T08:31:46.872Z</time></trkpt><trkpt lat="44.3136372" lon="11.7982799"><ele>42.0</ele><time>2026-04-23T08:31:48.871Z</time></trkpt><trkpt lat="44.3137203" lon="11.7982859"><ele>42.0</ele><time>2026-04-23T08:31:50.872Z</time></trkpt><trkpt lat="44.3138071" lon="11.7983116"><ele>42.0</ele><time>2026-04-23T08:31:52.871Z</time></trkpt><trkpt lat="44.3139129" lon="11.7983523"><ele>42.0</ele><time>2026-04-23T08:31:54.871Z</time></trkpt><trkpt lat="44.3140199" lon="11.7984156"><ele>42.0</ele><time>2026-04-23T08:31:56.872Z</time></trkpt><trkpt lat="44.3141303" lon="11.7984782"><ele>42.0</ele><time>2026-04-23T08:31:58.871Z</time></trkpt><trkpt lat="44.314242" lon="11.7985457"><ele>42.0</ele><time>2026-04-23T08:32:00.872Z</time></trkpt><trkpt lat="44.3143392" lon="11.7986045"><ele>42.0</ele><time>2026-04-23T08:32:02.872Z</time></trkpt><trkpt lat="44.314441" lon="11.7986075"><ele>42.0</ele><time>2026-04-23T08:32:04.872Z</time></trkpt><trkpt lat="44.3144968" lon="11.7985164"><ele>42.0</ele><time>2026-04-23T08:32:06.871Z</time></trkpt><trkpt lat="44.3145491" lon="11.7983832"><ele>42.0</ele><time>2026-04-23T08:32:08.871Z</time></trkpt><trkpt lat="44.3146014" lon="11.7982499"><ele>42.166666666666664</ele><time>2026-04-23T08:32:10.872Z</time></trkpt><trkpt lat="44.3146494" lon="11.7981214"><ele>42.333333333333336</ele><time>2026-04-23T08:32:12.871Z</time></trkpt><trkpt lat="44.3146971" lon="11.7980009"><ele>42.5</ele><time>2026-04-23T08:32:14.872Z</time></trkpt><trkpt lat="44.3147343" lon="11.7978936"><ele>42.66666666666667</ele><time>2026-04-23T08:32:16.872Z</time></trkpt><trkpt lat="44.3147759" lon="11.797796"><ele>42.833333333333336</ele><time>2026-04-23T08:32:18.871Z</time></trkpt><trkpt lat="44.3148217" lon="11.7977122"><ele>43.0</ele><time>2026-04-23T08:32:20.871Z</time></trkpt><trkpt lat="44.3148625" lon="11.7976206"><ele>43.0</ele><time>2026-04-23T08:32:23.871Z</time></trkpt><trkpt lat="44.3149033" lon="11.7975209"><ele>43.0</ele><time>2026-04-23T08:32:26.871Z</time></trkpt><trkpt lat="44.3149499" lon="11.7974247"><ele>43.0</ele><time>2026-04-23T08:32:28.871Z</time></trkpt><trkpt lat="44.3150016" lon="11.7973078"><ele>43.0</ele><time>2026-04-23T08:32:30.871Z</time></trkpt><trkpt lat="44.3150495" lon="11.797173"><ele>43.0</ele><time>2026-04-23T08:32:32.871Z</time></trkpt><trkpt lat="44.3150963" lon="11.7970353"><ele>43.0</ele><time>2026-04-23T08:32:34.872Z</time></trkpt><trkpt lat="44.3151412" lon="11.7969062"><ele>43.0</ele><time>2026-04-23T08:32:36.872Z</time></trkpt><trkpt lat="44.3151941" lon="11.7967908"><ele>43.0</ele><time>2026-04-23T08:32:38.872Z</time></trkpt><trkpt lat="44.3152501" lon="11.796674"><ele>43.0</ele><time>2026-04-23T08:32:40.871Z</time></trkpt><trkpt lat="44.3152806" lon="11.796559"><ele>43.0</ele><time>2026-04-23T08:32:42.872Z</time></trkpt><trkpt lat="44.3153047" lon="11.796456"><ele>43.0</ele><time>2026-04-23T08:32:44.871Z</time></trkpt><trkpt lat="44.3153638" lon="11.7964087"><ele>43.0</ele><time>2026-04-23T08:32:46.871Z</time></trkpt><trkpt lat="44.3154433" lon="11.7964767"><ele>43.0</ele><time>2026-04-23T08:32:48.871Z</time></trkpt><trkpt lat="44.3155154" lon="11.7965486"><ele>43.0</ele><time>2026-04-23T08:32:50.872Z</time></trkpt><trkpt lat="44.3155787" lon="11.7966257"><ele>43.0</ele><time>2026-04-23T08:32:52.871Z</time></trkpt><trkpt lat="44.3156353" lon="11.79669"><ele>43.0</ele><time>2026-04-23T08:32:54.872Z</time></trkpt><trkpt lat="44.3157165" lon="11.7967013"><ele>43.0</ele><time>2026-04-23T08:32:56.871Z</time></trkpt><trkpt lat="44.3157882" lon="11.7966221"><ele>43.0</ele><time>2026-04-23T08:32:58.872Z</time></trkpt><trkpt lat="44.3158461" lon="11.7964961"><ele>43.0</ele><time>2026-04-23T08:33:00.872Z</time></trkpt><trkpt lat="44.3158925" lon="11.796371"><ele>43.0</ele><time>2026-04-23T08:33:02.872Z</time></trkpt><trkpt lat="44.3159458" lon="11.7962437"><ele>43.0</ele><time>2026-04-23T08:33:04.871Z</time></trkpt><trkpt lat="44.3159964" lon="11.7961126"><ele>43.0</ele><time>2026-04-23T08:33:06.871Z</time></trkpt><trkpt lat="44.3160484" lon="11.79598"><ele>43.0</ele><time>2026-04-23T08:33:08.871Z</time></trkpt><trkpt lat="44.3161056" lon="11.7958465"><ele>43.0</ele><time>2026-04-23T08:33:10.872Z</time></trkpt><trkpt lat="44.3161575" lon="11.7957278"><ele>43.0</ele><time>2026-04-23T08:33:12.871Z</time></trkpt><trkpt lat="44.3162162" lon="11.7956226"><ele>43.0</ele><time>2026-04-23T08:33:14.871Z</time></trkpt><trkpt lat="44.3163035" lon="11.7955897"><ele>43.0</ele><time>2026-04-23T08:33:16.872Z</time></trkpt><trkpt lat="44.3163827" lon="11.7956362"><ele>43.0</ele><time>2026-04-23T08:33:18.871Z</time></trkpt><trkpt lat="44.3164497" lon="11.7956972"><ele>43.0</ele><time>2026-04-23T08:33:20.872Z</time></trkpt><trkpt lat="44.3165109" lon="11.7957499"><ele>43.0</ele><time>2026-04-23T08:33:22.871Z</time></trkpt><trkpt lat="44.3165696" lon="11.7958037"><ele>43.0</ele><time>2026-04-23T08:33:24.871Z</time></trkpt><trkpt lat="44.3166307" lon="11.7958591"><ele>43.0</ele><time>2026-04-23T08:33:26.871Z</time></trkpt><trkpt lat="44.3167128" lon="11.7959103"><ele>43.16666666666667</ele><time>2026-04-23T08:33:28.872Z</time></trkpt><trkpt lat="44.3167853" lon="11.7959731"><ele>43.333333333333336</ele><time>2026-04-23T08:33:30.872Z</time></trkpt><trkpt lat="44.3168396" lon="11.7960315"><ele>43.5</ele><time>2026-04-23T08:33:32.872Z</time></trkpt><trkpt lat="44.3169045" lon="11.7960286"><ele>43.666666666666664</ele><time>2026-04-23T08:33:34.871Z</time></trkpt><trkpt lat="44.3169501" lon="11.7959397"><ele>43.83333333333333</ele><time>2026-04-23T08:33:36.871Z</time></trkpt><trkpt lat="44.3169724" lon="11.7958102"><ele>44.0</ele><time>2026-04-23T08:33:38.872Z</time></trkpt><trkpt lat="44.3170247" lon="11.7956893"><ele>44.0</ele><time>2026-04-23T08:33:40.871Z</time></trkpt><trkpt lat="44.3170827" lon="11.7955629"><ele>44.0</ele><time>2026-04-23T08:33:42.871Z</time></trkpt><trkpt lat="44.3171369" lon="11.7954494"><ele>44.0</ele><time>2026-04-23T08:33:44.871Z</time></trkpt><trkpt lat="44.3171651" lon="11.795347"><ele>44.0</ele><time>2026-04-23T08:33:46.872Z</time></trkpt><trkpt lat="44.3171732" lon="11.7952415"><ele>44.0</ele><time>2026-04-23T08:33:48.871Z</time></trkpt><trkpt lat="44.3171565" lon="11.7951522"><ele>44.0</ele><time>2026-04-23T08:33:50.871Z</time></trkpt><trkpt lat="44.3171358" lon="11.7950596"><ele>44.0</ele><time>2026-04-23T08:33:52.872Z</time></trkpt><trkpt lat="44.3170947" lon="11.7949642"><ele>44.0</ele><time>2026-04-23T08:33:55.871Z</time></trkpt><trkpt lat="44.317073" lon="11.7948546"><ele>44.0</ele><time>2026-04-23T08:33:58.872Z</time></trkpt><trkpt lat="44.3170732" lon="11.7947593"><ele>44.0</ele><time>2026-04-23T08:34:00.872Z</time></trkpt><trkpt lat="44.3170893" lon="11.7946475"><ele>44.0</ele><time>2026-04-23T08:34:02.872Z</time></trkpt><trkpt lat="44.3171055" lon="11.794523"><ele>44.0</ele><time>2026-04-23T08:34:04.871Z</time></trkpt><trkpt lat="44.3171369" lon="11.7943809"><ele>44.0</ele><time>2026-04-23T08:34:06.871Z</time></trkpt><trkpt lat="44.3171759" lon="11.7942364"><ele>44.0</ele><time>2026-04-23T08:34:08.872Z</time></trkpt><trkpt lat="44.3172155" lon="11.7940921"><ele>44.0</ele><time>2026-04-23T08:34:10.872Z</time></trkpt><trkpt lat="44.3172589" lon="11.7939572"><ele>44.0</ele><time>2026-04-23T08:34:12.871Z</time></trkpt><trkpt lat="44.3173053" lon="11.7938184"><ele>44.0</ele><time>2026-04-23T08:34:14.871Z</time></trkpt><trkpt lat="44.3173514" lon="11.7936836"><ele>44.2</ele><time>2026-04-23T08:34:16.871Z</time></trkpt><trkpt lat="44.3173909" lon="11.7935522"><ele>44.400000000000006</ele><time>2026-04-23T08:34:18.871Z</time></trkpt><trkpt lat="44.3174214" lon="11.7934111"><ele>44.6</ele><time>2026-04-23T08:34:20.872Z</time></trkpt><trkpt lat="44.3174577" lon="11.7932795"><ele>44.8</ele><time>2026-04-23T08:34:22.871Z</time></trkpt><trkpt lat="44.3175004" lon="11.7931591"><ele>45.0</ele><time>2026-04-23T08:34:24.871Z</time></trkpt><trkpt lat="44.3175465" lon="11.7930437"><ele>45.0</ele><time>2026-04-23T08:34:26.871Z</time></trkpt><trkpt lat="44.3175891" lon="11.7929253"><ele>45.0</ele><time>2026-04-23T08:34:28.871Z</time></trkpt><trkpt lat="44.3176241" lon="11.792789"><ele>45.0</ele><time>2026-04-23T08:34:30.872Z</time></trkpt><trkpt lat="44.3176634" lon="11.7926619"><ele>45.0</ele><time>2026-04-23T08:34:32.871Z</time></trkpt><trkpt lat="44.317701" lon="11.7925373"><ele>45.0</ele><time>2026-04-23T08:34:34.872Z</time></trkpt><trkpt lat="44.3177341" lon="11.7924098"><ele>44.833333333333336</ele><time>2026-04-23T08:34:36.871Z</time></trkpt><trkpt lat="44.3177685" lon="11.7922816"><ele>44.666666666666664</ele><time>2026-04-23T08:34:38.872Z</time></trkpt><trkpt lat="44.3178057" lon="11.7921562"><ele>44.5</ele><time>2026-04-23T08:34:40.871Z</time></trkpt><trkpt lat="44.3178363" lon="11.7920399"><ele>44.33333333333333</ele><time>2026-04-23T08:34:42.871Z</time></trkpt><trkpt lat="44.3178674" lon="11.7919479"><ele>44.166666666666664</ele><time>2026-04-23T08:34:44.872Z</time></trkpt><trkpt lat="44.3178843" lon="11.7918628"><ele>44.0</ele><time>2026-04-23T08:34:46.871Z</time></trkpt><trkpt lat="44.3178453" lon="11.7917896"><ele>44.0</ele><time>2026-04-23T08:34:49.872Z</time></trkpt><trkpt lat="44.3177743" lon="11.7917727"><ele>44.0</ele><time>2026-04-23T08:34:54.872Z</time></trkpt><trkpt lat="44.3177143" lon="11.7917367"><ele>44.0</ele><time>2026-04-23T08:34:56.872Z</time></trkpt><trkpt lat="44.3176505" lon="11.7916908"><ele>44.0</ele><time>2026-04-23T08:34:58.872Z</time></trkpt><trkpt lat="44.3176404" lon="11.7915907"><ele>44.0</ele><time>2026-04-23T08:35:00.871Z</time></trkpt><trkpt lat="44.3177024" lon="11.7914802"><ele>44.0</ele><time>2026-04-23T08:35:02.872Z</time></trkpt><trkpt lat="44.3177363" lon="11.7913828"><ele>44.0</ele><time>2026-04-23T08:35:04.871Z</time></trkpt><trkpt lat="44.3177817" lon="11.7912788"><ele>44.0</ele><time>2026-04-23T08:35:07.871Z</time></trkpt></trkseg></trk></gpx>